GFSCGP_500_spd_000.txt.gz
Wind_Speed
32 34 23 21 24 22 26 30 31 27 22 30 27 28 24 22 17 13 13 17 22 23 21 17 23 25 28 30 31 22 23 26 20 20 20 20 22 23 18 22 23 16 9 13
31 22 21 28 29 30 34 37 37 29 25 32 33 29 25 23 16 10 9 14 18 19 18 16 21 24 27 27 28 19 20 23 19 17 19 20 20 26 24 21 31 29 22 24
30 19 24 25 27 32 34 35 32 30 29 30 35 33 26 24 18 12 11 13 16 21 18 14 19 22 25 24 25 16 18 21 18 15 19 17 17 18 19 21 27 29 26 24
31 27 28 28 29 31 31 27 31 32 31 29 34 33 26 23 18 20 16 14 17 20 15 12 17 19 22 22 23 14 16 19 17 13 11 20 27 22 23 25 28 26 26 24
21 25 30 32 28 30 28 29 33 32 31 30 33 33 27 20 21 23 15 11 18 18 12 10 14 16 19 19 19 13 13 16 17 16 23 17 16 19 10 17 17 24 23 21
22 27 34 35 32 31 31 33 35 34 32 30 28 27 26 22 21 15 11 15 17 15 9 8 11 12 15 15 17 12 9 12 14 13 17 18 20 19 17 15 12 16 19 24
21 16 26 34 34 33 34 34 33 33 29 27 20 25 26 20 14 10 10 12 16 12 5 6 9 9 11 12 13 12 11 8 11 11 13 16 18 17 13 11 17 13 14 18
24 23 18 23 28 30 32 33 33 31 28 28 25 26 27 16 13 14 16 13 13 11 4 5 8 6 8 9 9 11 7 9 7 10 11 14 14 12 18 20 21 18 16 17
27 25 19 23 24 27 31 33 28 30 28 29 27 23 17 7 11 13 12 11 13 7 3 4 6 3 5 7 9 6 12 7 7 7 8 11 12 12 16 18 18 18 17 18
30 29 22 24 27 30 33 30 31 31 28 24 23 20 8 12 9 13 17 13 9 5 5 3 4 1 3 6 7 8 6 8 5 7 10 11 12 12 13 17 17 19 19 19
32 31 26 31 33 32 35 36 33 30 28 22 22 12 6 14 16 17 13 10 9 4 5 3 3 2 1 5 6 6 7 8 7 8 11 11 11 12 10 12 15 16 15 13
35 35 36 32 34 36 37 36 31 30 27 25 24 8 8 5 13 18 7 6 8 4 2 3 1 4 1 4 6 5 7 8 11 9 12 13 14 13 13 12 13 15 17 17
38 39 37 35 40 38 39 37 35 31 31 28 24 12 8 9 12 16 13 9 5 5 2 2 4 5 2 3 7 5 4 7 11 14 16 15 14 15 18 15 14 15 18 18
42 42 40 38 30 31 34 35 32 32 34 29 22 14 9 13 13 16 15 9 8 6 3 4 5 6 4 6 8 8 4 5 9 14 15 14 16 16 15 15 17 16 16 17
46 42 39 36 33 31 30 30 29 31 30 34 20 21 16 19 20 16 17 14 10 8 7 5 6 7 6 8 8 8 7 6 7 10 12 12 12 14 13 14 15 17 18 19
48 45 43 41 38 37 37 36 34 34 32 31 24 24 15 15 21 17 14 16 13 11 9 8 8 7 8 8 10 9 7 7 8 7 8 10 11 13 15 15 16 17 18 19
52 50 46 45 41 40 42 41 37 36 35 29 29 21 21 22 26 24 22 14 17 18 16 14 11 11 10 10 11 11 8 6 8 9 9 11 11 13 17 17 17 19 20 19
53 52 50 50 46 48 39 32 31 31 31 30 25 24 24 29 28 25 22 19 20 24 17 16 16 13 11 11 12 11 9 8 7 9 10 12 13 12 15 17 16 16 15 14
59 54 54 54 51 47 42 40 35 29 24 29 19 20 24 25 25 20 17 16 15 25 22 17 18 16 13 13 15 13 11 10 9 9 10 10 11 12 12 14 14 13 11 10
65 59 57 57 54 50 44 44 37 34 30 28 26 25 26 28 30 15 23 17 21 26 25 20 19 18 16 14 16 17 13 11 11 11 10 10 10 10 10 10 10 10 9 8
72 69 65 61 57 51 50 48 37 34 27 19 25 25 30 32 17 19 29 21 24 30 28 21 22 19 20 20 18 19 17 13 13 13 12 11 9 8 7 7 6 5 4 4
73 72 71 66 59 54 53 50 46 36 23 16 21 27 30 32 25 28 28 29 29 34 26 27 24 26 21 21 19 19 20 21 19 17 14 12 10 8 7 5 6 6 5 5
77 75 73 69 57 55 55 55 43 35 33 27 29 27 28 27 31 29 26 31 29 25 23 23 24 28 25 23 20 21 24 25 22 19 19 17 16 14 13 12 11 11 10 9
77 76 76 75 69 62 61 57 47 45 23 32 30 31 24 32 31 32 24 33 28 25 21 28 30 29 26 26 23 21 23 27 25 24 23 23 21 20 18 18 16 16 15 15
75 75 78 78 73 66 64 61 51 46 37 28 24 27 28 30 32 32 30 36 36 33 27 23 23 26 25 28 26 25 23 23 24 26 26 26 24 23 22 21 21 21 21 21
74 74 76 76 71 69 69 65 58 45 40 44 36 27 25 26 25 32 30 31 30 33 38 33 31 29 30 27 26 27 28 26 23 24 25 26 26 25 24 23 24 25 25 25

GFSCGP_500_spd_003.txt.gz
Wind_Speed
30 31 23 19 22 23 24 26 28 30 30 34 34 34 24 28 25 23 23 22 19 18 19 21 22 21 22 26 28 26 21 26 23 19 17 15 18 22 23 25 27 22 17 12
26 21 15 21 23 22 24 27 30 32 38 39 35 34 31 27 27 20 20 25 24 22 20 21 21 19 21 24 27 21 18 23 19 15 21 15 22 18 24 22 28 26 26 19
24 16 20 23 23 24 24 26 31 35 36 37 35 32 34 29 25 17 19 22 23 22 21 21 20 17 19 21 24 17 16 20 19 12 16 20 21 25 23 23 24 26 23 16
25 23 23 27 28 24 28 25 31 34 35 33 30 33 31 27 23 22 23 26 23 19 19 19 17 15 16 19 21 14 14 18 19 11 10 14 9 20 21 21 24 22 22 20
16 18 22 30 26 29 28 28 32 33 32 29 27 32 26 22 21 22 23 21 18 17 20 16 14 13 14 16 17 12 10 15 14 13 16 14 11 12 12 19 20 20 18 19
20 22 26 27 30 32 32 30 30 33 32 29 24 27 23 23 19 17 16 15 14 12 15 13 13 11 12 13 14 14 5 11 11 11 14 14 16 13 14 17 15 14 19 17
21 20 22 26 32 33 32 30 32 34 32 26 23 25 20 20 19 17 14 15 15 14 12 11 11 10 10 11 11 14 6 6 8 8 10 14 15 13 12 15 12 12 17 15
28 26 19 22 25 28 31 31 33 32 30 26 25 23 20 17 14 18 14 15 19 16 11 10 9 8 9 9 8 10 7 5 3 6 7 10 12 14 15 17 13 13 10 17
29 30 22 26 23 26 26 29 27 29 30 28 23 20 15 13 14 13 11 10 15 13 9 8 7 6 7 8 8 8 7 5 1 4 5 8 9 14 11 15 15 15 19 23
32 33 24 26 29 30 26 27 27 29 29 27 21 17 10 9 13 10 10 12 13 10 7 6 5 4 4 6 7 8 7 6 2 5 5 6 7 10 13 12 16 19 17 17
35 34 30 30 34 29 30 27 29 29 29 26 19 12 9 7 9 14 15 17 12 9 6 5 4 3 2 5 6 8 8 8 5 5 6 6 8 9 14 12 13 13 16 19
34 34 34 28 33 33 32 28 32 30 29 24 21 6 11 10 11 11 15 11 11 6 5 5 4 3 1 3 5 7 9 9 6 8 8 7 7 10 13 10 13 14 16 17
39 40 38 37 40 38 32 32 32 33 31 27 20 6 13 12 12 12 14 10 8 5 4 5 5 4 0 2 4 7 8 9 10 9 6 9 10 13 14 13 17 19 22 22
40 42 43 38 33 34 34 32 33 32 31 26 20 12 13 13 14 13 14 10 7 7 5 5 7 6 2 2 4 6 7 9 9 10 10 11 13 14 14 14 15 17 18 19
45 44 42 39 38 35 35 34 32 29 26 24 18 14 11 16 16 14 17 12 10 9 8 6 8 8 6 4 4 5 6 8 8 8 9 10 11 11 12 14 14 15 18 19
47 46 46 42 39 35 34 35 37 27 29 26 24 20 18 19 15 12 15 11 15 13 10 8 10 10 10 8 6 5 7 6 8 8 7 8 9 12 14 15 15 15 17 19
51 50 48 45 41 36 41 37 32 27 30 27 28 17 19 18 15 14 16 12 15 16 13 10 11 11 11 11 9 8 7 8 7 7 8 9 9 11 14 16 19 18 18 18
53 51 50 48 46 44 38 34 32 31 29 26 24 24 20 15 18 17 16 19 17 19 20 14 12 12 12 12 13 12 9 9 8 7 8 9 10 10 13 16 17 18 18 17
54 55 55 54 52 47 41 37 33 30 25 21 19 18 20 22 25 17 15 16 21 19 19 19 16 15 13 14 15 15 12 11 11 10 10 10 9 10 10 13 15 14 13 11
57 57 58 57 56 50 45 41 36 34 33 22 15 19 22 25 26 12 15 19 20 18 18 21 17 14 14 14 17 18 14 14 13 12 11 11 9 9 9 8 9 9 8 6
64 61 61 61 59 53 52 45 41 39 31 23 25 22 25 24 14 20 25 24 23 16 20 23 20 16 15 16 17 21 18 16 15 14 13 12 12 11 9 8 7 6 5 4
68 67 65 64 62 54 51 48 46 37 31 23 23 29 27 23 18 27 30 31 28 21 19 24 23 22 19 16 16 20 23 21 18 17 15 13 12 12 10 7 7 7 6 6
73 73 70 68 59 56 53 53 47 39 34 25 23 22 23 23 22 27 24 31 27 20 20 27 29 23 18 21 19 20 25 25 22 18 17 16 14 13 10 9 9 8 8 7
75 72 72 70 63 60 61 54 46 44 43 24 29 30 24 24 19 19 29 30 33 28 27 28 32 24 19 17 23 22 24 25 24 24 24 22 19 18 16 15 15 15 13 13
74 72 70 70 65 66 63 62 57 53 45 28 31 26 22 25 20 19 29 33 32 30 30 30 35 30 27 25 26 29 27 25 24 26 27 27 26 25 23 21 20 20 19 18
75 70 73 68 67 66 65 64 61 58 54 44 36 37 31 20 19 20 26 31 30 27 34 36 32 30 30 27 27 29 32 32 29 27 28 29 29 28 26 25 25 24 24 23

GFSCGP_500_spd_006.txt.gz
Wind_Speed
37 38 35 26 24 23 28 26 26 25 29 28 30 32 28 30 30 28 26 26 26 29 31 28 27 27 26 25 25 24 20 23 22 17 19 16 19 16 24 27 21 16 9 8
36 33 20 24 26 27 24 22 23 28 30 34 34 32 32 30 29 27 24 22 23 28 32 28 28 24 24 23 23 20 18 21 19 12 16 15 18 14 23 24 25 23 18 11
28 21 26 25 27 26 20 20 22 28 32 35 34 29 30 25 26 24 22 25 24 30 31 25 24 22 21 20 20 17 15 16 18 15 18 13 14 18 22 21 21 23 22 14
31 29 32 26 30 20 24 20 23 28 32 32 30 28 28 25 25 23 23 24 25 28 22 21 20 18 19 18 17 15 12 14 13 15 21 14 9 12 16 20 18 17 19 13
24 29 21 29 23 26 24 26 27 29 30 31 24 29 24 24 20 18 19 22 24 18 19 19 17 16 18 16 15 15 12 12 12 14 19 14 9 12 14 16 15 15 17 17
29 27 29 30 29 31 28 29 28 27 30 31 22 26 18 16 18 14 17 20 17 14 18 17 14 15 16 13 13 14 12 9 11 12 15 15 12 11 12 15 13 14 16 16
31 31 32 30 31 24 27 27 26 27 26 23 24 24 17 19 19 16 18 17 16 16 18 16 12 15 13 11 11 12 11 10 7 11 14 15 13 13 18 15 12 18 19 19
34 37 27 23 23 21 26 25 25 23 21 14 24 20 11 21 19 17 18 11 11 11 13 14 10 14 10 9 9 10 12 11 3 7 11 12 13 12 16 19 17 15 15 19
35 32 26 28 24 27 29 27 23 24 25 26 18 18 15 16 16 15 15 11 11 10 11 9 10 12 7 8 8 9 11 11 4 4 7 8 12 12 16 18 21 20 15 14
40 36 32 27 30 34 31 26 24 22 23 21 11 9 9 12 15 16 16 13 10 12 9 7 11 10 5 6 8 8 11 10 2 2 4 6 10 10 12 13 15 19 14 15
42 38 37 33 40 36 33 28 23 26 23 17 12 9 16 15 17 16 18 14 13 11 10 6 11 7 5 5 6 8 11 6 2 4 3 5 7 8 10 11 15 18 14 17
37 38 39 35 34 34 36 30 29 28 26 24 20 11 18 14 18 14 15 16 12 10 8 6 9 5 3 4 5 7 9 6 3 5 3 4 6 5 9 12 14 18 18 20
42 48 44 39 46 44 40 34 31 28 28 25 18 6 16 17 19 14 15 14 8 5 7 6 5 5 3 3 5 6 8 5 6 6 6 6 8 7 9 15 13 17 20 22
45 46 45 45 39 36 37 33 31 29 28 22 20 12 18 16 19 14 12 13 8 7 8 6 4 6 4 0 4 5 6 6 7 10 7 8 10 10 11 14 16 18 19 19
49 50 48 44 40 42 38 35 32 33 26 27 18 12 15 18 20 15 9 13 8 10 10 6 4 7 6 3 1 5 6 7 7 9 10 9 9 11 11 11 12 14 15 18
53 50 50 49 45 44 41 39 37 33 25 26 25 17 20 23 22 14 11 14 9 13 10 6 5 7 8 5 3 1 6 6 7 7 9 8 7 9 11 13 14 13 14 15
57 54 53 52 47 43 44 42 37 33 26 26 22 14 25 26 24 17 13 11 10 14 12 10 7 6 8 7 5 2 5 6 7 8 9 10 8 9 12 13 14 15 16 17
57 54 53 51 45 46 37 40 37 32 30 27 22 18 18 25 23 21 16 11 11 12 13 13 10 8 7 8 7 5 5 7 7 8 9 11 11 11 12 14 16 17 18 17
58 55 54 52 53 48 45 42 38 36 30 27 22 15 11 21 23 22 14 13 15 15 16 15 17 11 7 8 10 9 7 8 8 8 9 11 12 12 12 13 15 16 14 13
60 57 56 54 55 51 41 45 40 35 34 31 20 15 14 21 22 12 18 17 14 14 16 16 16 13 9 8 12 12 11 9 10 10 10 10 11 11 12 11 10 9 9 7
64 63 59 59 56 53 48 48 42 40 32 24 16 18 17 17 11 19 23 19 15 15 18 15 19 16 14 12 12 15 15 13 10 11 10 10 10 10 10 10 7 6 4 4
66 67 65 61 59 57 55 54 47 39 37 23 25 26 20 15 19 24 25 24 21 18 16 13 19 19 16 14 14 14 20 17 15 12 11 11 11 10 9 9 7 6 5 5
64 64 66 66 63 60 57 54 50 48 38 26 29 27 21 23 22 23 27 29 23 23 22 21 20 25 22 17 16 17 20 19 19 18 15 13 12 12 10 9 8 6 5 5
75 75 72 71 68 65 61 57 54 50 41 32 32 28 22 18 17 17 23 26 27 25 27 25 22 26 25 19 19 22 19 20 22 21 20 18 16 15 13 12 10 10 11 11
73 75 72 72 71 69 67 62 56 41 43 41 28 29 27 26 20 21 22 23 30 26 28 28 24 25 29 25 21 23 23 21 21 22 25 24 22 21 20 19 17 17 16 17
76 75 78 73 71 69 67 64 59 56 50 35 28 38 29 25 16 21 25 22 24 29 29 31 27 30 32 29 28 25 27 27 25 23 23 25 26 26 27 26 26 25 23 23

GFSCGP_500_spd_012.txt.gz
Wind_Speed
32 34 33 26 18 19 22 17 19 15 20 17 19 20 34 33 31 28 28 33 31 33 29 25 26 29 32 31 29 27 27 28 23 25 24 25 21 20 21 24 25 22 14 10
35 37 26 24 24 27 25 24 23 23 22 29 29 29 36 29 20 19 22 22 24 29 25 24 26 28 29 27 27 24 26 25 21 24 23 21 20 21 21 22 24 20 16 9
37 26 27 28 29 30 29 28 26 22 24 26 26 31 25 18 23 23 26 26 21 23 22 23 23 24 23 25 25 22 24 23 21 22 22 20 23 22 24 19 21 19 17 9
33 30 33 31 34 30 31 24 16 22 26 28 21 27 23 22 17 20 26 28 19 19 19 21 19 22 22 24 23 21 22 21 19 19 21 18 17 21 21 21 20 18 12 12
25 30 34 33 31 28 27 18 21 26 28 27 29 30 16 11 11 20 26 34 27 18 22 21 20 24 22 21 21 19 19 19 18 17 17 16 18 21 19 16 16 17 15 13
30 29 30 28 26 26 22 23 25 31 26 31 23 21 13 4 16 21 27 35 26 19 22 18 20 21 17 18 17 18 18 16 17 14 14 14 19 21 17 14 17 20 15 10
34 34 31 29 30 28 24 29 33 29 28 28 13 16 11 10 24 33 30 17 26 20 17 17 21 18 14 16 15 16 16 14 15 11 11 14 16 19 14 13 17 16 14 9
37 37 34 28 29 31 32 35 31 30 23 9 15 24 16 25 22 24 19 16 20 18 14 18 20 15 14 13 14 15 15 14 14 9 9 12 14 15 14 16 13 14 12 12
40 35 27 31 31 31 35 34 25 27 20 22 17 14 16 26 24 30 23 16 16 16 15 18 18 12 15 10 14 15 14 12 11 7 7 10 14 13 13 14 15 12 11 10
41 34 32 23 31 33 35 27 31 27 25 25 19 16 19 27 27 25 29 23 17 15 14 17 12 10 11 10 13 14 13 10 10 7 9 10 12 11 11 13 13 15 10 12
44 38 32 30 40 36 36 37 36 26 23 18 9 9 22 31 22 28 34 19 13 14 14 13 6 10 6 9 12 13 12 11 11 4 8 9 11 12 12 17 15 13 10 13
47 48 42 37 34 35 28 33 35 30 24 23 20 18 22 23 27 29 31 16 16 13 11 6 5 8 5 8 11 13 12 10 10 8 6 10 10 12 13 18 20 11 10 15
44 52 50 39 32 43 39 35 33 32 29 22 24 19 24 28 27 24 24 16 9 12 10 2 5 6 5 7 11 12 11 12 9 11 9 11 12 13 12 15 21 19 11 10
43 47 51 49 41 42 42 38 35 36 38 31 25 14 22 29 22 25 18 14 8 11 8 3 5 5 3 7 10 11 10 11 11 11 10 11 12 14 14 12 18 23 21 8
42 52 48 43 39 38 41 40 36 39 35 32 21 25 23 21 21 16 24 16 9 11 7 3 4 4 2 5 8 9 9 9 9 11 9 9 9 11 12 11 13 17 18 17
45 54 51 46 41 38 41 40 38 36 35 35 28 25 22 23 19 14 27 21 8 11 7 5 1 3 3 4 6 7 7 7 7 8 8 6 7 8 10 10 7 12 18 20
46 51 55 53 44 45 40 39 42 36 35 35 31 24 24 18 20 22 25 20 6 10 6 5 2 2 4 4 5 6 4 5 6 5 6 7 8 9 10 12 12 14 18 20
56 53 55 52 49 55 52 36 42 39 37 35 33 28 22 25 25 18 25 22 11 10 7 8 5 3 3 4 4 5 3 3 5 5 6 8 9 9 11 15 16 17 18 18
61 53 57 58 56 53 53 50 34 36 36 35 36 34 26 23 28 24 23 26 15 12 8 11 9 4 2 2 3 4 4 2 3 5 5 9 12 12 13 14 14 15 17 18
54 49 54 57 56 58 53 46 43 39 44 35 36 36 27 28 30 21 25 21 20 14 13 10 11 9 9 6 4 4 3 2 3 4 5 8 12 14 15 14 12 11 12 13
54 49 58 58 43 43 53 37 32 50 51 42 38 36 28 32 26 16 19 23 24 17 14 15 15 15 13 11 7 6 5 3 2 4 5 6 8 11 12 12 11 9 7 6
57 47 57 60 55 49 33 34 44 43 42 45 41 36 28 32 26 26 28 25 26 19 14 15 14 15 14 13 11 8 8 8 5 4 5 5 5 6 8 7 6 5 6 7
48 50 49 53 63 54 47 28 38 43 39 42 43 36 31 30 29 31 32 21 20 15 17 15 15 13 14 18 15 13 10 11 10 8 6 6 6 5 4 4 4 5 5 6
53 53 56 41 44 56 45 38 40 37 36 44 39 42 34 31 31 33 29 22 18 19 21 18 15 10 11 19 18 17 12 12 13 12 10 8 8 7 6 5 5 3 2 0
66 54 52 59 32 42 44 43 44 38 46 47 45 33 37 34 31 30 28 26 21 20 20 20 18 16 13 19 22 20 18 15 14 15 15 13 12 11 10 10 9 8 6 6
54 59 54 51 61 44 48 53 41 41 46 51 50 46 36 35 34 30 30 24 24 25 22 21 22 21 19 20 22 24 23 19 18 17 17 18 17 16 16 15 15 14 15 15

GFSCGP_500_spd_015.txt.gz
Wind_Speed
38 44 37 27 23 24 24 25 17 12 7 20 23 18 23 18 29 31 34 26 20 26 33 30 23 25 28 28 28 27 25 25 26 26 24 26 23 25 24 24 21 23 20 14
41 38 30 24 27 28 26 23 21 16 13 22 19 21 22 20 34 34 24 25 26 21 26 24 21 21 24 25 26 24 23 24 24 24 23 23 23 21 22 21 21 19 17 16
43 34 29 32 31 32 26 25 18 22 19 26 23 32 33 34 30 25 21 23 27 27 26 22 22 22 21 24 26 22 22 22 22 22 21 22 21 23 25 20 18 19 15 14
41 36 37 37 35 32 29 20 21 23 21 29 30 33 28 20 20 15 16 28 28 34 32 23 22 21 22 25 21 19 19 20 20 20 18 18 21 22 22 16 17 20 14 14
30 25 33 35 29 28 23 22 21 16 12 18 26 29 15 16 16 14 20 28 32 39 34 20 19 18 21 21 17 16 17 17 18 18 15 16 20 22 18 16 19 20 17 11
29 24 33 31 28 28 20 22 20 13 16 29 27 27 7 8 11 19 24 30 35 40 20 18 16 19 21 16 15 14 15 16 17 15 13 15 17 17 18 19 20 21 15 11
30 29 29 28 32 31 27 15 24 26 31 29 19 24 3 7 11 17 23 25 29 17 15 16 15 18 17 16 12 14 14 15 16 9 11 13 15 16 17 20 16 18 16 12
34 35 32 29 31 32 27 27 30 31 30 15 9 15 16 14 12 16 23 24 26 18 15 17 15 16 14 13 11 13 15 15 12 7 10 12 15 13 17 19 17 15 15 17
37 35 28 29 28 29 30 32 22 27 26 18 11 13 13 14 17 21 27 24 31 19 20 17 17 13 12 8 10 12 13 11 9 7 9 12 14 15 18 17 16 15 18 17
41 38 28 28 27 29 33 26 34 35 32 27 21 18 14 20 24 29 29 25 30 19 21 16 13 9 9 6 11 13 12 12 6 6 10 11 12 14 18 17 15 17 15 14
43 41 34 30 35 33 34 38 38 34 28 22 18 16 19 19 22 27 24 27 30 19 19 14 10 9 3 7 12 12 12 11 9 7 9 11 13 13 20 20 18 17 21 20
45 45 43 39 30 27 31 38 41 39 27 23 17 13 14 18 22 22 19 25 23 12 14 9 7 8 3 8 13 13 13 10 9 8 9 11 11 13 20 22 20 19 21 20
44 49 47 42 38 35 33 33 35 39 30 24 22 17 26 20 23 27 22 20 17 10 9 5 7 5 4 7 12 12 13 12 7 11 11 12 13 15 19 20 21 21 18 15
38 45 54 49 45 39 39 36 33 40 37 29 24 17 24 26 26 23 20 15 12 10 7 3 6 5 1 6 10 10 12 12 10 10 12 11 15 16 17 20 17 15 21 14
44 48 52 49 45 42 39 37 34 31 32 33 22 20 31 20 18 22 23 18 8 7 6 2 3 6 1 4 8 9 9 8 7 7 9 9 11 14 12 16 19 20 20 22
49 50 49 50 51 49 44 40 36 32 35 35 27 24 27 19 22 24 27 20 4 3 5 3 1 4 1 3 6 8 8 8 6 7 8 9 10 13 13 14 19 22 23 22
58 59 46 55 51 50 49 50 41 33 32 31 32 25 29 31 30 29 31 18 5 3 3 4 2 2 2 4 6 7 8 9 8 7 8 9 10 12 16 17 20 22 22 23
65 65 60 51 53 63 53 46 39 40 32 25 30 27 21 26 30 26 27 22 12 9 6 7 3 2 0 3 6 7 8 9 9 7 7 9 10 14 17 18 19 21 23 23
65 69 65 64 59 58 53 52 46 40 35 30 29 29 24 20 27 30 25 23 14 10 10 9 6 5 3 1 4 7 8 7 8 7 7 9 12 15 17 18 18 19 18 19
64 64 62 66 59 67 57 52 44 29 34 33 29 29 28 27 28 28 24 24 16 10 13 9 9 12 7 6 3 6 8 9 8 9 7 9 11 13 15 16 18 18 18 17
65 58 58 60 59 61 56 49 46 47 45 38 36 30 28 29 25 21 22 27 19 19 17 13 11 11 9 9 6 6 8 10 10 10 10 8 9 9 9 10 11 11 11 12
64 58 57 57 56 57 55 52 54 48 43 42 42 38 30 21 24 24 24 29 25 16 16 14 13 16 10 11 10 8 8 10 11 10 9 9 9 9 8 6 5 8 11 13
64 58 59 57 55 53 48 42 43 40 44 44 45 40 35 28 28 25 30 31 28 16 13 20 18 18 11 12 12 10 9 10 11 11 10 10 9 9 8 8 7 8 10 12
57 66 67 59 56 44 44 41 41 39 36 44 40 37 35 33 31 27 32 33 27 20 14 20 19 16 13 12 15 13 11 11 12 13 11 10 11 10 9 8 9 9 8 7
76 55 56 54 55 56 48 47 43 47 47 43 42 37 36 31 33 30 33 33 26 23 18 17 21 18 18 14 15 15 14 14 13 14 14 12 11 11 11 10 8 7 6 5
30 67 71 61 64 64 59 55 51 42 41 42 41 34 30 33 34 35 35 31 28 26 22 18 22 26 23 20 19 19 18 17 16 15 16 16 15 13 12 11 11 11 10 8

GFSCGP_500_spd_018.txt.gz
Wind_Speed
41 37 28 24 20 29 30 26 24 14 22 27 21 16 13 7 18 19 21 26 21 24 13 20 26 32 29 27 27 26 30 30 28 28 25 25 25 26 26 28 23 22 21 18
43 36 31 32 34 33 33 29 27 22 26 27 20 19 14 10 19 19 24 29 27 29 26 23 24 28 30 27 25 28 30 28 26 24 25 23 23 24 24 24 18 19 20 12
44 36 37 35 37 39 37 32 19 20 27 30 22 24 22 17 20 23 28 28 28 27 29 27 25 31 25 23 25 28 25 24 23 22 24 21 21 24 24 18 19 20 17 14
49 46 42 42 42 39 42 25 21 23 27 26 24 26 22 21 22 25 24 20 21 23 27 27 31 25 20 22 25 22 22 22 19 21 20 20 21 23 22 20 19 19 16 10
49 47 44 37 36 37 34 27 25 23 27 27 29 30 15 19 19 21 15 12 13 23 27 29 18 20 17 21 20 21 20 19 17 20 17 17 19 20 21 20 19 18 15 9
52 47 44 41 39 38 30 33 28 28 32 33 21 31 8 9 11 9 9 10 16 21 24 17 17 16 17 20 20 19 18 16 17 18 14 16 18 20 21 21 16 15 15 8
45 43 40 39 37 40 40 37 37 36 38 30 19 20 6 6 9 12 12 13 16 20 27 19 20 16 18 16 19 18 15 14 15 11 12 14 18 20 20 16 14 13 15 5
33 35 34 29 34 40 42 40 39 37 31 21 18 17 12 3 9 10 15 13 17 21 20 17 16 16 14 16 15 15 11 10 10 9 11 14 17 18 18 12 11 11 11 6
35 36 31 28 27 34 37 37 27 30 24 23 17 17 15 12 12 11 15 17 17 22 22 19 17 14 10 12 11 11 9 11 9 8 11 13 15 17 14 11 9 11 11 9
38 35 29 24 29 30 30 30 34 34 24 25 21 20 15 16 14 12 12 15 19 25 19 17 15 10 12 6 8 9 7 8 7 7 9 10 13 16 13 11 12 16 12 12
45 43 35 34 32 30 34 37 40 29 26 22 16 16 13 15 16 12 13 16 20 23 16 14 10 8 6 4 6 7 6 7 7 6 9 10 12 15 14 12 16 16 13 13
48 48 39 32 32 28 27 31 32 30 31 25 19 16 17 18 18 17 11 15 18 21 12 11 6 8 4 2 5 7 7 6 8 7 9 12 11 15 16 11 14 18 17 18
50 52 47 41 40 37 38 36 35 32 31 25 22 18 18 18 14 15 11 9 17 18 10 10 6 6 3 2 4 7 9 7 9 8 11 13 13 16 17 11 11 15 15 18
62 58 55 50 45 40 41 39 36 38 36 31 22 21 22 17 16 13 8 4 13 19 9 9 5 6 5 1 3 5 7 7 9 10 8 11 12 14 16 12 11 15 17 19
67 61 56 50 46 42 38 36 36 36 29 31 22 22 22 15 15 12 13 10 9 15 8 7 4 5 4 3 0 3 3 4 8 7 8 9 11 14 16 14 11 20 18 23
69 63 56 52 50 46 45 42 37 32 31 23 24 27 18 21 20 21 19 12 6 9 7 5 4 3 3 3 2 3 2 3 5 7 10 10 9 13 17 18 20 18 16 17
70 67 61 57 55 48 54 49 43 37 33 29 28 24 23 26 24 21 20 6 1 10 7 6 6 1 2 2 3 3 3 4 6 7 9 10 11 15 18 16 16 17 16 18
69 67 64 60 56 62 56 49 43 39 34 30 28 23 25 26 24 24 18 12 3 7 9 7 5 4 1 2 1 3 4 5 6 8 10 13 12 15 19 20 20 22 22 22
68 69 65 64 61 60 58 52 49 45 40 33 29 27 29 30 28 27 20 10 4 3 10 9 9 7 4 3 2 3 4 3 5 8 12 16 14 14 17 19 18 19 19 19
64 66 65 67 60 63 59 53 49 40 39 39 32 31 30 31 31 23 16 9 5 6 10 11 12 11 7 4 4 3 5 4 5 7 11 15 15 15 15 17 17 19 19 18
67 64 64 61 58 62 58 54 49 51 46 36 35 30 32 31 23 20 21 16 9 9 9 15 13 13 13 7 6 6 5 7 5 7 9 12 13 14 14 13 12 13 14 15
67 64 64 58 53 59 60 59 51 46 44 37 34 29 25 21 20 24 23 20 16 7 5 13 14 16 13 10 8 8 6 9 8 7 7 9 10 10 11 11 12 14 14 16
64 66 68 64 45 54 55 61 64 53 46 44 39 35 27 23 20 18 21 22 21 10 7 15 18 17 16 13 11 11 8 9 12 9 8 8 8 9 10 11 12 13 15 15
56 66 67 66 63 56 54 57 65 61 57 46 40 36 33 31 27 25 24 23 24 15 13 13 22 22 16 14 14 14 13 11 14 13 12 11 10 10 10 10 13 12 11 11
43 59 71 69 67 59 52 55 62 57 57 53 46 42 39 36 31 30 29 26 23 19 17 16 19 24 21 19 15 18 18 15 14 15 15 13 12 11 11 11 11 11 10 8
36 60 72 71 68 61 55 50 57 62 56 53 50 46 44 37 31 28 29 31 29 22 21 21 20 22 25 25 18 19 19 19 16 16 16 17 16 14 13 12 11 11 10 8

GFSCGP_500_spd_021.txt.gz
Wind_Speed
71 70 62 60 49 47 53 36 22 13 16 30 33 37 20 23 19 17 20 16 12 15 22 25 30 29 32 29 35 34 27 31 35 33 32 31 32 32 30 32 27 22 23 24
65 61 55 53 52 50 30 25 15 14 19 35 31 31 26 26 22 21 17 12 15 15 20 26 27 33 31 35 35 26 27 31 32 29 30 30 31 29 29 26 23 24 26 24
43 37 48 48 40 36 33 27 21 16 23 36 34 30 27 25 25 19 14 14 14 15 19 24 24 34 32 35 25 24 26 27 28 28 28 29 29 26 26 27 24 25 25 22
39 32 35 35 36 37 37 30 26 24 31 35 40 36 31 28 25 17 13 15 13 10 11 15 21 26 28 23 21 23 24 27 27 27 28 29 26 26 26 25 24 22 21 19
40 39 41 42 37 38 37 30 29 28 32 40 40 43 19 29 15 13 10 7 6 9 16 22 21 18 21 19 20 23 24 24 27 26 27 26 22 23 23 22 22 20 18 12
49 46 43 40 39 40 36 34 36 37 38 47 35 37 15 15 11 13 7 5 8 12 20 23 19 18 18 20 19 20 22 24 25 25 23 18 20 21 22 20 17 17 13 9
56 57 53 47 47 46 45 43 44 44 47 51 27 34 9 21 16 15 10 3 6 12 18 24 20 17 15 18 16 19 20 21 22 21 16 18 19 19 20 14 14 14 14 6
49 56 56 55 52 48 45 42 49 51 49 43 29 29 15 19 22 11 8 3 6 12 16 25 18 16 14 13 15 17 19 18 20 16 15 17 16 18 16 14 14 11 10 4
49 47 43 43 44 44 44 47 45 45 43 36 33 23 26 26 16 9 4 1 5 14 19 23 13 14 10 12 12 17 16 17 18 10 14 13 14 17 13 10 13 10 4 7
50 42 39 36 39 38 40 46 44 42 41 39 31 26 26 24 13 6 3 2 6 13 21 12 13 11 9 9 11 16 14 14 14 11 11 11 13 15 9 12 9 10 8 11
55 45 36 41 42 40 42 43 43 37 37 36 27 27 21 21 16 10 4 2 9 15 17 14 12 9 11 7 10 12 11 12 12 9 8 9 12 12 9 14 15 13 11 13
60 54 42 36 39 36 38 39 34 34 33 29 26 25 24 22 13 9 5 2 11 11 14 12 12 9 9 6 9 9 9 9 9 6 9 9 11 14 11 11 14 14 13 12
67 60 50 43 45 42 41 36 35 33 32 33 29 22 26 21 12 10 7 2 7 10 13 11 11 9 7 6 8 7 6 7 9 4 7 8 11 12 11 8 10 14 12 12
72 65 57 51 45 43 40 40 40 35 33 25 25 24 26 16 12 11 9 5 6 12 11 11 8 8 6 5 7 7 3 7 8 8 5 9 11 12 10 8 9 15 14 14
74 68 60 54 48 43 44 39 38 35 30 32 22 27 25 18 16 11 10 5 4 11 8 10 6 7 6 4 8 8 4 5 8 7 4 8 10 14 14 13 13 14 13 13
71 69 66 59 51 48 46 43 40 36 33 28 27 28 25 21 17 15 10 7 6 9 8 10 5 6 7 5 7 7 5 4 5 6 6 7 10 11 15 14 15 11 10 15
70 67 68 62 55 51 56 51 44 36 31 26 30 29 29 24 19 13 9 6 7 9 9 7 3 3 5 6 6 6 5 4 5 4 5 9 11 10 10 10 10 13 13 12
74 70 67 61 61 63 53 50 45 38 33 31 28 24 29 23 15 13 11 8 8 8 10 6 3 3 5 6 5 5 3 3 5 5 6 11 14 12 14 17 18 17 15 16
74 75 70 66 63 58 57 51 50 47 42 37 31 25 26 28 24 22 16 9 9 9 7 6 3 5 4 6 4 5 4 3 4 6 7 10 14 13 13 15 17 17 17 18
68 74 74 70 62 64 64 55 50 46 45 37 35 32 26 28 32 24 16 11 11 11 8 8 6 7 7 6 6 5 5 2 3 7 8 9 14 15 15 16 14 14 15 16
65 69 68 68 65 63 69 57 53 53 47 41 35 33 32 33 29 22 21 15 12 11 9 9 10 8 12 9 7 5 5 3 3 7 9 10 11 11 11 12 13 14 14 13
60 62 61 54 63 63 52 50 56 53 48 44 35 33 31 29 30 27 22 17 17 13 13 10 11 10 8 11 9 7 5 5 4 6 9 10 10 9 8 8 10 10 13 14
58 58 64 55 54 65 48 46 60 55 50 43 42 38 36 29 31 27 23 20 17 16 14 13 11 13 9 12 10 10 6 7 8 6 7 9 9 10 10 10 12 14 14 16
52 63 50 61 47 57 61 56 63 59 54 48 43 38 37 31 32 26 23 20 19 16 16 15 14 12 13 9 13 13 11 9 9 10 8 7 10 12 11 11 13 14 14 13
41 52 65 59 52 45 58 59 60 61 59 52 49 43 37 37 35 27 24 22 18 15 18 18 17 14 13 13 14 13 15 12 11 11 11 10 10 10 10 11 13 13 12 12
42 47 59 59 65 50 59 62 61 65 64 56 51 47 44 39 38 34 29 26 24 20 18 21 22 19 14 13 17 15 18 16 14 12 13 13 12 12 11 11 12 11 10 10

GFSCGP_500_spd_024.txt.gz
Wind_Speed
55 63 65 58 61 64 64 61 54 48 40 40 35 40 27 26 34 25 25 25 26 21 19 15 13 16 19 29 32 34 38 32 32 32 31 32 33 33 35 31 31 31 31 30
50 52 51 62 67 64 64 60 50 35 21 33 29 33 28 22 26 30 27 21 19 17 10 14 18 18 22 31 35 32 28 28 29 29 30 31 32 33 34 29 31 30 30 29
46 36 36 53 62 63 58 49 38 24 29 32 32 35 28 20 28 31 26 23 20 13 13 12 15 19 24 26 27 27 25 27 27 27 29 32 33 34 29 27 30 30 28 25
46 42 38 42 47 55 53 42 37 30 32 31 32 38 28 22 29 29 22 21 16 14 10 10 17 15 19 18 21 22 24 26 26 26 29 31 32 27 26 28 28 27 24 21
45 40 38 36 36 37 41 37 34 30 33 38 35 41 19 26 31 24 18 16 13 11 7 12 15 15 15 17 19 20 22 23 24 26 28 28 24 24 26 25 27 23 22 19
49 44 40 32 27 28 32 37 34 31 32 45 33 38 16 23 25 19 23 14 11 8 10 15 17 16 17 17 18 19 20 21 23 25 26 23 23 24 25 28 24 21 18 16
55 52 46 39 34 35 35 36 38 39 44 48 28 39 17 9 16 23 20 15 11 8 12 15 20 16 17 14 15 17 17 21 22 23 25 19 22 21 25 24 19 17 13 9
55 52 51 47 42 40 37 38 39 41 39 40 30 38 19 14 19 24 22 18 12 8 9 15 18 14 15 13 15 14 18 21 21 21 19 19 19 21 25 18 17 14 8 5
58 54 50 50 44 42 41 45 39 40 41 44 36 36 23 18 29 19 16 20 11 4 9 16 16 13 12 11 12 14 19 20 18 19 17 17 17 20 17 18 15 10 4 4
60 56 52 51 45 48 46 42 43 44 46 45 41 33 19 28 30 16 20 17 7 3 9 13 14 10 9 12 9 15 18 16 16 16 14 14 15 18 14 16 12 10 5 7
62 62 53 48 55 50 51 53 52 47 48 45 42 25 22 32 24 20 15 11 7 4 10 12 8 9 10 9 9 15 15 15 15 12 12 12 14 16 12 14 14 12 10 10
64 64 55 47 42 43 44 46 43 45 43 39 32 22 23 28 23 21 15 12 2 2 8 7 9 8 11 7 9 14 12 12 13 10 10 11 14 15 11 10 13 11 10 9
68 65 55 52 44 44 46 45 42 42 42 40 28 20 22 28 27 23 20 11 4 3 5 6 8 7 11 7 8 12 9 11 12 13 9 13 14 16 6 8 10 10 8 9
70 66 59 54 45 40 45 46 43 44 41 32 23 20 25 27 25 22 16 10 5 1 4 5 8 7 11 6 6 10 9 9 11 12 8 13 14 11 7 9 13 12 9 9
69 66 61 55 50 46 47 40 39 42 33 29 24 25 26 27 21 18 17 12 5 3 3 6 7 5 9 7 6 8 10 9 8 10 8 10 13 13 12 11 11 13 13 12
71 69 65 57 53 49 51 48 45 41 33 28 26 32 28 26 24 21 17 14 7 0 4 4 4 2 6 7 7 7 9 7 6 7 10 9 10 12 11 12 10 9 7 12
73 72 69 62 57 52 55 49 46 43 35 31 32 31 31 29 25 21 18 16 9 5 5 1 2 1 5 8 9 6 7 7 5 6 9 8 9 12 12 10 11 11 8 14
69 74 72 68 63 57 49 48 45 38 32 32 33 37 31 26 22 20 17 17 11 6 8 1 1 1 3 7 9 6 6 8 6 6 8 10 12 14 14 14 15 15 13 14
65 73 75 71 66 56 53 49 51 46 35 33 32 36 34 30 27 22 21 17 11 6 9 4 4 3 3 5 8 8 5 7 5 6 7 9 10 13 15 15 15 17 18 19
56 67 73 71 66 62 61 51 50 43 41 38 33 36 39 38 35 25 20 16 11 10 11 5 5 4 3 1 5 7 6 6 4 5 6 9 12 13 12 13 14 15 17 18
48 58 62 68 65 66 68 60 50 49 43 42 36 38 39 39 33 25 22 18 15 13 14 10 5 6 5 4 3 6 5 4 3 5 6 6 8 10 11 12 12 13 14 15
50 50 54 61 63 66 59 59 57 50 47 43 40 38 36 34 32 27 23 22 20 18 15 11 7 6 6 6 5 4 3 2 2 4 6 5 4 5 7 7 8 10 11 14
42 46 49 55 61 62 58 64 61 54 49 47 43 39 37 35 32 30 27 24 22 20 16 15 12 9 9 8 7 3 4 1 3 2 6 7 5 4 6 8 10 13 15 15
37 39 52 56 58 60 57 57 59 57 52 48 46 41 38 33 32 32 29 26 24 23 20 17 15 10 10 11 11 8 6 4 2 4 4 7 7 7 8 10 11 12 13 16
47 39 52 57 53 55 61 55 55 55 54 50 46 44 40 37 35 32 29 28 27 23 23 19 18 14 10 12 12 11 9 9 5 4 5 6 8 10 9 10 10 10 10 12
46 43 43 50 52 55 55 57 57 51 50 54 49 44 42 35 36 31 29 26 26 24 23 22 21 19 14 12 15 14 10 10 9 7 6 8 9 11 11 11 11 9 8 8

GFSCGP_500_spd_027.txt.gz
Wind_Speed
58 61 57 58 58 62 64 64 62 59 59 56 49 46 46 40 34 38 35 28 24 22 23 22 24 27 25 23 21 24 28 33 28 31 33 33 32 31 31 33 32 30 31 32
62 59 43 46 60 59 60 63 64 64 59 55 53 49 46 27 33 31 30 25 21 18 21 24 28 25 24 23 22 21 26 27 29 31 32 31 30 30 33 29 29 30 32 32
67 49 44 45 48 51 53 58 56 56 55 52 51 48 41 26 29 27 27 24 20 19 23 27 25 21 21 20 16 19 23 25 28 30 28 28 28 30 26 28 30 30 30 28
64 54 56 52 49 48 47 44 46 47 55 48 47 50 46 25 29 25 22 22 19 21 20 24 19 16 18 15 17 21 22 23 25 25 25 25 28 27 26 28 28 29 27 26
63 61 59 54 46 37 34 37 38 45 54 47 42 52 26 23 24 20 20 20 22 19 23 16 17 16 18 15 17 20 21 23 22 23 24 25 29 24 27 27 29 24 23 25
61 58 54 48 46 36 33 35 34 37 39 50 39 49 25 15 16 19 18 22 22 21 21 15 13 20 17 15 17 19 19 20 21 23 23 26 22 24 25 28 25 21 23 19
63 63 57 52 48 42 42 39 39 39 40 42 40 42 9 7 7 12 22 28 20 24 15 13 15 17 15 15 16 16 18 18 21 21 22 22 21 22 24 22 23 20 19 11
65 65 61 54 48 41 36 36 40 39 38 42 23 39 19 15 18 17 23 21 22 20 14 14 12 12 13 14 13 17 15 18 19 19 22 18 19 20 21 20 24 18 11 4
65 65 57 53 47 42 35 42 30 31 35 32 29 29 18 16 18 18 19 15 23 17 16 14 9 11 11 10 14 12 14 17 17 19 17 15 15 19 19 20 20 12 4 6
65 66 60 54 50 47 42 28 34 39 38 35 27 28 16 16 18 23 11 19 22 19 16 7 8 8 9 11 9 10 15 15 16 16 13 14 15 19 17 17 13 9 9 9
63 66 64 59 55 52 50 47 47 41 38 35 29 26 13 15 20 20 15 22 22 19 13 5 5 7 7 10 7 10 13 12 15 14 12 15 17 17 14 13 8 10 11 12
66 65 60 57 54 50 48 43 38 37 37 34 31 21 15 19 25 17 20 20 17 15 8 5 4 4 6 7 5 9 11 11 14 14 13 15 17 17 9 10 10 12 10 11
67 67 59 57 57 55 51 47 47 47 44 41 36 25 19 21 25 20 24 22 17 12 5 4 2 2 7 5 3 8 10 10 13 13 12 13 16 9 9 12 11 10 10 11
67 65 64 58 51 49 52 54 49 47 45 42 33 20 19 21 26 24 25 22 15 10 4 2 2 2 6 4 3 7 9 10 11 13 12 12 10 13 10 13 14 12 11 8
65 65 63 57 56 51 49 50 50 48 43 39 26 20 24 26 28 27 25 21 14 9 5 4 2 1 5 5 4 6 8 9 9 10 10 10 11 16 14 11 11 14 13 9
60 64 63 54 55 55 49 46 47 46 41 30 26 30 30 32 27 26 26 21 13 11 5 4 3 2 6 6 6 5 8 7 8 9 8 10 8 8 10 10 8 13 12 11
55 63 63 57 56 55 55 44 45 45 35 33 35 32 32 30 29 27 26 19 16 11 4 4 4 4 5 6 7 6 7 7 6 8 9 10 12 15 14 14 12 9 14 13
56 61 62 59 57 55 52 46 45 40 31 33 42 44 37 29 31 34 28 20 19 13 5 5 4 6 5 6 7 7 6 6 6 8 9 13 14 14 16 17 15 14 11 13
47 60 60 57 58 53 52 48 47 42 36 38 46 49 43 37 35 32 28 24 19 14 9 6 6 7 6 6 7 8 6 5 6 8 9 11 11 12 13 17 17 16 17 21
42 51 59 58 58 55 53 49 45 40 37 41 47 50 45 39 39 33 27 24 20 18 9 5 8 9 7 5 7 8 6 6 5 8 11 11 11 11 12 14 16 16 18 21
41 46 50 60 59 60 57 51 40 44 43 44 46 47 44 38 35 34 30 25 18 16 12 9 10 9 8 6 3 6 6 6 6 7 8 9 10 10 12 13 13 15 17 19
34 41 46 53 61 59 53 55 49 45 45 44 43 48 44 39 38 35 33 28 21 18 15 10 8 11 8 7 5 3 5 4 5 6 6 6 6 7 8 9 10 13 15 16
29 31 39 46 52 58 53 57 56 46 45 44 41 44 46 44 40 37 33 31 24 19 18 14 12 8 11 8 7 4 3 4 5 5 5 5 5 6 9 12 12 13 16 17
32 25 31 38 40 46 59 57 55 51 43 44 42 41 43 40 41 38 36 31 29 25 22 19 15 10 10 11 9 6 5 4 5 5 5 5 5 7 9 12 14 15 16 18
28 31 28 33 33 38 51 58 51 51 50 43 42 40 41 38 38 37 35 30 30 26 24 23 17 14 11 14 11 9 7 8 7 7 5 5 7 8 10 12 12 13 15 15
26 38 26 30 34 37 40 51 52 55 49 50 43 43 41 39 37 34 32 29 29 29 27 25 21 19 16 14 16 12 9 10 9 8 8 7 7 10 10 11 11 11 10 8

GFSCGP_500_spd_030.txt.gz
Wind_Speed
66 70 63 52 51 54 59 60 57 54 56 64 53 47 49 53 45 40 45 45 35 26 22 19 23 25 25 27 28 32 32 26 31 33 35 35 36 37 34 32 30 29 31 30
74 72 48 51 55 54 55 55 56 57 57 57 57 60 57 54 48 42 46 41 30 25 20 20 21 24 28 25 28 31 27 27 29 32 33 33 34 33 30 31 29 31 30 31
76 60 56 53 55 54 46 47 49 51 51 57 59 60 49 51 50 41 43 32 28 24 20 21 20 25 23 25 28 25 25 27 27 29 29 29 30 29 31 29 30 30 31 32
78 64 63 57 57 50 50 48 42 40 44 51 46 55 46 43 38 37 31 31 26 22 20 22 24 23 21 26 25 24 24 25 25 26 26 27 27 29 28 28 29 31 30 25
75 73 69 66 57 55 49 46 41 42 46 49 49 52 36 37 34 20 28 28 25 19 20 22 24 18 23 26 25 23 24 23 23 22 24 26 24 24 25 27 28 24 24 21
74 71 70 64 63 55 47 48 44 44 46 52 42 49 42 27 10 23 26 26 21 21 20 24 18 21 24 28 25 20 21 20 21 21 23 21 23 22 23 25 23 25 21 16
71 77 71 66 64 57 55 53 51 53 53 51 39 44 37 14 23 23 24 20 19 22 18 20 18 21 25 24 18 19 17 18 18 21 18 21 19 18 21 20 23 23 15 10
65 72 75 72 68 60 54 54 53 52 47 43 38 39 22 20 18 19 12 15 21 18 20 20 20 21 21 16 16 15 16 15 18 15 18 16 15 16 20 18 22 18 11 8
49 66 68 73 66 63 57 54 44 47 43 35 28 33 16 27 23 15 12 15 11 16 20 19 19 22 17 14 12 14 12 15 13 14 13 12 14 16 18 16 16 10 8 7
54 64 62 68 63 61 53 43 44 45 47 37 32 28 21 27 19 12 12 11 16 18 19 17 19 19 12 11 12 10 11 11 11 13 12 12 15 17 15 13 10 9 8 8
59 65 48 57 69 62 58 52 49 47 39 31 24 20 15 24 14 15 10 15 18 17 16 16 20 15 11 10 10 8 10 9 11 14 14 12 16 17 10 10 8 8 9 9
62 69 48 51 61 59 56 51 50 45 39 36 23 22 15 21 11 16 15 18 15 14 17 20 20 11 10 8 7 6 8 7 10 14 9 12 15 9 11 7 9 9 9 9
66 65 51 56 46 62 60 54 50 44 38 34 29 18 14 10 14 19 18 17 13 13 16 19 13 11 6 5 4 5 6 6 9 11 9 11 6 11 10 12 11 10 8 8
63 53 56 36 52 53 58 57 56 50 46 37 30 20 13 16 22 20 20 15 14 15 17 16 12 8 2 2 3 3 4 5 7 8 8 8 9 8 10 12 14 10 6 6
48 64 45 48 60 63 60 60 59 56 46 40 34 20 20 25 27 24 23 18 15 14 16 13 11 5 1 1 2 1 3 5 7 6 6 4 8 10 8 5 7 9 5 6
36 65 47 49 58 60 62 59 57 53 48 41 32 25 29 33 35 29 25 20 16 17 14 12 11 6 1 1 0 1 2 5 6 6 5 5 4 4 7 6 8 9 7 6
35 42 62 48 51 54 56 59 50 47 42 36 27 32 38 34 34 31 25 23 21 18 14 12 11 7 2 1 1 2 3 6 6 7 6 9 11 10 10 10 9 10 15 12
34 31 51 55 42 49 46 49 46 46 37 32 31 43 43 39 37 34 32 30 26 19 13 12 10 9 3 0 1 3 4 6 7 7 8 10 13 12 12 11 12 13 11 13
37 40 35 47 57 39 47 48 45 39 40 37 45 48 48 45 44 37 33 31 28 20 17 12 8 10 5 1 2 5 5 6 7 7 7 10 11 11 12 12 14 15 13 15
34 33 36 39 43 36 44 50 48 38 30 37 50 51 49 42 41 40 36 36 32 25 16 10 10 11 8 4 3 6 6 7 7 8 10 12 11 11 13 12 15 17 18 19
33 34 34 36 38 43 39 47 45 39 37 41 54 53 47 44 44 41 38 35 31 26 20 12 10 11 11 7 3 5 7 8 7 8 9 11 11 11 13 12 14 18 18 21
24 29 30 33 42 45 46 43 48 45 37 43 51 54 49 44 42 38 36 33 30 25 20 13 8 11 11 11 6 4 7 8 8 6 6 7 8 9 10 12 11 14 18 18
18 28 29 28 38 50 50 49 42 38 41 41 45 53 51 44 40 39 38 34 32 27 21 17 15 11 12 11 10 6 7 9 9 7 5 5 7 9 12 13 13 13 15 18
15 21 27 27 32 40 47 51 45 41 38 40 42 50 50 48 43 41 38 35 33 28 22 19 15 12 9 11 12 8 8 8 9 9 7 6 7 10 13 14 16 16 17 20
12 19 21 24 27 33 43 46 47 46 37 40 40 50 47 48 45 41 38 36 34 30 27 21 16 13 11 12 13 12 9 9 10 10 9 8 8 9 12 13 15 19 19 19
10 17 20 21 24 29 35 38 44 47 44 36 40 43 46 49 46 43 40 37 35 31 29 25 20 18 16 14 14 14 12 11 9 11 11 10 10 10 11 11 11 12 13 13

GFSCGP_500_spd_036.txt.gz
Wind_Speed
65 70 64 52 54 51 50 48 53 51 45 46 47 47 39 36 38 36 40 46 42 40 38 38 33 39 32 34 28 26 25 25 25 24 30 35 36 38 41 42 42 42 42 43
73 66 45 57 53 57 55 59 59 48 46 45 37 44 40 41 39 36 40 44 37 36 35 38 32 38 32 33 24 25 25 23 24 28 33 37 38 38 39 39 39 39 41 41
74 52 61 59 58 61 59 58 49 47 45 45 43 47 44 37 41 43 44 33 38 38 36 30 32 35 27 25 26 26 23 23 26 29 35 37 36 38 35 34 38 35 38 38
69 61 63 64 62 63 60 51 53 48 49 52 42 50 40 36 38 38 35 36 37 37 28 30 29 32 24 23 24 22 22 24 27 32 38 35 34 34 31 34 35 36 29 32
62 63 67 67 58 63 53 47 48 47 50 51 47 45 24 29 37 34 41 39 37 28 24 27 32 24 24 21 21 22 22 26 30 34 33 31 31 29 31 32 31 30 33 30
64 63 65 64 64 68 58 52 50 48 47 45 44 43 30 31 31 36 36 30 27 26 25 26 29 17 20 19 20 20 22 26 31 30 29 26 28 29 29 27 27 29 28 26
60 64 64 66 67 64 65 59 56 53 57 54 35 39 40 29 30 39 37 35 32 27 26 32 14 19 19 19 17 19 22 27 28 27 23 25 26 27 26 24 26 26 23 21
50 63 64 64 67 64 67 65 63 63 55 53 44 47 38 29 30 28 29 27 22 23 24 15 18 18 18 16 16 19 23 26 24 21 22 22 24 22 22 24 26 21 17 16
37 46 56 62 67 67 63 63 53 54 49 39 33 29 40 26 21 24 23 19 16 21 14 20 18 18 17 14 17 19 24 23 23 18 19 21 23 22 21 24 16 15 12 8
37 41 46 64 63 70 64 54 58 53 55 46 36 25 19 25 27 31 24 12 15 16 13 19 17 17 14 15 16 20 20 22 18 17 18 20 22 18 20 13 11 9 6 3
45 46 32 45 61 67 65 60 55 56 49 51 46 27 12 29 23 24 17 15 16 14 17 17 18 15 14 14 16 18 21 21 15 16 16 20 16 15 11 7 7 6 5 0
33 33 37 41 40 42 46 49 54 62 56 49 34 26 28 35 31 32 23 18 16 18 17 17 15 14 12 13 16 18 19 14 14 14 15 16 14 10 6 5 5 5 4 2
37 29 33 35 48 52 53 49 57 59 44 43 39 23 28 23 30 26 26 22 21 14 14 15 11 9 9 13 14 16 14 11 12 13 14 14 10 8 3 4 7 6 3 2
30 34 26 34 40 48 49 49 45 49 51 42 36 23 28 27 16 22 25 29 23 17 18 14 9 7 10 11 13 13 10 10 10 12 12 11 9 10 8 7 8 8 5 4
19 26 46 44 38 48 44 52 45 46 43 48 31 29 13 21 28 32 28 17 20 19 17 11 7 9 9 9 11 10 8 8 9 11 11 9 9 9 8 7 7 8 7 3
18 16 32 45 35 51 49 56 54 44 34 42 33 37 20 28 30 26 29 26 23 20 15 10 9 9 8 7 8 8 5 6 7 9 8 8 10 12 7 6 6 8 6 2
11 12 23 37 30 12 56 59 54 53 36 43 32 37 32 28 14 32 26 25 23 19 15 13 10 8 7 7 5 5 3 4 5 4 4 6 5 3 2 2 4 4 7 7
9 14 24 31 21 23 42 45 48 45 38 45 33 47 29 25 14 34 29 24 21 19 16 14 11 8 8 5 4 3 1 3 2 2 4 6 5 6 5 4 3 2 5 5
12 11 24 21 24 31 47 48 38 38 34 49 41 36 37 24 20 28 31 33 27 23 19 16 11 8 9 4 4 3 2 3 1 1 4 4 4 6 9 9 7 4 4 5
10 10 26 20 12 23 35 62 47 52 50 56 45 43 55 39 25 34 36 34 33 29 23 18 13 8 10 5 4 3 4 4 2 2 4 6 5 6 9 10 12 10 7 8
7 12 22 29 22 17 40 42 46 37 53 55 51 50 51 56 49 39 37 35 35 30 25 20 14 10 12 6 4 4 5 6 6 4 4 6 5 6 8 11 14 14 17 11
9 12 14 29 25 8 37 54 42 40 34 55 49 51 46 48 48 40 39 37 33 31 18 18 13 12 13 9 4 2 5 7 7 6 4 3 3 5 8 8 10 13 16 19
11 17 14 17 21 16 31 54 59 57 46 29 42 50 51 42 39 41 36 34 34 31 24 20 14 12 13 12 7 3 4 7 7 6 5 4 3 4 7 8 9 12 15 19
17 16 15 16 18 15 15 49 47 50 48 43 33 38 45 43 42 43 41 36 33 31 26 21 16 13 12 13 11 6 4 5 7 6 6 6 6 8 9 11 11 13 15 17
10 19 24 32 7 24 19 26 27 30 39 42 36 36 42 45 43 46 42 37 36 34 28 22 19 14 13 12 11 9 6 5 6 7 8 9 9 10 12 14 16 18 19 21
6 19 23 21 26 21 33 33 31 22 32 38 30 32 41 43 42 46 44 40 39 35 30 25 22 17 14 13 12 11 8 7 7 7 9 11 12 10 11 13 13 13 13 14

GFSCGP_500_spd_039.txt.gz
Wind_Speed
66 66 61 52 54 52 47 46 48 49 43 40 41 45 36 32 34 31 31 31 30 33 37 41 37 42 39 28 34 31 33 26 24 27 28 27 27 31 35 37 36 36 38 40
72 64 51 54 54 56 53 54 54 49 45 40 39 43 39 35 32 32 32 29 25 31 33 33 30 38 36 28 28 30 29 24 24 29 28 26 29 34 36 32 33 36 37 40
68 55 61 62 61 60 55 53 53 46 48 40 44 49 43 31 29 27 34 28 32 32 29 25 28 35 35 29 23 28 24 23 25 26 26 27 32 35 32 31 33 34 36 37
65 61 62 63 61 63 60 55 53 50 51 39 45 52 43 29 23 30 30 29 32 27 27 26 32 32 31 26 24 22 22 24 25 24 25 29 32 31 30 30 32 32 34 32
60 63 64 67 63 64 60 55 53 52 52 53 52 42 28 29 27 23 25 35 28 23 25 31 33 28 28 21 22 22 21 23 21 22 27 30 29 28 29 31 30 31 31 31
60 61 65 65 64 67 63 59 55 52 53 58 48 46 22 25 23 24 32 27 25 29 34 37 31 26 19 20 21 19 21 19 19 23 27 25 26 27 28 28 28 28 32 31
57 60 62 62 66 66 64 63 61 58 58 55 44 49 30 25 19 26 24 21 25 30 28 27 22 21 16 19 18 18 17 17 20 24 22 23 24 26 27 27 25 27 27 24
49 56 57 61 62 64 66 65 64 64 60 54 47 45 38 23 25 27 10 15 22 28 25 14 11 14 18 16 16 16 15 18 22 20 22 21 23 25 27 25 25 21 20 19
35 53 51 59 63 62 60 66 57 59 59 56 52 42 38 35 27 24 19 25 23 23 15 9 11 15 14 15 15 14 15 19 19 19 20 21 21 24 25 23 19 17 17 13
33 45 47 49 59 65 63 55 56 60 59 60 52 45 46 19 18 17 18 15 18 13 8 12 14 13 16 16 14 14 16 17 17 19 17 20 20 21 20 17 14 14 13 7
28 38 39 47 55 59 62 62 59 61 60 56 52 47 27 20 17 23 13 15 13 9 9 12 14 15 18 15 13 14 16 16 17 15 16 16 19 18 14 13 12 12 11 4
25 25 31 45 46 52 63 64 60 57 61 53 51 45 26 18 15 25 18 20 20 9 13 14 15 18 17 13 12 13 13 15 13 14 14 15 15 14 11 10 9 10 9 3
19 21 21 42 40 40 57 67 56 52 49 59 54 43 38 27 21 19 24 27 20 16 16 13 16 14 13 10 11 9 12 13 11 13 13 14 13 12 10 9 12 13 10 5
16 19 26 28 38 48 50 64 62 57 57 56 55 46 36 23 20 23 22 23 16 23 18 14 15 13 10 9 6 9 12 10 10 12 13 12 11 11 11 13 15 13 10 6
13 10 21 27 33 42 49 58 67 63 63 58 50 34 26 14 22 23 24 21 18 23 20 18 17 13 8 5 6 9 11 9 7 12 11 10 9 10 10 11 11 11 11 6
11 8 17 25 29 44 46 59 61 67 67 61 53 38 29 23 23 25 25 20 17 22 20 20 17 11 6 7 5 9 9 5 8 9 7 6 7 7 7 12 9 8 7 3
9 8 3 5 30 39 33 50 53 59 61 57 44 35 27 33 31 28 31 23 27 23 21 20 18 9 6 7 4 8 5 4 5 5 4 6 7 8 6 6 5 5 8 8
3 4 10 3 13 24 30 42 49 44 48 50 45 39 26 35 34 39 36 31 27 25 25 22 13 7 6 8 5 5 4 3 2 2 2 5 6 7 7 6 5 5 7 7
1 2 7 7 10 22 27 46 50 56 51 50 39 42 42 33 38 25 34 32 31 28 24 19 13 7 7 7 5 4 3 2 1 1 2 4 5 7 8 11 10 6 7 8
5 7 4 10 6 23 46 53 45 55 49 50 33 47 51 36 45 37 33 34 37 34 26 19 14 7 7 6 4 2 4 3 3 3 3 4 7 7 10 12 13 15 10 9
10 6 4 14 12 38 45 45 49 38 43 31 46 46 41 45 38 37 35 36 35 33 28 22 13 7 9 6 3 2 5 4 4 5 4 4 5 7 9 11 15 17 12 11
8 5 4 11 26 20 14 49 54 41 34 35 47 45 40 44 39 38 38 35 31 26 24 20 12 7 11 8 3 2 6 5 4 2 3 3 5 6 8 10 13 16 12 11
6 16 11 7 14 9 8 43 43 44 51 51 40 48 47 45 38 42 39 36 29 28 27 17 14 8 12 10 5 1 5 6 5 1 1 4 5 7 9 10 13 18 21 17
3 9 2 13 10 11 16 34 41 31 22 35 52 41 48 49 44 37 36 30 29 24 25 23 13 9 12 12 8 4 5 6 5 2 2 5 7 9 11 11 12 17 24 23
6 6 9 12 9 7 3 22 41 34 23 33 44 43 45 45 46 40 34 34 28 29 23 20 13 12 11 11 9 7 5 7 7 4 3 6 9 11 12 15 16 19 20 19
7 7 12 18 22 8 5 17 24 33 43 34 40 39 39 41 43 38 38 41 36 28 28 19 16 15 13 12 10 9 7 8 7 7 5 7 9 12 15 17 15 16 16 16

GFSCGP_500_spd_042.txt.gz
Wind_Speed
67 67 62 55 56 53 55 58 56 54 53 50 50 48 43 35 38 37 29 27 29 25 27 28 26 25 24 27 32 34 33 28 35 30 31 30 31 30 27 30 30 33 37 37
69 64 56 55 57 57 57 56 53 50 46 40 39 43 42 37 38 33 25 29 26 27 28 26 20 19 22 27 32 35 32 29 30 26 27 30 30 26 28 32 34 36 36 35
68 60 60 60 60 59 56 56 52 51 48 43 45 51 42 34 35 31 28 25 26 31 28 17 21 24 23 31 36 28 25 29 24 25 26 27 24 25 30 34 36 35 34 35
67 62 63 62 62 63 62 56 53 52 50 48 44 55 44 31 32 30 28 25 30 28 18 18 21 21 27 31 33 26 28 26 24 24 24 23 23 27 30 32 32 33 33 31
61 65 66 66 64 66 57 59 58 56 53 51 51 54 32 31 31 26 22 29 28 19 21 21 24 28 30 31 25 23 28 23 24 24 21 21 24 27 28 28 28 30 28 26
60 61 62 64 63 64 61 62 61 60 56 61 49 48 23 28 23 19 24 24 21 19 21 25 28 27 29 23 24 26 25 21 23 20 20 22 24 25 25 26 28 30 26 27
53 57 59 60 62 63 63 62 62 62 65 54 46 48 23 24 16 22 25 21 19 17 19 25 24 26 20 18 22 19 19 21 19 20 20 22 23 22 24 25 29 26 24 19
42 50 56 59 63 62 63 62 62 64 62 55 54 50 34 29 21 23 26 18 20 20 23 21 16 17 15 17 22 17 19 18 17 20 19 21 21 22 23 27 23 20 17 15
23 41 47 52 57 63 59 65 61 62 61 61 55 49 40 33 22 28 17 22 20 21 22 15 16 17 19 19 20 18 16 15 18 18 19 20 18 21 23 22 18 15 15 13
27 36 35 43 54 60 58 57 59 62 61 62 56 50 41 32 29 27 21 20 19 11 10 13 17 18 17 17 19 15 13 17 17 17 17 16 18 19 21 17 14 14 13 12
21 31 36 36 41 50 58 57 59 58 62 63 57 52 42 29 34 29 27 13 9 8 8 12 12 13 16 17 17 13 15 16 16 15 15 16 16 19 18 12 10 12 12 10
19 22 25 31 41 49 54 59 62 62 62 60 59 52 45 32 40 40 28 14 16 8 8 14 14 15 15 18 14 14 15 15 14 14 14 15 17 17 13 9 9 13 13 9
15 20 22 20 35 50 52 58 62 65 61 63 62 51 37 36 37 37 34 18 17 11 15 15 14 13 13 15 14 15 13 13 13 12 13 14 16 13 10 9 11 14 13 9
12 11 17 18 25 43 53 55 60 66 67 61 60 50 35 42 39 38 29 9 9 12 19 18 13 14 13 14 13 13 12 12 12 12 13 15 13 11 9 8 10 10 11 9
15 15 14 10 22 40 55 54 59 66 66 67 53 46 44 40 29 30 25 15 12 13 19 18 13 14 14 13 12 11 10 11 10 11 13 14 12 10 10 8 9 10 11 10
14 12 10 4 16 24 46 48 54 61 66 62 57 50 46 37 44 38 29 17 16 16 16 16 14 16 14 13 11 9 9 10 8 11 11 8 6 6 5 5 7 7 7 8
9 11 5 1 5 15 36 45 49 53 62 62 59 54 47 47 44 38 31 20 18 18 17 16 18 16 15 12 11 8 8 8 7 8 6 5 6 7 7 6 4 6 7 5
4 3 9 8 7 10 28 42 42 46 55 61 58 46 53 50 41 38 32 28 24 23 19 20 18 15 14 11 11 6 7 7 6 6 2 3 5 7 8 6 4 6 6 4
7 3 10 4 3 6 20 33 29 38 53 59 52 55 57 54 41 37 34 37 34 28 23 22 20 15 13 12 9 4 5 5 4 3 1 2 3 6 6 8 8 7 5 4
3 9 3 4 5 7 22 24 30 41 53 52 51 60 56 51 38 40 39 41 34 32 30 25 19 16 12 13 7 4 5 5 3 2 3 2 4 6 8 10 11 8 8 7
10 13 12 5 12 2 12 27 32 45 51 45 62 58 54 49 53 42 33 43 34 36 33 26 21 15 13 12 6 4 5 4 3 2 4 4 4 5 7 9 12 8 11 13
7 13 15 2 5 8 13 28 48 46 47 51 65 64 50 28 28 43 38 32 38 38 34 27 20 16 15 11 7 5 6 5 3 2 3 4 4 3 7 11 12 10 14 13
10 12 15 12 4 8 15 34 33 42 39 56 64 45 43 40 37 38 39 37 37 34 29 21 15 17 16 11 8 5 7 7 4 2 3 5 5 4 7 13 15 14 11 12
10 10 6 11 8 19 21 27 25 43 45 51 62 45 42 47 40 43 36 38 42 43 33 23 17 18 19 15 10 5 6 9 6 3 4 6 5 6 9 13 17 21 26 23
11 16 16 1 11 2 13 28 29 39 41 40 76 55 43 39 41 43 38 38 37 35 38 28 21 20 21 19 13 7 6 9 8 7 7 9 9 11 15 15 16 18 20 22
7 13 14 13 1 2 2 5 28 31 40 31 50 48 50 32 38 41 42 36 31 24 30 26 24 21 21 19 17 12 8 9 9 10 11 11 12 15 17 16 17 18 19 21

GFSCGP_500_spd_045.txt.gz
Wind_Speed
71 69 65 59 59 59 63 66 68 67 66 60 66 63 59 60 54 51 49 48 41 34 33 34 33 37 36 28 28 30 29 31 34 36 34 37 36 34 31 31 30 30 33 34
76 70 61 59 61 61 61 61 60 59 57 55 52 56 55 53 49 44 39 37 33 27 33 29 31 33 29 25 27 29 28 33 35 29 33 36 33 31 30 28 29 31 33 34
76 67 65 64 64 62 60 61 59 57 54 52 52 56 51 43 40 36 31 30 28 30 29 29 32 31 26 25 31 26 28 33 29 31 32 31 27 28 27 30 29 30 30 31
73 70 68 67 66 65 64 59 56 57 55 55 49 57 50 36 36 34 31 25 25 31 29 28 28 20 24 28 26 26 27 29 31 25 27 24 24 26 28 28 27 27 29 31
61 68 67 62 63 65 59 60 60 59 56 55 50 58 39 36 35 29 26 23 28 28 32 28 21 22 26 28 28 26 26 28 31 24 23 22 25 26 27 26 26 27 29 32
51 55 58 62 63 64 61 63 60 60 60 61 52 53 38 31 29 30 27 32 32 33 28 21 20 21 24 28 24 24 25 27 28 22 20 24 23 25 23 25 25 26 30 28
47 50 58 58 61 60 62 64 61 60 62 57 53 55 29 28 33 25 31 34 31 22 20 19 20 20 23 24 23 25 25 20 19 17 21 23 22 21 22 21 23 27 25 20
28 40 48 55 60 58 61 61 60 62 60 55 52 51 31 31 29 26 32 28 22 19 20 19 21 25 24 24 24 25 19 17 15 19 22 21 21 19 18 20 23 23 19 18
13 24 37 42 50 57 57 61 57 57 58 55 51 45 40 38 33 27 22 22 17 21 21 18 22 25 24 27 24 21 16 15 18 20 20 20 18 16 17 19 20 17 16 15
16 18 24 33 43 52 54 54 55 59 57 58 52 47 41 39 32 25 22 25 24 20 16 17 18 22 25 22 17 16 14 17 18 19 19 19 15 16 16 19 15 12 13 12
23 24 22 25 33 42 51 54 58 59 58 58 54 49 43 41 34 30 36 28 22 20 15 15 17 20 13 12 17 15 15 18 17 17 17 17 14 15 18 16 12 12 14 13
17 26 30 22 25 33 42 53 58 61 60 60 58 52 50 45 30 35 29 27 23 20 15 16 17 11 9 13 13 13 17 16 16 17 17 15 14 16 17 15 12 14 17 15
21 21 17 18 27 36 43 50 55 61 62 63 64 53 52 49 41 39 32 28 30 24 19 21 15 9 11 13 10 12 15 14 15 16 15 14 15 17 14 14 13 15 16 13
15 15 15 13 19 32 44 49 54 62 67 63 65 56 55 45 28 42 40 37 32 27 22 20 15 9 12 11 10 11 14 12 14 16 13 13 15 16 16 15 13 11 12 12
16 11 11 11 16 24 39 49 56 63 65 69 59 58 52 41 36 42 46 43 36 25 24 17 16 12 11 8 8 12 12 12 14 13 11 14 15 12 12 16 14 11 10 9
20 8 11 14 16 13 28 44 55 61 65 63 59 56 51 38 46 44 43 37 28 26 20 15 17 12 10 10 11 12 11 11 13 11 11 11 8 8 8 6 7 8 7 9
12 13 15 11 12 18 17 28 48 58 61 60 58 54 51 46 50 47 41 36 30 26 19 15 13 14 12 12 12 11 10 11 10 9 9 6 5 5 6 6 6 6 8 7
16 15 14 17 12 18 12 19 29 52 55 61 62 58 46 52 52 49 45 35 29 28 22 18 17 16 13 11 12 11 9 10 8 8 7 6 7 5 5 7 6 7 7 5
10 8 11 13 9 7 14 17 23 38 56 60 62 60 48 59 54 52 43 35 33 31 21 16 18 17 13 12 12 10 8 8 6 5 6 6 5 3 4 6 7 5 4 6
6 1 2 9 13 13 8 13 20 26 38 50 57 58 56 66 59 53 48 39 35 32 27 22 20 15 13 12 12 9 8 7 4 3 5 4 3 3 4 6 7 3 1 5
5 4 13 15 15 10 9 9 18 33 35 38 37 49 60 67 59 54 44 47 39 35 28 28 22 18 15 13 12 8 9 6 3 2 3 3 3 4 7 7 7 3 7 8
18 9 12 17 11 14 16 11 26 28 33 39 35 59 70 65 59 51 51 44 46 39 34 29 22 18 16 16 12 10 9 7 4 1 2 3 1 4 8 8 7 8 8 9
18 18 14 13 19 10 16 18 29 23 32 49 46 50 63 66 58 56 43 42 47 47 39 31 26 22 19 18 14 11 9 9 6 2 1 2 2 4 7 8 7 4 6 9
19 25 19 9 19 14 15 12 19 23 33 43 48 52 44 56 56 51 45 39 29 41 38 33 27 22 23 19 15 12 10 9 7 3 2 3 5 7 9 12 14 13 13 10
15 21 25 22 26 14 11 21 21 28 27 48 50 51 58 47 52 58 51 41 36 38 35 30 28 24 26 22 17 13 12 9 8 5 6 7 9 11 11 13 15 19 19 20
10 12 17 20 23 22 11 17 29 34 32 44 50 52 56 43 33 44 49 38 38 41 41 40 33 27 28 23 18 14 13 11 11 9 9 11 15 17 17 18 19 20 21 21

GFSCGP_500_spd_048.txt.gz
Wind_Speed
79 80 76 65 63 62 65 68 69 66 76 78 75 72 67 64 62 58 56 53 46 42 36 37 39 41 43 42 37 37 39 39 39 37 32 31 32 33 35 33 29 28 34 34
81 81 71 71 67 64 64 66 64 62 59 71 77 71 67 65 57 53 49 49 47 43 40 43 41 40 37 36 36 37 37 35 38 35 31 31 31 30 32 28 27 32 33 36
76 77 76 74 71 69 66 66 64 62 58 59 61 67 63 59 56 50 45 40 38 38 41 39 36 36 36 37 37 34 38 38 34 35 32 30 26 27 25 25 29 30 34 32
60 71 77 77 75 72 70 66 63 61 59 57 57 66 58 50 49 46 35 27 28 32 32 32 31 35 37 34 32 32 33 34 35 36 31 25 25 22 21 27 28 31 29 27
47 59 70 74 75 74 69 66 63 61 58 56 56 60 53 42 43 33 25 24 27 30 31 30 34 37 33 30 31 31 30 34 33 31 27 23 21 20 24 27 30 26 24 25
37 45 60 69 68 71 68 66 66 64 62 61 53 55 50 38 33 29 31 28 28 32 32 33 33 29 27 28 28 31 33 32 31 25 25 20 18 23 25 28 25 21 22 25
34 37 40 51 64 62 66 65 62 63 64 58 55 54 41 31 34 31 30 30 32 31 32 29 24 25 25 26 27 28 29 29 25 20 17 16 20 23 26 25 19 19 22 23
17 31 35 38 49 58 63 64 64 65 62 57 51 54 42 32 32 28 17 33 34 34 31 23 23 25 23 26 27 27 25 24 18 16 16 18 20 23 24 19 18 19 21 18
9 14 27 38 40 38 52 61 56 59 63 59 56 43 38 37 35 27 26 22 33 30 26 23 25 22 23 22 22 23 23 19 16 14 17 18 20 21 18 16 17 19 16 14
4 10 18 14 31 38 40 47 52 56 57 58 53 45 41 38 39 29 32 31 25 20 21 19 20 23 21 18 18 19 17 15 14 15 17 18 19 17 15 16 19 18 13 13
8 10 12 16 18 25 38 45 49 52 53 56 53 48 44 42 41 33 33 37 32 27 22 22 22 19 16 15 16 15 14 16 14 16 17 16 16 14 14 17 19 17 15 15
13 12 11 15 19 26 34 43 49 52 52 54 54 52 51 47 43 32 36 35 27 19 24 22 20 16 15 13 14 16 14 13 13 15 14 14 14 14 17 19 17 16 15 15
14 17 16 16 23 25 28 35 43 50 56 57 59 53 52 50 43 34 33 38 30 28 26 24 22 19 16 13 13 12 12 10 12 12 13 14 14 16 18 17 17 15 14 12
16 13 17 17 23 29 32 32 38 50 58 60 63 56 54 51 37 32 35 32 26 29 29 27 19 18 17 11 10 10 8 9 10 11 13 12 14 17 19 18 17 14 12 10
19 12 11 12 15 19 29 36 39 50 57 64 57 61 59 50 40 35 39 34 28 30 30 28 22 21 19 8 9 8 7 9 9 10 11 11 14 16 15 14 12 14 12 11
18 14 14 12 16 19 22 29 42 47 57 59 60 62 58 48 49 39 44 41 38 33 27 27 25 24 17 8 9 8 8 8 9 10 9 11 12 10 10 11 9 9 10 7
17 15 18 13 20 24 16 16 27 44 53 59 62 60 58 52 45 45 45 42 41 37 27 28 26 24 17 12 10 8 8 9 9 8 8 11 9 9 12 10 9 9 10 8
10 16 17 14 21 16 15 17 19 31 51 59 62 62 58 52 46 47 49 43 37 30 31 30 27 23 16 11 9 9 9 9 9 7 8 9 8 10 11 9 9 9 9 8
9 11 14 14 21 18 14 16 14 16 38 56 63 62 60 50 48 49 51 43 36 35 31 31 28 23 18 13 9 9 9 9 8 6 8 6 6 9 8 8 9 11 10 10
9 7 6 11 17 25 19 8 17 12 21 55 61 63 61 49 54 54 52 45 40 36 34 34 32 22 16 12 9 10 10 9 7 6 4 4 5 7 8 9 10 11 9 10
7 13 14 16 19 21 12 12 17 23 18 31 58 61 59 49 55 59 54 45 40 38 36 34 30 22 18 13 11 11 10 8 7 5 1 3 5 7 8 11 8 4 7 7
16 12 11 14 14 14 19 17 12 18 17 23 47 54 52 54 53 60 53 44 42 41 35 35 27 21 17 13 14 12 9 10 8 4 1 3 4 5 8 6 1 1 1 4
20 23 19 18 17 10 3 8 13 14 18 24 35 48 49 61 52 57 52 47 46 42 35 33 29 23 19 15 16 12 13 12 9 5 2 1 1 4 6 5 2 1 1 7
16 20 24 18 17 20 10 3 17 10 11 25 34 47 55 57 54 56 55 51 46 39 35 39 34 27 22 19 17 14 15 13 10 6 4 4 4 5 7 12 10 6 6 8
14 18 24 24 25 23 20 8 17 14 9 25 29 39 45 48 55 59 55 50 45 43 43 45 31 24 23 22 18 16 16 14 11 7 8 8 6 6 8 12 12 14 11 10
9 9 14 18 27 26 28 11 11 8 21 31 26 32 44 41 55 61 51 49 47 43 35 33 28 26 25 24 20 17 16 15 12 11 12 11 10 11 12 13 13 15 18 16

GFSCGP_500_spd_051.txt.gz
Wind_Speed
83 78 73 68 72 66 70 70 68 66 68 76 81 73 72 67 67 66 63 59 57 53 51 50 48 48 48 42 42 47 46 43 39 37 39 41 39 40 38 35 30 27 27 27
78 84 74 75 74 74 72 72 70 68 68 65 63 72 67 76 70 66 62 61 58 59 51 49 50 48 46 43 44 46 46 40 35 37 40 42 39 40 38 30 26 26 26 29
46 58 64 69 75 76 77 74 73 68 66 64 61 67 67 65 68 71 67 61 55 46 47 47 46 49 49 46 46 47 44 38 35 37 40 40 39 39 32 26 24 24 27 31
42 35 53 68 75 77 79 75 74 71 67 64 63 69 64 61 56 58 58 51 46 42 42 42 45 47 47 45 46 44 37 33 33 37 37 37 39 32 26 24 23 26 29 31
29 27 39 52 69 75 78 77 74 71 68 68 62 68 57 52 53 44 39 39 39 40 40 40 40 39 38 39 40 33 29 31 34 35 38 36 32 27 24 22 24 28 28 28
18 23 26 30 51 67 71 74 74 73 71 72 61 60 56 48 41 34 33 35 36 38 36 36 36 34 33 35 29 25 28 29 32 36 36 31 27 23 21 21 25 25 26 25
17 25 24 22 32 41 68 68 68 70 73 68 63 59 48 40 39 34 36 36 34 32 34 36 37 34 35 30 25 26 28 30 32 31 27 24 21 18 19 21 23 23 22 22
16 17 27 18 20 34 40 61 66 72 69 65 63 56 45 37 31 22 30 31 33 32 35 33 32 32 27 23 25 27 29 29 25 21 22 18 16 18 19 20 20 20 20 20
14 8 14 24 24 22 38 47 50 61 62 65 63 44 41 41 37 36 24 20 30 35 34 32 29 23 22 25 25 28 27 22 19 19 17 15 17 17 18 19 18 19 20 18
7 4 7 14 21 25 24 36 45 47 58 59 55 49 43 42 41 40 35 31 27 31 32 25 22 23 26 24 25 22 21 18 15 16 15 16 15 17 17 17 18 19 21 18
7 8 5 5 14 20 28 28 37 45 47 55 55 51 47 44 38 37 38 37 30 24 23 22 26 26 25 21 20 20 16 15 15 16 16 14 15 16 17 17 17 20 21 18
9 9 8 12 11 11 20 29 31 39 49 53 54 53 48 44 44 35 37 33 33 25 27 22 25 25 20 19 18 15 15 17 17 17 16 14 15 17 16 16 18 20 20 18
11 12 12 12 13 16 16 19 25 36 43 54 55 49 50 50 47 42 35 34 36 33 28 26 25 23 20 17 16 16 16 16 15 16 13 13 15 15 16 18 19 21 20 16
19 13 10 14 19 18 19 19 20 31 44 49 57 53 49 49 49 40 37 40 35 32 28 24 23 20 17 14 16 17 14 14 14 13 12 14 14 14 16 20 20 18 18 15
17 13 12 11 10 15 16 20 26 27 39 52 50 56 51 39 31 35 46 45 37 35 31 28 24 20 15 15 16 15 15 13 12 10 12 13 12 14 16 15 15 15 13 13
13 10 11 7 13 13 11 14 18 25 33 48 53 58 56 45 37 35 45 45 39 40 34 28 25 23 19 14 16 16 14 11 10 10 12 11 11 14 11 12 13 13 9 10
4 7 13 12 13 15 17 17 22 23 31 46 56 57 58 56 52 40 44 43 40 40 32 28 28 25 21 18 19 17 14 10 9 10 11 9 12 11 12 12 10 7 6 7
1 6 11 13 15 16 15 13 13 22 23 46 57 58 58 54 52 48 49 43 44 43 33 33 27 25 22 18 21 16 13 10 9 10 9 9 10 10 11 8 8 8 8 8
4 8 11 13 13 12 15 18 21 18 25 39 55 58 57 54 55 47 52 49 45 41 38 35 29 24 22 23 22 17 13 11 9 8 8 8 7 9 7 9 9 10 11 8
8 8 9 20 18 17 14 12 15 14 17 33 53 60 59 54 56 53 56 51 48 40 34 34 31 25 25 25 22 18 14 11 8 8 7 6 6 7 7 10 13 13 12 9
10 9 9 14 17 13 7 14 17 21 15 21 45 60 59 57 51 51 59 54 49 43 35 36 29 28 26 24 23 17 14 11 9 8 6 5 5 6 7 11 9 6 6 9
17 15 14 17 18 18 22 18 15 18 23 15 33 58 60 56 48 49 48 57 51 45 39 37 31 29 26 26 22 16 14 11 10 8 6 4 5 4 7 7 6 4 5 2
15 18 18 17 19 22 17 13 15 9 10 16 26 51 60 53 46 48 48 49 50 44 42 38 33 30 26 26 22 16 15 13 12 9 6 4 3 2 5 7 6 4 1 3
16 16 20 24 23 22 19 11 17 12 5 15 24 44 56 52 44 48 48 50 49 45 42 36 34 30 26 26 20 17 14 14 12 10 7 6 4 1 5 6 4 2 7 8
16 18 19 22 24 18 7 4 2 10 11 21 30 38 49 51 46 51 49 52 48 46 38 36 33 31 26 23 21 18 16 15 13 10 9 9 7 5 4 5 4 2 8 12
18 17 17 22 26 22 3 4 6 6 19 24 32 41 49 42 47 52 53 53 49 44 41 35 36 32 25 26 22 19 17 16 13 12 12 11 10 7 6 7 7 0 13 17

GFSCGP_500_spd_054.txt.gz
Wind_Speed
68 70 68 70 68 70 69 69 71 68 68 67 68 64 67 71 69 70 68 70 68 69 63 64 60 54 49 47 50 52 53 52 51 49 42 38 39 40 39 38 38 41 36 32
66 72 71 77 79 75 72 76 72 73 74 72 70 65 61 65 75 72 69 67 67 69 68 64 57 53 49 51 53 55 56 52 49 49 40 38 40 39 38 37 40 41 33 30
51 51 44 53 63 72 77 77 76 74 75 74 71 68 62 63 63 75 75 73 67 64 62 58 56 51 51 56 58 60 55 49 48 46 42 39 41 38 36 38 38 34 31 27
31 28 34 41 47 52 67 74 79 77 73 76 74 71 62 59 59 59 68 73 69 66 65 63 58 53 53 56 59 56 51 47 46 44 37 36 38 37 36 37 35 32 29 27
25 30 33 37 39 44 52 70 58 72 71 68 59 72 69 63 61 57 56 59 59 55 64 70 61 51 54 54 54 49 44 43 40 31 32 35 35 36 37 35 33 31 26 27
23 25 30 26 22 26 32 43 43 47 54 57 73 71 69 63 55 51 50 48 50 50 52 55 52 49 50 50 45 40 37 31 26 28 31 32 33 36 35 31 28 25 25 26
18 20 24 22 21 17 19 35 41 41 46 61 69 63 70 58 54 46 44 45 43 44 41 42 43 45 46 42 37 32 26 24 26 29 30 31 33 32 29 25 23 24 24 26
20 13 12 17 19 13 25 28 42 34 43 44 45 42 64 60 38 42 46 40 38 40 38 41 41 41 40 34 30 24 24 26 28 28 28 29 28 27 24 23 22 23 25 24
15 12 17 20 19 15 18 30 29 34 35 38 40 59 58 58 53 25 26 41 38 37 37 38 36 35 30 29 27 24 26 29 27 27 27 26 25 23 23 21 21 24 25 23
17 13 12 15 19 22 23 19 29 33 32 33 34 44 56 55 45 38 31 30 36 39 40 36 33 32 27 25 27 28 29 26 25 25 25 22 20 21 20 20 23 24 22 23
12 13 11 14 10 18 21 17 30 31 37 24 30 29 37 53 48 45 45 33 35 37 37 35 34 28 28 28 28 28 26 25 24 24 22 19 20 20 20 22 24 22 21 23
13 11 14 10 16 14 15 18 25 30 23 34 28 25 36 49 49 41 46 40 37 33 27 23 30 30 28 29 28 26 24 24 23 20 19 19 19 19 22 23 21 21 22 23
17 15 11 9 13 14 13 17 25 28 37 37 30 23 38 49 49 46 40 45 43 39 25 29 28 30 31 28 27 25 23 21 19 20 17 19 18 20 22 20 19 22 24 24
13 14 15 15 16 9 13 13 16 21 30 32 36 35 25 36 47 49 48 35 43 40 33 30 25 30 29 26 24 21 19 17 19 18 17 17 18 20 19 18 20 21 20 18
11 7 13 13 14 19 20 17 17 17 20 30 33 35 43 50 50 50 43 35 45 40 40 37 27 28 27 23 20 17 16 18 18 17 17 16 18 17 17 18 16 16 17 16
6 6 10 11 11 12 14 17 16 17 20 24 33 49 52 45 45 39 43 46 42 45 44 40 34 26 24 20 16 17 16 17 17 17 17 16 17 15 16 15 14 15 15 13
3 4 8 10 12 12 7 10 15 16 17 25 36 46 52 50 42 44 48 45 43 46 42 40 32 28 26 22 14 16 15 16 17 18 16 16 16 14 13 13 13 12 13 11
3 5 9 10 14 15 15 13 17 16 18 27 41 51 51 52 46 49 52 47 51 48 46 41 36 31 30 22 16 15 16 18 19 17 16 16 14 12 11 11 10 11 12 9
14 19 16 12 13 14 13 13 16 20 19 28 46 52 49 52 51 53 52 54 57 52 45 42 38 33 30 24 18 18 20 19 19 16 15 14 13 12 9 9 9 11 11 10
8 10 9 9 14 15 8 11 13 16 17 26 39 48 54 59 54 42 53 59 58 53 47 44 38 33 28 22 18 20 21 20 18 16 15 14 12 11 9 9 10 12 12 12
15 12 10 11 16 16 7 20 20 17 16 20 32 42 56 64 64 51 42 49 53 51 49 43 37 33 27 22 19 21 22 20 18 15 15 13 11 10 8 9 10 8 7 8
18 16 11 13 14 14 22 23 21 19 16 22 23 37 58 59 60 63 51 54 53 47 46 42 36 32 26 23 22 22 22 20 17 15 14 11 9 9 7 8 8 7 7 8
19 21 24 23 20 14 20 20 25 20 12 21 24 30 53 54 52 56 57 58 54 44 42 41 36 31 26 24 21 22 20 20 15 15 14 10 8 8 5 7 8 7 5 3
22 19 24 26 29 27 22 21 24 11 13 16 25 31 54 55 50 59 60 63 56 46 41 38 34 31 28 24 22 23 21 17 15 15 13 10 9 7 4 3 2 1 3 4
25 26 25 27 31 26 23 15 10 6 17 20 22 29 48 53 51 54 62 64 56 48 43 37 35 30 28 25 24 22 20 17 16 15 13 10 10 7 2 1 2 2 6 10
23 27 29 28 29 29 26 0 4 8 5 11 24 32 42 46 50 51 56 62 51 50 44 41 36 32 27 27 24 20 20 17 16 16 13 11 10 6 3 1 2 5 10 13

GFSCGP_500_spd_057.txt.gz
Wind_Speed
50 52 55 59 58 59 64 68 70 65 61 54 46 62 62 59 61 68 70 67 68 60 60 59 62 68 59 57 54 50 45 46 46 49 51 53 52 45 40 42 39 40 38 34
49 51 56 60 61 64 67 69 70 71 69 54 47 57 68 63 64 61 66 73 73 70 61 66 70 65 61 57 54 49 48 48 48 51 54 54 54 47 43 43 38 41 36 34
54 55 53 55 60 65 69 73 75 73 72 63 70 60 71 70 64 64 62 68 74 72 69 69 70 67 62 58 56 53 52 49 50 56 55 53 50 46 42 38 37 39 33 36
57 49 46 48 52 54 63 63 67 75 74 66 73 61 72 68 69 67 61 61 64 72 73 76 70 69 68 63 60 55 51 47 53 55 54 48 44 43 36 35 36 35 35 37
35 29 29 32 31 34 40 42 45 62 71 72 69 57 58 68 69 69 64 59 59 62 64 67 67 66 59 59 58 56 54 49 55 54 49 42 40 32 31 33 34 34 35 34
18 22 25 27 27 31 37 38 39 42 44 52 67 57 51 55 58 50 52 62 61 59 55 61 70 68 66 63 60 61 51 52 53 49 40 32 28 31 29 33 34 32 32 30
27 13 23 22 25 29 23 22 28 34 45 54 49 60 57 36 37 41 42 51 56 53 53 49 57 64 61 62 64 60 52 55 49 39 31 27 28 28 29 32 31 31 28 28
22 19 22 17 18 19 22 22 30 32 33 41 39 57 62 50 27 38 43 52 55 48 44 45 46 51 50 50 52 54 54 51 37 30 28 28 27 26 30 30 29 30 28 28
22 20 20 11 21 23 18 31 17 31 31 38 39 36 44 57 50 41 29 46 51 45 44 42 45 43 40 39 39 41 44 36 30 29 27 26 24 27 27 27 28 28 29 27
19 26 15 16 17 21 22 20 21 29 29 27 31 28 38 37 39 42 36 35 45 42 44 42 41 36 38 37 36 35 32 30 29 26 25 23 25 26 26 25 27 28 27 27
18 19 18 17 17 11 13 20 25 22 28 23 15 14 30 38 37 40 33 37 34 42 43 41 38 36 36 33 32 31 30 29 27 25 24 23 26 26 25 25 27 25 26 27
19 17 14 17 19 16 7 11 22 24 26 27 20 26 20 36 30 35 44 46 35 39 44 41 40 39 35 35 33 30 29 27 26 25 23 24 26 24 24 25 25 23 27 26
18 15 19 11 15 18 15 15 15 28 24 35 24 12 10 38 38 41 55 49 41 45 39 34 34 39 39 35 33 31 29 27 25 22 22 25 24 24 24 23 22 25 25 24
18 14 18 16 20 16 13 16 22 22 24 39 31 13 25 20 28 32 51 55 48 39 32 26 27 35 38 35 33 32 28 25 22 22 23 24 24 23 21 20 22 22 23 21
8 8 12 12 15 10 17 16 11 24 24 36 38 35 32 37 30 32 48 52 53 50 40 31 28 32 35 33 30 27 24 23 21 21 21 22 22 19 19 20 20 21 19 18
4 6 8 9 9 13 15 17 20 20 21 48 45 45 25 27 38 50 54 50 47 51 44 36 33 33 34 30 26 24 23 21 19 18 20 20 19 18 19 19 19 20 18 17
5 7 9 8 10 15 4 11 18 21 21 24 56 45 34 31 41 49 50 52 49 41 42 41 35 32 30 26 24 23 21 18 16 17 18 18 17 17 18 18 19 18 18 16
22 20 17 11 15 17 13 17 19 24 24 23 28 50 58 48 50 42 48 52 46 41 46 46 44 32 27 27 24 21 18 15 16 16 16 16 17 17 17 18 17 17 16 16
14 15 17 20 10 12 9 10 11 20 20 27 35 34 49 59 45 48 48 49 48 38 48 45 42 37 31 27 25 19 18 16 16 16 15 16 17 17 16 16 16 15 15 15
20 17 14 14 14 16 14 6 9 16 18 24 26 23 30 43 52 41 49 50 50 44 48 47 44 39 31 29 26 20 19 18 16 15 15 17 16 16 15 15 15 15 14 14
19 18 18 16 17 17 19 15 22 22 14 16 19 21 33 47 49 53 53 49 46 48 49 47 43 36 29 29 26 20 20 18 15 15 16 16 15 15 14 15 13 12 14 14
19 20 21 22 19 20 17 19 23 23 21 18 22 23 31 41 51 54 48 46 48 49 50 47 44 37 29 28 23 22 20 17 15 15 15 16 14 14 15 13 13 13 14 13
20 21 21 24 26 26 22 17 20 26 24 18 21 26 33 48 49 53 50 51 55 54 50 49 43 36 30 27 22 22 18 17 15 15 16 14 13 14 13 10 13 14 13 12
22 21 22 26 27 28 20 17 26 24 14 17 23 24 39 46 53 53 51 54 56 56 52 45 39 35 29 26 21 21 19 15 15 15 15 13 12 14 10 11 12 12 8 5
23 24 25 27 30 30 25 18 11 11 12 19 23 27 35 50 57 54 57 54 55 54 49 43 39 33 27 23 21 20 17 14 15 16 14 12 12 12 10 10 8 6 6 7
22 24 26 25 32 33 21 9 6 11 12 17 19 25 33 53 62 56 52 46 41 43 43 40 37 33 29 24 22 21 16 15 16 16 13 11 11 10 9 9 7 7 8 8

GFSCGP_500_spd_060.txt.gz
Wind_Speed
42 45 47 50 53 55 58 60 61 59 58 58 46 55 59 58 58 56 58 58 66 68 64 60 57 55 56 63 62 48 51 50 50 49 43 42 43 44 44 51 50 44 39 37
42 45 48 51 53 55 59 63 65 66 65 66 63 67 64 61 60 61 61 58 58 63 67 64 58 56 61 67 67 51 49 50 51 49 43 43 45 43 45 50 48 39 36 33
44 46 49 51 53 55 57 60 62 65 65 62 69 71 69 65 64 64 57 61 58 59 59 65 69 64 63 69 71 50 49 51 51 50 42 43 44 43 49 50 41 37 32 31
47 46 48 52 52 51 56 52 55 60 60 65 61 72 68 67 67 66 64 66 62 58 62 61 70 72 73 72 74 58 53 52 51 49 45 42 43 43 50 47 38 30 29 29
42 41 42 35 29 25 32 38 36 39 42 52 62 66 79 71 70 68 67 65 65 61 58 62 64 61 66 75 71 65 59 57 51 48 47 46 42 42 49 42 32 28 29 30
36 34 20 19 26 27 29 37 40 40 43 50 67 53 79 75 73 70 65 65 64 64 58 59 58 57 52 61 68 64 62 60 48 44 48 49 43 44 46 34 29 27 28 31
32 25 18 18 10 16 24 27 32 34 34 46 48 44 71 69 67 61 33 42 47 55 58 56 56 59 52 52 59 62 60 57 49 48 52 51 43 43 41 31 29 27 28 30
32 21 24 31 25 23 22 26 32 34 30 29 32 43 47 57 55 38 40 36 34 32 40 53 60 54 50 47 47 50 55 51 47 50 50 45 44 43 36 31 29 28 28 25
30 27 26 24 24 19 20 23 23 36 31 41 32 33 38 39 45 47 33 44 45 48 45 53 58 51 46 49 41 40 42 42 44 48 45 40 40 37 32 29 29 28 24 22
31 35 20 27 16 19 20 19 24 25 34 28 23 30 26 33 56 40 34 31 52 56 51 50 43 47 45 38 34 34 36 38 35 30 30 34 35 32 28 29 27 26 23 23
30 35 19 17 15 20 18 21 18 22 30 27 27 15 22 27 59 48 30 19 44 41 27 35 48 47 40 36 36 34 34 29 30 30 31 31 31 27 27 25 25 24 24 24
29 26 20 16 19 24 22 18 21 36 22 20 23 12 7 29 45 51 31 27 38 44 44 45 45 45 39 38 36 34 32 28 29 30 28 28 25 24 25 24 24 24 24 23
19 16 19 14 12 21 23 21 20 27 17 22 30 19 17 21 47 46 49 58 52 50 42 42 44 39 41 38 35 33 30 28 27 25 25 24 24 24 23 22 23 23 22 24
14 12 15 20 19 23 12 12 22 22 18 20 34 22 33 33 39 40 40 25 43 48 42 39 35 42 39 35 34 32 30 27 25 24 23 23 23 22 22 22 22 19 22 22
14 13 13 13 15 11 16 17 13 17 16 26 23 27 38 26 21 44 35 15 52 48 38 35 36 38 36 35 35 31 31 28 27 24 22 22 21 22 21 19 17 20 20 20
19 13 12 8 13 10 13 16 22 19 18 24 25 28 28 28 27 28 13 18 51 50 45 41 36 31 31 32 32 32 29 27 24 22 21 21 22 19 17 15 17 18 19 21
23 23 26 18 17 14 12 15 23 23 23 29 31 27 33 34 23 6 11 24 36 56 50 44 28 29 31 32 32 29 28 25 22 21 21 21 17 15 14 15 17 17 20 22
22 21 21 18 16 15 9 20 17 14 21 35 41 35 29 36 24 16 25 37 41 53 53 44 31 33 36 33 30 28 24 23 21 20 19 16 12 12 13 15 15 17 20 18
23 21 23 18 16 11 11 15 15 15 9 27 34 32 27 36 50 27 30 38 47 51 48 41 34 39 36 30 29 27 24 22 20 17 16 13 10 12 13 14 15 18 17 16
20 22 20 21 18 18 16 17 12 12 13 18 29 25 36 36 48 51 44 34 41 46 39 41 44 41 34 28 28 26 23 22 18 16 13 11 10 10 13 14 16 15 15 15
19 19 20 21 19 20 19 20 22 22 25 19 21 31 30 41 52 53 44 41 41 45 42 45 47 39 33 30 27 25 21 19 17 14 11 9 10 12 12 13 14 14 15 14
20 21 21 23 21 24 26 22 32 27 25 25 23 26 28 40 46 57 47 42 47 40 40 48 46 39 32 26 25 24 18 17 15 13 8 10 11 11 11 12 14 14 14 16
18 22 23 22 23 27 29 35 34 24 21 24 26 30 34 33 52 55 48 38 48 43 43 48 43 39 36 31 25 23 17 16 15 11 8 11 11 10 10 12 12 12 15 17
22 23 20 23 24 27 34 38 21 22 25 21 23 23 29 32 58 63 49 42 48 47 41 46 40 35 33 26 23 20 17 17 15 9 10 10 10 10 10 11 11 14 15 14
25 22 21 28 31 35 37 35 23 23 27 28 20 17 23 28 48 57 50 48 47 49 46 43 42 34 32 26 21 17 18 17 13 10 10 10 10 9 10 11 12 12 11 8
21 21 23 22 28 39 39 29 17 18 22 20 12 13 20 28 41 45 49 51 49 48 47 44 41 38 31 25 23 19 18 15 12 10 9 9 8 9 9 11 11 10 9 6

GFSCGP_500_spd_063.txt.gz
Wind_Speed
35 37 39 40 42 46 48 49 51 48 54 60 60 61 56 56 58 57 54 55 57 56 69 57 57 57 59 58 57 57 52 51 49 46 46 43 43 41 35 35 36 37 39 41
35 38 40 43 44 48 51 54 53 55 55 59 61 62 58 60 60 59 59 58 57 55 54 64 63 60 65 62 61 63 60 51 50 51 50 46 43 37 35 36 35 36 40 42
35 36 38 42 45 49 51 54 56 58 57 59 63 67 63 58 62 62 58 57 59 59 54 56 57 66 70 72 70 67 65 55 47 50 47 44 42 36 36 37 36 37 40 41
33 33 36 37 41 46 53 50 54 58 59 63 56 70 68 61 64 64 63 62 62 57 56 55 56 58 61 63 65 68 68 65 49 44 45 44 41 38 40 39 33 36 39 37
28 32 36 39 40 34 42 35 41 47 45 60 63 69 73 68 69 66 65 64 61 58 58 51 54 54 58 58 56 62 63 63 50 46 47 48 44 40 42 40 37 36 39 33
26 28 36 43 35 24 26 31 36 35 37 52 60 56 71 70 71 68 68 66 62 59 58 59 52 50 59 58 56 53 49 53 45 47 46 45 45 43 40 40 36 34 36 31
24 25 32 37 28 21 15 20 27 29 35 35 33 41 57 67 69 71 68 68 60 61 60 58 58 54 50 58 57 50 50 48 39 43 44 42 43 42 40 43 37 36 33 32
32 32 34 30 29 30 24 22 25 33 37 39 33 36 39 38 48 59 66 62 57 65 64 59 61 57 51 49 50 49 47 44 36 36 39 44 43 41 42 41 35 37 30 33
35 37 35 32 31 32 25 24 23 32 34 42 36 31 29 30 29 36 42 43 49 43 61 46 53 55 55 54 51 49 40 39 37 34 35 39 37 38 42 35 37 32 29 31
34 40 32 34 32 20 25 23 22 26 40 35 30 20 28 25 28 30 49 56 46 41 31 40 43 52 54 56 52 45 36 37 41 34 31 32 33 36 33 32 29 26 28 28
30 32 27 18 16 21 21 23 23 28 36 31 29 28 24 20 24 33 54 58 48 48 44 43 46 42 35 36 44 45 41 39 33 27 29 28 27 24 25 26 25 24 25 24
25 29 24 11 13 16 19 24 25 31 30 24 34 42 29 30 25 18 60 56 43 28 49 58 56 46 39 38 30 37 37 34 30 29 28 24 23 22 24 24 22 20 22 23
23 18 19 12 13 13 17 19 28 31 32 27 24 25 29 36 27 9 53 44 33 34 31 47 40 51 39 29 33 35 36 34 31 27 27 24 21 23 22 22 20 21 22 23
22 19 23 15 15 15 16 18 20 22 31 27 23 29 36 39 22 9 35 37 36 34 41 43 46 31 31 29 32 37 39 35 31 29 24 22 23 22 19 19 20 20 22 20
21 20 26 22 16 15 15 15 23 25 22 18 27 28 32 36 16 20 30 38 33 41 40 36 36 40 37 31 34 38 36 34 32 25 23 24 22 18 19 19 18 19 19 19
20 23 24 21 20 20 18 18 18 24 27 27 27 23 25 29 12 15 43 28 38 40 36 42 35 37 30 33 32 36 36 33 29 27 27 22 19 19 18 17 17 17 17 17
14 21 24 24 22 19 13 16 13 19 22 28 28 23 27 30 16 7 17 32 40 30 32 41 41 43 33 35 32 36 35 33 30 26 23 21 19 16 16 15 16 17 15 15
15 19 24 19 20 17 18 13 18 19 18 28 33 30 31 31 29 28 6 16 31 36 33 40 46 39 36 31 32 45 36 31 28 26 23 18 15 15 14 15 16 13 13 14
16 21 20 20 19 19 13 14 16 19 14 22 22 28 27 20 22 31 20 9 10 23 43 47 40 39 40 37 37 31 34 30 27 25 21 17 15 14 15 15 12 12 12 12
22 21 21 20 23 22 15 13 13 16 20 21 25 24 20 18 21 30 26 19 17 31 43 48 39 40 38 36 36 35 28 28 25 22 18 16 15 15 15 12 11 10 11 11
19 19 18 20 21 21 19 16 19 19 23 35 34 33 27 19 17 25 36 26 25 33 43 50 38 29 34 36 27 32 29 26 25 21 17 15 14 13 12 9 9 10 10 11
17 21 20 23 24 23 21 22 26 30 29 37 36 31 28 24 18 29 35 30 35 33 46 51 39 35 36 32 35 27 26 26 24 19 15 15 13 12 9 8 8 10 12 12
18 20 24 25 22 22 25 25 35 37 31 26 30 35 32 27 19 36 39 43 39 28 41 47 41 39 36 31 29 28 25 22 20 17 15 12 11 9 7 7 8 10 10 12
20 25 23 23 20 29 25 28 35 44 43 31 27 30 34 28 28 40 43 42 36 36 45 47 48 44 17 30 26 23 21 19 18 17 14 11 9 7 5 6 8 9 13 13
21 20 19 20 22 23 30 33 42 48 32 30 18 19 24 30 33 51 53 43 41 46 45 47 48 42 18 29 27 25 18 17 19 16 13 10 6 6 6 7 8 10 10 10
23 19 17 17 21 31 36 40 48 31 25 25 22 17 20 29 38 48 53 40 47 50 48 47 48 41 31 30 29 23 21 19 17 15 11 8 7 5 6 7 9 8 7 6

GFSCGP_500_spd_066.txt.gz
Wind_Speed
30 31 33 36 39 41 43 46 48 51 55 54 54 52 51 51 55 55 55 57 58 59 67 67 64 61 55 60 57 57 55 55 52 48 47 45 43 43 41 38 34 34 32 31
30 30 33 36 39 42 44 45 48 50 54 56 58 57 54 53 53 54 55 55 56 56 59 61 63 64 64 62 61 60 60 59 57 55 49 49 46 43 41 38 36 35 32 31
27 29 31 35 38 41 43 47 51 53 53 55 60 59 56 55 58 58 58 57 54 55 57 57 59 62 65 61 60 61 60 59 59 58 55 50 48 42 37 37 39 34 32 32
27 29 31 35 39 38 44 45 51 53 55 58 57 62 59 58 63 63 62 61 61 60 57 56 57 63 61 66 66 65 63 60 58 56 53 50 46 41 41 42 39 33 32 32
23 25 28 31 32 32 39 43 45 49 54 60 61 65 62 62 64 63 65 66 66 64 63 62 57 55 64 64 73 71 67 64 62 64 67 49 48 44 43 42 42 35 32 33
20 20 24 26 29 33 40 43 42 39 38 48 49 44 63 62 64 67 69 69 72 70 67 64 62 57 53 61 66 73 67 62 61 60 47 33 42 43 45 44 46 38 34 32
8 14 18 27 35 31 32 36 40 30 28 36 30 41 49 47 45 62 75 76 74 72 72 68 65 63 57 55 61 61 61 60 58 54 34 26 33 42 45 45 44 39 33 35
17 20 24 28 34 43 32 27 37 37 34 31 26 34 27 35 42 49 59 68 73 75 73 69 68 63 60 57 56 57 56 53 49 43 33 29 28 33 41 43 41 34 31 38
24 24 26 27 36 38 37 33 32 36 39 38 27 28 33 29 36 42 48 54 67 68 72 69 65 66 63 57 53 54 50 50 46 39 33 32 30 32 42 43 38 31 33 37
23 25 22 24 33 30 30 30 29 28 32 33 28 31 32 33 29 36 38 43 50 61 64 63 65 67 61 56 47 47 49 46 42 37 34 33 35 35 40 41 37 30 36 38
20 23 24 24 29 24 19 25 25 26 30 32 34 31 28 28 32 40 33 39 40 48 51 60 65 64 58 53 52 46 44 45 40 40 31 34 35 34 35 37 33 33 38 35
19 22 20 19 24 20 17 17 20 29 31 33 36 33 28 26 29 31 41 41 41 47 53 61 65 59 50 51 50 43 45 44 39 37 36 34 33 29 30 32 30 31 30 27
17 19 21 18 17 16 17 16 22 28 30 27 35 33 27 27 31 37 43 38 36 67 45 55 52 53 49 49 46 36 39 38 40 39 37 36 33 28 28 27 29 26 24 24
18 16 20 22 21 19 16 17 22 26 30 34 31 28 25 27 25 36 30 19 40 53 34 55 53 53 46 36 31 36 32 31 38 40 39 35 33 30 28 27 23 24 21 20
17 16 20 20 26 21 17 14 16 22 33 36 30 27 28 26 26 29 14 14 56 22 33 49 42 45 38 33 38 39 38 38 38 36 35 35 34 32 29 25 24 21 20 24
20 16 18 16 22 21 16 12 16 22 19 28 34 27 28 22 24 30 18 18 25 31 41 25 49 51 42 44 42 42 45 42 35 34 36 35 33 28 26 26 21 21 23 21
21 18 18 15 22 16 17 15 11 10 12 21 29 31 25 19 20 27 16 17 34 37 37 28 44 50 48 46 40 39 38 37 35 35 36 32 32 29 29 24 25 22 18 12
18 19 20 19 21 17 20 16 12 11 15 16 16 16 18 17 20 23 25 12 35 38 39 35 45 55 53 46 40 41 36 39 38 37 36 31 30 26 24 21 17 15 11 11
19 19 22 23 18 14 15 15 17 17 16 11 9 13 14 14 11 17 8 2 30 34 34 42 50 54 49 40 42 23 40 39 38 39 35 31 28 25 21 17 16 13 11 13
21 20 22 25 26 18 21 19 21 21 20 22 19 22 21 20 12 13 7 8 35 33 40 36 43 46 43 39 37 23 48 38 47 39 32 29 26 21 19 17 15 13 13 14
20 20 23 23 29 20 21 22 22 24 25 21 31 30 27 21 14 13 17 18 32 34 34 32 39 48 42 41 36 28 48 34 37 33 31 26 22 21 19 16 14 14 14 13
19 20 19 24 24 21 25 20 21 25 28 32 35 35 36 19 17 20 20 22 26 26 30 37 41 34 30 30 45 31 39 35 32 30 27 25 24 21 16 15 14 13 13 12
20 23 23 23 27 27 27 24 26 32 28 32 40 43 35 17 21 29 27 28 28 30 32 43 38 34 26 27 23 40 35 35 29 27 27 25 20 17 15 14 12 11 10 10
18 23 26 26 18 22 25 28 28 31 39 42 45 39 24 18 24 27 33 41 32 31 44 42 38 29 23 24 31 32 38 36 30 27 25 21 19 17 15 13 10 9 9 10
18 18 20 21 20 19 25 34 35 39 44 43 33 26 22 22 29 32 37 47 38 39 36 36 42 34 25 24 23 45 37 35 30 27 23 21 18 16 13 10 8 8 8 6
15 15 15 17 22 30 33 35 39 44 36 28 26 22 22 24 26 41 41 43 48 45 33 36 48 46 38 31 34 36 35 34 29 25 21 19 16 14 11 8 7 8 6 5

GFSCGP_500_spd_069.txt.gz
Wind_Speed
32 31 32 36 38 39 41 43 45 46 49 49 49 48 47 47 50 53 54 57 61 64 80 74 71 60 61 64 64 63 60 52 48 49 50 47 38 36 32 33 33 39 36 32
28 29 32 34 37 38 40 43 44 47 49 53 52 50 49 49 52 55 56 58 59 61 62 72 75 75 65 66 71 70 64 57 55 53 46 49 45 43 39 38 36 40 39 35
27 29 30 32 33 36 38 42 45 48 49 51 56 54 53 54 55 55 56 58 60 62 63 64 65 67 68 72 72 67 66 59 59 59 57 54 46 42 46 38 40 41 39 35
25 25 27 29 31 34 36 40 43 46 49 53 54 58 55 57 58 59 60 62 62 61 63 64 65 64 68 70 75 73 69 70 65 65 61 57 51 50 42 43 41 43 41 40
24 22 25 26 29 31 33 38 41 46 49 54 52 59 58 59 60 61 62 65 65 65 65 65 65 64 65 65 68 77 71 72 72 65 60 58 51 49 44 45 46 46 47 42
15 21 23 24 24 24 25 31 37 39 41 49 47 51 53 55 58 63 69 69 70 70 68 67 66 66 64 64 64 65 69 62 64 60 57 51 48 42 40 39 41 46 44 42
16 17 17 18 23 28 28 34 44 51 53 49 45 47 48 52 51 61 66 71 73 73 73 70 68 67 67 64 63 66 65 66 59 56 57 51 39 34 32 34 40 45 49 48
17 15 16 20 25 29 28 32 38 49 51 51 40 48 46 42 47 48 59 66 69 74 77 76 73 70 67 67 65 64 63 61 60 59 56 50 42 32 35 38 40 43 44 50
24 15 13 17 23 29 30 32 37 38 37 42 44 37 38 30 39 41 42 52 61 70 74 78 79 76 72 70 65 66 64 61 60 57 55 50 37 35 38 42 43 40 43 47
22 20 13 16 23 29 29 32 32 32 39 37 30 29 26 34 35 38 41 42 43 50 65 73 75 80 78 72 67 62 63 61 58 58 53 48 42 40 44 46 42 40 39 39
20 19 15 17 23 26 28 30 31 32 33 31 34 30 24 24 26 27 29 39 43 46 56 63 68 75 78 74 69 65 59 57 59 56 47 52 48 44 44 46 43 40 41 40
21 20 18 15 21 25 31 27 30 32 28 30 35 26 25 28 29 29 28 32 38 44 47 47 53 66 74 69 70 67 57 54 52 57 50 50 45 46 42 43 43 39 38 34
21 21 21 14 18 23 27 31 30 31 30 30 37 25 26 27 25 25 25 28 29 39 35 36 42 50 65 66 69 65 62 51 52 49 50 49 43 43 41 40 37 37 31 31
24 20 20 19 19 22 18 20 31 31 30 27 33 28 24 23 25 29 33 34 24 19 28 37 38 43 55 67 71 64 60 55 51 49 52 47 47 46 39 36 35 34 31 28
26 22 21 19 18 21 20 19 22 30 29 34 25 30 27 23 24 26 27 35 11 13 21 21 39 44 47 55 63 59 58 54 52 51 51 48 46 41 37 34 33 31 26 27
25 23 21 20 20 23 20 20 23 20 19 22 25 23 25 28 26 19 25 35 2 13 33 14 24 40 52 46 52 52 56 54 53 51 49 50 44 39 35 34 32 29 29 28
30 24 26 18 20 23 21 19 16 14 16 19 20 18 18 19 20 24 27 18 15 29 10 25 27 48 48 47 46 46 48 55 50 46 45 43 40 36 35 32 32 31 29 27
16 21 26 21 21 21 19 19 18 16 14 18 17 14 15 14 10 14 21 17 7 40 17 39 51 52 53 55 51 47 48 49 36 40 40 37 36 35 33 33 33 31 29 28
20 22 25 27 26 26 20 21 23 21 13 18 18 15 14 17 16 19 17 15 7 18 41 41 50 45 48 52 45 45 41 39 35 42 39 37 35 35 36 34 32 31 28 26
21 23 27 28 32 32 22 23 24 27 21 19 20 15 17 17 11 16 17 13 4 11 30 33 35 37 39 46 44 46 39 37 38 44 42 39 40 36 34 32 28 29 27 24
19 22 24 26 33 31 25 24 26 28 23 19 22 23 22 20 20 17 20 13 10 16 25 30 29 35 40 46 46 41 39 40 47 43 42 41 34 35 35 30 28 25 23 21
21 23 23 27 29 30 23 26 29 29 25 30 31 26 28 23 16 20 21 15 13 17 27 28 26 32 36 40 46 39 41 65 49 49 45 41 36 33 30 27 23 21 19 17
22 22 25 26 24 27 30 29 28 30 28 31 36 32 35 27 20 24 23 20 17 17 25 24 29 33 37 38 34 36 43 40 52 38 47 40 35 30 27 23 21 19 18 18
19 23 20 20 19 27 28 27 28 32 37 39 41 44 39 23 25 29 29 27 24 23 26 26 20 17 27 31 34 37 30 37 47 45 42 36 31 27 23 21 18 18 18 17
18 16 17 14 18 21 24 28 33 40 42 46 44 40 26 16 24 33 33 32 32 33 32 30 25 21 22 17 26 33 39 44 44 41 37 33 29 26 23 20 18 16 15 15
10 13 15 16 25 32 30 33 37 44 44 31 32 26 18 21 23 29 35 34 34 36 35 27 21 24 16 15 31 48 47 41 39 38 33 29 27 23 20 18 17 16 16 13

GFSCGP_500_spd_075.txt.gz
Wind_Speed
28 31 33 33 32 32 34 35 37 38 39 41 40 42 42 41 42 41 43 40 45 62 69 67 66 68 65 64 63 63 58 52 58 57 52 37 37 41 38 37 34 37 37 35
25 26 30 32 34 34 35 37 37 37 38 40 40 40 42 40 41 41 42 42 42 48 54 81 65 67 69 66 66 68 68 58 56 49 39 40 43 41 44 46 43 39 42 42
24 26 28 29 31 32 33 36 39 40 39 40 41 41 40 43 42 44 44 45 47 48 50 61 73 72 70 69 68 70 72 73 67 48 54 39 47 48 47 45 44 42 47 42
22 24 26 25 27 31 30 34 35 36 38 38 40 44 40 42 45 47 47 47 49 51 53 54 59 69 84 75 73 73 71 69 66 66 68 67 59 55 50 48 48 49 50 52
23 24 23 23 27 29 30 31 32 33 33 35 32 42 41 40 42 44 47 51 53 54 56 58 60 62 64 72 80 78 77 77 76 75 73 73 71 65 57 57 55 53 44 43
20 25 24 24 26 28 31 30 31 31 31 33 31 34 41 38 41 42 44 48 54 57 58 59 61 62 65 67 65 76 81 79 77 76 77 76 76 69 64 64 56 46 43 45
22 23 24 26 27 28 30 27 29 29 29 31 31 35 35 35 39 44 45 45 49 53 59 62 62 64 66 68 72 70 67 84 79 77 75 75 74 70 67 62 56 44 44 48
22 23 25 25 26 30 31 29 27 30 28 29 31 35 31 33 38 47 51 50 50 54 56 57 65 67 67 69 71 72 71 65 85 84 78 75 71 69 67 62 56 37 40 46
23 21 22 23 26 30 31 28 26 27 27 30 30 28 30 30 34 43 49 53 55 56 59 62 62 64 70 72 70 72 73 71 67 73 79 76 71 69 68 68 55 39 40 50
24 26 18 21 25 29 34 28 25 24 27 26 25 25 27 29 31 40 46 51 53 54 58 63 66 68 67 70 73 72 73 74 72 70 70 69 65 63 66 62 53 41 40 50
26 26 21 23 24 31 30 27 26 26 26 28 28 26 29 20 27 33 38 40 41 38 39 45 60 71 74 73 71 74 74 72 74 73 71 70 67 62 61 57 48 40 46 56
27 29 24 23 27 29 31 28 28 29 30 30 28 22 24 20 24 33 37 40 34 32 35 38 39 44 62 81 78 73 74 74 72 74 74 72 68 63 61 56 50 43 47 49
30 31 27 22 24 29 31 30 29 30 32 26 32 26 28 25 33 38 40 33 35 38 37 37 38 39 43 62 81 79 74 73 74 73 72 71 69 67 63 57 49 48 48 51
33 31 26 25 23 28 32 30 30 32 34 29 29 27 18 27 32 38 35 36 39 39 36 38 43 45 49 45 57 82 79 75 73 74 72 69 66 64 62 58 51 48 47 51
34 31 29 25 25 29 30 29 29 33 30 37 28 28 29 26 28 29 29 33 37 39 38 40 36 43 47 41 40 51 77 80 75 73 72 70 66 63 62 58 53 51 49 48
34 32 30 26 23 28 33 30 28 30 32 35 34 29 30 32 29 25 24 24 26 33 36 41 39 27 30 32 27 37 52 73 79 74 68 70 69 64 62 57 54 52 51 45
32 30 29 24 23 28 36 23 30 30 29 32 34 32 32 32 32 26 26 27 24 29 33 30 29 25 18 29 32 38 39 50 76 73 68 64 68 65 63 60 55 53 49 44
30 28 29 22 23 25 17 22 24 27 28 32 37 34 33 31 32 30 29 28 27 30 32 20 22 27 25 22 19 15 31 47 59 72 69 64 66 64 62 60 56 51 44 40
20 21 19 20 22 20 17 22 27 31 29 34 41 37 34 34 30 26 26 28 34 33 28 11 15 19 15 10 25 26 27 24 49 60 64 63 64 63 61 59 53 46 43 40
12 9 15 18 25 25 19 26 29 32 31 30 35 35 34 33 29 20 28 33 29 31 18 7 16 21 21 3 15 26 26 16 48 57 63 63 62 62 58 56 52 46 40 40
6 11 15 18 23 22 25 25 26 28 28 25 28 28 33 33 31 25 29 27 30 28 20 9 14 9 12 11 2 13 17 27 40 55 61 64 64 61 59 53 45 42 39 37
7 11 20 24 25 24 22 18 23 26 21 25 25 30 31 28 25 29 27 27 29 18 13 10 11 13 11 10 12 6 22 24 36 43 52 55 56 53 48 45 43 41 40 41
15 20 22 21 17 19 22 24 26 31 32 32 33 30 33 29 28 32 32 30 27 10 12 13 14 16 13 15 10 8 17 29 32 38 42 49 50 49 46 43 41 40 40 36
12 12 12 12 17 23 25 26 30 32 41 43 45 48 40 38 31 33 33 32 19 12 11 8 10 10 12 12 13 14 18 38 31 30 33 41 40 42 42 41 41 40 38 37
10 11 13 16 24 27 30 36 42 44 46 48 48 44 39 32 19 23 28 21 11 10 7 7 8 13 13 13 17 19 16 16 32 29 36 36 38 38 40 42 43 41 38 34
12 17 20 24 29 34 33 36 39 42 40 37 34 30 29 19 10 17 24 18 13 11 12 9 10 12 14 17 16 16 22 27 26 26 31 31 40 44 44 47 44 37 32 28

GFSCGP_500_spd_078.txt.gz
Wind_Speed
23 25 28 34 35 35 35 36 36 37 39 39 37 37 39 44 49 51 51 47 44 43 55 75 74 79 74 63 76 75 76 75 73 69 65 67 64 55 48 42 41 42 26 27
21 23 28 29 31 33 36 38 37 40 38 40 39 40 39 39 42 45 46 45 42 45 40 77 74 76 78 81 67 78 79 71 68 71 73 68 62 59 52 51 37 33 27 27
22 26 25 28 29 30 32 35 39 41 41 40 42 39 40 40 41 43 44 44 44 45 45 48 76 75 77 82 77 80 65 70 67 69 68 72 59 58 47 49 38 32 33 28
25 27 27 27 27 30 31 35 35 37 38 38 42 41 42 38 41 43 44 44 43 46 48 49 52 64 76 78 75 75 77 73 80 79 71 75 73 61 55 53 41 37 31 36
25 28 29 29 27 32 31 35 34 35 35 35 32 39 36 37 37 40 41 44 46 48 48 50 50 54 54 62 77 89 83 77 74 74 75 70 71 68 44 41 42 46 35 42
20 29 30 29 30 31 33 33 33 33 33 33 28 30 29 36 27 35 38 39 43 46 49 50 52 54 56 57 54 80 88 79 84 74 74 67 65 64 59 65 67 44 42 47
23 24 27 29 31 32 32 33 29 23 24 22 35 27 29 32 28 32 37 38 40 43 46 50 53 54 56 58 58 57 74 81 79 80 78 78 70 63 58 58 57 52 54 54
24 22 27 26 29 30 27 32 29 25 21 20 32 32 25 25 30 34 39 41 42 44 45 47 51 56 58 60 62 63 65 65 68 88 80 83 82 77 70 62 60 59 58 54
26 24 26 27 29 31 31 37 35 37 36 35 32 27 25 24 30 35 38 41 43 45 46 48 51 53 55 59 63 64 67 68 69 68 69 81 92 82 80 75 71 67 61 60
29 29 27 23 26 29 33 32 34 31 33 32 27 24 18 20 22 28 34 42 45 49 51 54 55 55 58 61 62 64 67 69 72 71 70 72 67 80 89 82 82 73 70 61
31 31 26 27 24 27 33 32 34 32 34 31 28 17 27 20 23 30 34 37 41 44 42 45 50 59 62 62 65 66 66 68 72 73 72 73 70 69 69 74 80 74 66 57
36 34 31 29 27 29 30 33 32 33 29 33 37 32 25 25 27 28 31 31 36 40 42 45 46 49 53 61 66 68 71 70 68 72 72 74 72 68 66 61 65 68 61 50
38 36 35 32 29 27 31 32 33 37 36 38 37 34 29 26 30 32 34 36 37 38 42 40 41 39 42 44 49 59 71 75 73 69 72 73 72 71 67 62 58 56 54 46
39 38 37 33 27 30 30 33 35 38 42 38 40 35 28 27 34 35 33 36 38 39 39 40 42 45 48 52 52 51 55 72 79 77 72 72 73 73 69 64 59 53 50 45
43 41 35 34 34 29 32 33 34 36 40 40 33 35 29 33 36 33 33 33 34 34 35 36 43 48 50 51 54 56 56 61 75 84 80 73 74 73 68 65 61 56 51 46
39 37 33 32 32 28 28 26 27 34 34 37 36 38 27 36 37 35 34 34 32 33 32 32 32 37 46 55 54 53 55 54 59 76 86 77 72 73 70 65 61 58 51 48
31 29 28 26 26 28 30 20 26 29 31 34 38 36 37 39 38 40 38 35 34 36 35 34 35 40 38 39 33 32 38 41 49 60 84 83 75 72 70 65 59 53 53 48
25 23 26 28 27 28 18 13 18 21 24 27 34 36 38 41 42 43 38 34 36 38 34 33 36 37 32 29 29 36 41 48 57 53 69 83 77 70 68 66 60 56 53 48
9 12 14 14 10 14 15 17 16 20 21 28 38 40 42 41 42 39 34 33 32 35 33 33 32 34 27 30 22 23 19 20 39 47 61 77 75 70 68 67 62 58 52 47
7 10 16 10 14 17 19 21 24 24 21 25 31 33 34 38 40 32 31 33 34 34 34 32 34 30 26 28 25 14 10 4 23 33 55 72 75 68 65 64 62 58 52 47
5 5 8 10 13 16 21 24 19 19 23 23 30 32 34 33 34 34 31 34 34 35 33 31 34 22 23 20 20 7 10 13 16 18 53 67 71 65 60 60 60 58 53 48
7 4 7 14 23 25 17 19 25 26 27 31 30 34 36 34 32 33 31 30 29 35 31 31 27 18 19 10 11 8 11 25 43 42 53 59 60 60 57 59 59 56 51 47
6 10 17 21 20 16 22 26 31 32 34 35 38 36 43 44 36 35 37 35 29 29 18 25 22 16 14 2 4 4 9 28 34 49 56 59 59 59 59 59 58 54 47 42
6 7 10 15 19 24 29 33 37 40 44 46 46 44 41 38 27 25 33 31 26 16 12 14 11 10 6 5 3 10 22 26 31 55 57 59 59 59 58 54 50 45 41 37
7 11 18 24 25 27 30 35 36 37 40 40 35 32 29 27 19 18 19 23 19 13 8 10 9 10 10 15 18 28 27 26 31 47 46 53 52 50 48 45 42 39 35 33
16 21 25 24 30 40 40 34 33 39 41 41 33 25 24 24 16 15 15 18 18 12 10 7 9 14 19 27 26 36 28 28 31 32 34 37 39 40 40 38 35 36 34 34

GFSCGP_500_spd_081.txt.gz
Wind_Speed
28 26 26 26 31 35 36 38 41 39 37 43 47 42 38 38 44 44 41 42 48 47 52 51 59 61 81 86 80 87 88 75 80 74 71 69 58 61 52 50 58 60 47 52
22 23 26 29 30 31 32 35 40 43 43 48 47 45 40 41 42 42 42 42 46 47 51 53 53 55 61 87 89 86 95 86 75 69 71 70 71 70 65 54 62 50 51 46
23 22 29 27 30 32 32 34 37 40 40 49 47 45 43 39 42 46 43 44 44 45 49 53 55 55 48 76 88 93 71 85 91 76 77 74 75 71 66 58 67 55 53 50
25 25 30 29 31 32 34 33 35 42 43 43 35 44 39 34 43 44 44 43 45 44 46 49 49 50 47 48 88 93 96 71 64 93 79 76 75 77 70 66 73 66 68 51
20 26 30 28 29 32 35 37 35 41 39 40 38 38 36 26 28 27 44 42 44 44 44 45 48 48 49 46 50 89 83 74 95 69 79 80 78 75 73 65 74 79 66 69
24 25 30 31 30 32 33 34 36 37 33 35 31 28 29 19 32 24 40 35 42 42 42 44 45 45 47 48 47 51 82 89 76 66 73 78 69 52 64 68 67 67 63 62
27 27 29 30 32 30 29 26 26 26 26 28 22 28 21 19 35 26 32 33 37 39 41 43 42 44 47 48 49 51 52 54 81 81 78 75 81 72 58 53 64 69 69 63
29 28 20 28 34 30 22 30 25 28 25 25 19 20 19 26 32 34 35 35 33 34 37 39 42 41 45 46 48 52 54 57 56 76 73 65 77 78 79 66 52 58 71 64
31 31 23 33 38 37 25 29 31 38 34 32 35 34 31 38 35 33 30 32 34 36 37 39 41 43 43 45 48 50 54 57 58 60 60 61 68 86 86 78 74 65 51 57
33 38 30 26 35 37 33 26 31 34 33 30 28 26 24 34 23 32 31 28 26 31 35 37 40 41 45 47 47 50 50 53 57 60 61 64 58 67 81 84 75 74 67 54
36 40 35 29 30 29 27 29 31 30 35 34 28 20 31 34 24 32 27 24 25 23 27 33 37 42 45 49 52 52 55 55 55 57 61 62 61 61 65 63 68 76 69 64
37 44 44 32 25 33 31 29 31 30 29 30 28 34 30 30 27 31 31 28 31 29 29 30 34 38 44 48 50 55 57 57 60 61 60 63 65 64 65 62 60 59 63 73
45 44 41 36 28 25 31 25 32 35 36 41 37 37 29 42 33 35 32 33 35 32 33 36 38 40 41 43 47 53 58 61 61 65 65 64 65 68 67 67 62 61 59 53
46 45 43 42 36 30 28 21 22 30 35 35 38 34 36 35 31 33 38 39 39 37 38 39 41 39 42 42 42 46 49 54 62 66 69 71 68 68 70 69 66 62 60 54
50 45 41 42 39 37 42 45 42 43 41 39 34 34 36 32 35 37 36 40 37 39 40 43 41 38 39 39 41 46 48 49 54 60 68 74 76 71 71 72 68 66 61 55
42 40 34 34 30 31 32 31 31 29 31 37 40 41 29 34 38 33 38 40 39 45 46 46 44 42 41 41 42 45 50 54 58 57 60 69 79 78 74 73 70 67 63 54
32 28 23 21 15 18 26 19 21 23 26 24 29 29 25 29 30 39 33 41 45 49 49 49 41 43 42 42 44 48 53 58 56 55 56 60 74 85 82 74 74 70 64 53
17 16 17 16 16 21 17 14 15 16 20 19 24 24 23 28 40 39 43 46 48 53 43 41 39 41 41 39 46 48 51 44 44 46 47 51 59 81 86 78 73 69 63 52
9 8 8 8 9 5 7 12 21 15 20 16 28 27 27 27 37 42 41 47 46 44 39 38 39 41 39 42 43 47 46 46 41 46 51 57 57 68 86 81 72 67 61 52
8 8 10 8 7 11 11 11 7 24 21 29 28 29 32 36 41 34 36 38 39 39 39 40 41 40 39 39 42 46 41 36 22 24 42 52 52 49 77 82 71 65 60 52
8 8 10 12 9 10 19 23 21 19 22 23 31 35 36 37 38 35 32 35 34 35 38 39 37 35 38 38 40 39 30 26 25 36 36 42 48 53 64 81 70 62 57 50
8 10 11 10 16 21 23 22 24 27 28 32 32 36 39 41 40 40 43 44 38 42 37 34 28 31 34 35 35 22 24 28 32 25 32 44 53 49 69 75 66 58 55 53
3 9 10 13 14 18 20 24 27 31 33 34 39 38 42 43 38 40 42 40 38 33 28 22 23 24 27 27 19 22 25 23 23 12 14 31 39 49 71 66 59 54 54 52
3 3 8 16 19 22 26 30 35 36 41 39 37 37 32 30 29 28 28 25 28 25 18 8 13 18 21 9 15 16 13 22 28 9 29 38 51 63 63 57 51 49 48 45
9 13 15 17 22 26 32 39 42 47 46 44 37 33 30 28 22 22 19 22 23 20 14 9 13 10 5 5 3 18 20 22 38 41 38 47 50 53 52 49 47 45 44 40
12 17 19 23 29 36 39 44 50 48 45 42 40 36 29 28 25 18 17 18 13 18 15 14 11 7 6 7 15 20 19 35 32 48 47 48 49 48 47 45 44 43 41 37

GFSCGP_500_spd_084.txt.gz
Wind_Speed
24 24 26 27 29 30 32 36 41 40 29 33 38 41 42 46 43 41 45 47 47 45 41 45 49 50 55 59 53 74 84 88 87 70 71 72 77 70 67 68 65 62 59 59
22 23 24 27 28 31 33 33 34 36 43 43 46 51 52 52 50 42 43 44 44 43 39 44 45 47 56 53 54 45 80 79 89 82 79 76 74 78 72 69 61 62 63 63
22 22 25 29 28 31 32 34 35 37 38 38 42 52 52 48 46 46 46 46 48 46 45 44 48 42 53 56 53 47 48 87 82 90 81 83 80 81 73 74 73 66 68 61
22 22 26 28 29 31 33 32 32 36 31 36 33 45 42 39 34 29 42 47 47 45 45 45 46 46 46 52 51 56 52 62 90 86 88 75 78 79 81 81 72 71 66 66
21 25 27 30 28 30 31 33 37 39 41 37 41 36 42 33 34 33 31 37 45 44 47 45 47 46 43 45 50 51 49 56 62 96 97 73 83 76 86 84 85 81 67 71
27 26 30 29 31 33 32 35 35 36 31 35 36 30 35 23 27 30 30 40 48 42 42 46 46 46 44 44 46 48 49 51 54 52 79 94 71 76 86 76 85 74 70 78
28 28 28 31 35 35 30 33 32 32 27 35 25 32 34 22 31 26 34 41 41 36 35 38 41 45 44 46 47 48 48 49 47 50 48 64 89 94 75 67 81 85 74 73
35 32 23 25 29 35 30 29 30 39 38 31 25 35 27 32 17 16 34 40 44 41 35 35 37 40 44 42 43 44 46 48 48 49 46 47 51 60 81 82 70 80 75 62
39 40 29 32 28 32 36 41 39 35 40 44 40 35 33 36 30 33 28 34 34 39 37 36 39 39 37 39 41 42 43 45 48 49 50 49 53 51 54 59 75 80 77 62
34 45 38 38 36 35 40 40 39 39 46 45 39 31 28 29 33 33 37 39 34 35 34 36 38 37 39 38 42 44 43 45 46 47 49 53 53 55 53 53 52 65 68 71
43 42 39 40 36 32 38 37 37 36 36 43 42 39 30 27 30 38 33 31 34 33 31 31 34 38 37 38 42 45 45 45 47 47 49 53 56 57 56 54 54 58 51 52
42 48 49 44 39 33 37 38 46 35 40 41 38 40 29 34 39 31 31 33 35 34 35 35 35 33 33 33 37 42 46 46 49 50 51 52 52 55 57 57 56 57 56 51
44 49 50 50 39 33 35 40 45 47 47 42 42 38 26 36 34 35 33 20 28 30 43 42 44 39 36 36 38 39 41 48 50 53 55 54 54 56 56 57 60 59 58 52
46 50 51 46 39 39 43 45 39 35 45 36 37 36 31 31 40 37 41 37 32 33 41 42 45 47 42 40 41 43 45 47 51 56 55 57 58 61 62 59 59 60 60 57
51 50 48 46 44 35 34 42 42 49 37 33 37 40 40 39 35 40 36 46 33 44 46 44 47 45 44 47 49 49 46 47 48 52 57 57 58 61 66 66 63 61 62 61
46 49 48 45 38 32 30 25 31 33 36 37 36 35 28 23 27 40 45 45 43 44 44 42 47 47 52 53 52 53 52 44 47 47 52 58 58 57 65 69 69 65 64 62
29 26 25 20 18 19 19 16 8 16 20 22 28 29 26 25 34 39 32 44 48 47 44 46 51 49 50 50 52 48 46 48 50 50 50 54 60 61 62 67 71 72 67 62
11 13 11 11 12 13 12 11 21 24 22 28 28 27 31 32 29 27 25 31 34 45 50 50 50 53 52 54 51 47 45 48 50 50 54 56 59 62 59 63 69 75 71 65
14 13 13 11 7 3 9 13 15 21 17 15 25 28 31 29 33 31 32 42 43 44 47 46 48 51 50 49 44 44 45 48 50 53 56 57 55 56 56 60 64 72 78 68
11 10 10 10 8 9 12 18 20 21 18 20 23 26 31 34 37 37 36 42 46 50 47 46 45 44 44 40 43 44 47 47 53 56 56 54 51 55 60 58 55 65 80 70
9 11 10 11 13 10 16 21 21 23 24 24 30 33 36 40 39 42 41 46 48 50 47 49 49 45 42 38 37 42 43 46 50 54 49 45 43 40 48 57 58 56 79 72
9 10 12 13 15 17 19 22 24 25 25 29 32 35 40 42 45 46 49 47 46 48 46 47 41 37 31 36 41 41 44 43 45 46 49 41 42 45 50 46 48 56 78 72
8 8 9 10 14 18 22 23 29 33 36 37 40 38 41 41 38 37 36 36 39 38 35 29 28 23 28 32 37 34 37 42 31 33 34 42 55 41 45 47 54 54 78 69
5 7 12 16 20 21 25 31 35 40 46 47 44 42 37 35 31 32 32 30 30 28 25 20 18 14 21 30 29 36 27 21 27 18 14 15 24 40 42 53 52 66 72 61
7 10 13 19 23 24 30 39 46 46 41 39 40 42 39 33 30 31 26 24 22 21 17 17 10 13 19 18 22 14 9 20 21 15 14 16 27 30 40 50 69 70 60 54
11 18 22 25 30 37 39 39 40 37 35 37 40 35 28 26 26 27 22 20 17 14 19 12 10 10 10 10 3 4 15 29 19 27 35 40 47 55 63 66 64 59 53 48

GFSCGP_500_spd_087.txt.gz
Wind_Speed
22 23 23 25 28 29 32 35 38 36 38 36 39 37 41 43 50 47 47 46 49 50 49 53 54 39 43 48 43 39 48 64 70 86 83 80 89 76 84 67 67 71 65 59
21 19 22 26 27 29 30 33 34 33 32 33 44 47 47 48 48 51 49 45 43 43 44 51 52 44 41 45 45 39 50 59 64 63 86 90 90 71 87 75 69 69 66 67
23 20 24 26 28 29 29 32 34 37 36 40 39 50 53 54 56 57 54 52 45 46 48 52 54 47 40 42 43 44 43 54 58 66 58 88 87 82 68 74 71 77 74 71
26 23 26 27 30 31 32 29 35 39 42 44 39 49 45 45 49 50 47 43 44 43 48 49 51 49 44 40 43 42 43 49 52 55 57 56 74 92 77 59 82 78 78 70
22 27 28 31 29 31 36 30 34 38 43 45 41 42 45 38 40 31 25 32 38 37 37 43 49 52 48 43 41 39 44 47 51 52 53 56 53 64 88 88 67 86 81 74
28 28 31 32 33 29 29 36 42 41 39 48 37 28 41 25 23 30 26 28 30 37 40 43 40 38 45 47 44 42 42 48 52 54 54 56 55 51 60 80 95 74 74 77
32 31 30 31 36 33 31 32 42 46 46 50 36 33 40 27 32 32 36 35 34 45 49 46 39 34 37 43 44 46 43 46 49 51 50 53 56 53 56 56 79 85 70 68
41 39 32 26 26 27 37 39 35 48 50 48 43 49 41 32 33 30 33 22 27 35 47 50 38 36 37 39 45 46 45 43 48 48 50 51 53 53 54 55 50 78 78 79
45 45 37 35 34 36 39 39 44 43 50 49 48 44 39 32 35 42 43 21 25 35 35 38 42 45 41 38 36 41 44 45 47 51 50 51 52 53 51 50 48 50 68 76
45 48 40 35 35 38 44 42 40 42 51 51 49 53 47 42 38 31 33 34 28 33 35 38 39 38 38 38 37 37 40 40 42 47 46 48 51 53 53 53 49 45 44 55
46 50 46 41 40 38 36 47 51 49 53 55 60 48 50 33 38 38 39 36 38 32 40 40 35 35 36 39 39 37 40 41 39 40 43 42 46 50 52 53 51 48 50 42
35 44 45 44 43 48 41 41 40 46 48 46 47 53 48 30 31 33 37 37 34 37 40 37 39 39 38 36 35 33 36 40 39 40 43 44 44 46 46 49 53 52 51 47
36 40 46 47 45 42 41 42 46 49 54 54 52 52 43 33 38 35 38 40 34 38 37 36 41 33 38 40 39 40 39 40 39 40 40 43 45 46 46 48 49 50 51 50
39 43 46 50 52 49 45 41 36 46 54 40 35 52 43 39 32 32 32 45 35 41 32 31 38 27 30 38 36 42 46 46 47 45 45 42 46 47 50 52 53 51 50 51
42 46 47 49 46 41 44 42 45 40 45 54 50 33 29 26 34 36 38 40 42 44 39 31 41 45 24 48 46 47 48 45 49 50 52 52 50 51 51 52 57 57 54 53
42 45 40 33 30 35 37 25 18 20 27 37 48 53 37 41 34 37 37 34 42 46 47 46 37 54 51 55 51 51 47 45 51 50 53 57 56 58 55 50 56 61 60 59
35 26 19 13 17 17 7 11 14 20 13 15 22 25 27 29 31 34 34 33 38 42 46 53 55 55 58 60 56 51 46 52 53 51 52 54 56 56 57 56 54 56 63 65
16 15 15 10 10 5 8 16 15 19 18 19 24 27 29 30 34 36 35 42 32 35 34 40 42 43 44 46 45 48 53 58 58 60 52 49 53 56 55 56 58 57 59 65
13 12 11 13 10 9 11 11 13 15 15 23 24 22 25 30 28 31 32 34 38 40 38 37 44 51 52 48 52 55 55 58 56 53 52 52 52 54 57 59 55 53 54 60
13 12 10 11 11 11 13 14 18 21 17 20 23 23 26 29 33 31 34 37 41 45 46 44 44 49 51 49 53 56 56 52 50 49 54 56 59 59 60 63 60 51 52 57
11 12 11 12 16 13 17 19 19 21 24 27 30 32 35 38 41 40 39 41 46 48 48 51 53 51 51 53 51 46 46 47 49 49 52 55 57 58 60 61 61 53 51 57
12 11 11 12 16 17 18 24 30 30 30 35 35 39 41 43 44 46 44 40 41 44 47 48 47 48 49 49 50 43 43 46 49 51 57 63 66 66 62 57 54 46 44 54
10 12 10 11 15 25 28 31 33 38 40 39 44 44 43 40 38 38 38 38 37 34 33 29 32 31 30 32 35 36 39 44 51 57 59 56 49 50 49 45 41 42 52 47
10 10 10 16 21 25 30 35 39 44 50 51 49 44 41 36 35 32 33 33 33 29 26 27 25 26 24 28 29 34 39 39 36 35 36 41 42 41 46 53 53 42 42 41
7 9 15 20 26 27 33 40 47 47 46 43 39 39 38 36 33 32 25 27 23 18 24 23 20 20 19 20 27 29 22 20 20 27 28 20 29 32 39 39 53 32 42 45
6 13 16 22 28 34 31 33 35 35 35 35 36 36 32 33 30 29 20 19 14 22 21 19 19 13 15 20 19 9 12 13 13 16 13 5 10 13 16 33 37 37 45 60

GFSCGP_500_spd_090.txt.gz
Wind_Speed
21 21 22 26 28 28 30 33 35 34 36 38 40 39 38 40 43 42 44 46 45 48 52 54 52 53 53 48 42 42 43 44 47 55 60 69 69 73 74 77 60 63 87 73
22 20 24 26 28 29 30 32 31 31 31 35 37 41 40 40 45 48 47 46 47 44 44 43 44 44 46 46 41 43 45 48 49 47 58 64 64 76 77 80 82 70 59 65
24 24 26 28 29 32 31 32 30 33 32 35 41 43 37 40 44 52 53 51 50 50 46 47 50 51 48 46 41 46 48 47 48 53 52 58 67 65 66 80 86 86 78 73
23 25 28 31 31 33 32 33 35 34 39 41 40 44 36 32 37 54 58 58 60 63 59 55 56 54 53 51 44 46 48 49 49 48 55 54 57 63 65 57 64 80 86 89
25 27 30 31 29 32 38 37 39 40 41 43 45 46 42 36 38 36 40 51 55 58 59 60 51 45 46 50 51 46 50 50 50 46 48 54 54 56 63 64 62 58 78 79
28 32 35 34 34 35 36 39 41 43 46 53 47 47 48 35 33 34 34 40 40 45 46 51 45 45 46 46 45 44 48 49 49 49 49 51 53 54 53 60 57 59 56 51
32 29 32 35 37 36 38 42 47 50 49 54 45 53 52 41 35 37 33 36 40 38 37 36 46 42 39 41 35 38 43 48 47 48 52 53 53 54 51 52 53 54 56 51
40 35 32 32 35 40 40 40 42 51 51 53 51 57 47 44 38 36 36 34 42 40 36 42 45 40 40 40 34 32 32 38 44 47 51 55 53 52 52 51 53 55 53 49
47 47 45 37 36 38 41 44 43 50 50 60 60 57 48 40 48 40 38 37 40 41 46 43 46 43 46 51 43 40 42 42 40 43 49 52 54 54 53 52 51 52 53 48
49 50 48 43 40 38 41 45 47 50 57 61 61 57 48 45 51 47 44 39 43 41 39 36 35 30 41 45 37 44 46 40 40 40 41 46 49 52 53 52 52 52 52 51
47 49 52 44 42 40 39 48 45 44 50 61 63 64 61 54 41 46 40 39 38 41 40 37 40 40 32 32 37 39 33 32 32 33 34 40 46 50 52 52 52 52 52 52
44 45 45 44 41 40 37 40 42 47 53 55 53 56 41 39 41 34 34 38 35 35 36 35 38 41 41 40 40 42 38 36 33 33 31 33 36 39 43 45 49 50 50 50
39 39 44 41 39 40 44 47 49 50 52 52 54 57 51 54 54 53 37 41 40 39 40 42 39 42 47 45 47 38 44 43 38 39 33 32 34 33 34 41 46 48 48 48
34 40 41 40 40 45 48 44 43 46 54 50 50 49 41 39 26 33 28 38 36 36 34 40 45 42 42 48 40 40 39 47 38 39 41 41 43 42 38 39 38 46 50 48
38 40 37 35 41 47 47 42 39 38 37 38 38 43 36 39 38 24 26 33 31 35 37 30 34 38 31 38 40 40 40 43 32 38 43 44 47 50 49 46 43 40 47 50
35 33 36 37 35 28 26 27 29 24 21 22 32 32 27 25 28 31 40 42 33 37 40 37 39 38 44 45 49 48 45 46 54 51 50 46 51 54 55 53 52 50 46 51
25 32 33 20 22 15 18 19 14 15 16 25 24 21 21 21 26 25 31 37 45 45 45 48 49 44 44 45 46 52 54 54 51 53 52 49 49 52 52 52 55 55 54 53
26 26 19 15 19 15 19 14 13 14 19 22 24 21 23 25 25 26 31 31 37 39 41 43 44 41 40 42 46 48 49 54 57 55 55 55 55 56 55 53 57 59 54 53
18 16 17 16 15 13 15 18 18 18 19 24 26 25 22 22 23 22 28 34 35 37 42 44 42 47 49 48 48 49 50 51 52 54 56 58 59 57 57 55 55 55 53 56
18 16 15 14 12 13 14 15 18 22 23 25 21 23 34 31 34 28 34 38 39 41 44 47 49 51 49 50 54 53 53 57 60 62 64 65 63 61 60 56 56 52 51 50
16 14 14 15 16 17 17 20 22 26 30 34 37 39 40 42 45 43 41 42 45 46 47 51 51 47 49 51 54 57 56 55 57 61 62 62 60 61 60 59 60 61 56 53
12 14 14 14 17 18 20 23 29 32 35 40 41 43 46 46 45 46 46 44 41 41 43 44 49 52 53 55 55 50 48 48 51 52 53 54 55 57 58 59 61 64 62 57
13 13 14 14 17 22 27 33 36 40 44 45 47 47 45 42 41 39 37 35 34 37 34 33 33 36 35 37 39 40 38 41 42 43 46 51 56 61 65 64 57 62 59 61
13 13 12 14 19 24 32 38 40 44 50 49 44 43 42 43 40 38 36 34 33 30 28 30 31 28 25 30 33 31 29 34 43 43 40 30 26 30 36 39 40 48 47 44
11 11 10 14 19 21 30 34 42 43 44 40 36 37 38 43 35 35 33 30 29 24 27 26 23 23 25 26 24 26 31 15 21 30 28 33 42 37 40 43 47 53 45 41
9 9 9 13 20 29 27 31 33 34 34 31 31 34 37 31 30 26 24 26 25 26 22 20 21 21 19 19 23 25 19 18 21 27 31 26 23 26 38 44 50 44 41 35

GFSCGP_500_spd_093.txt.gz
Wind_Speed
22 21 22 27 27 28 29 32 32 31 32 37 39 41 39 40 41 41 42 42 43 44 50 55 59 60 62 64 58 54 49 44 45 51 51 51 51 53 64 71 63 49 59 66
24 23 29 29 29 30 30 32 30 30 31 37 35 38 39 39 41 42 45 45 45 47 47 46 48 53 57 57 56 54 51 48 47 53 55 54 55 53 53 66 70 68 62 67
26 26 30 31 32 34 32 35 34 36 34 39 40 42 35 36 38 39 40 42 43 42 42 43 45 47 48 47 45 48 50 48 46 52 54 56 54 54 52 57 67 72 75 74
24 30 31 33 31 35 36 35 40 41 42 42 41 47 38 35 33 36 37 40 44 42 44 46 45 48 50 50 50 50 50 48 50 47 51 55 56 54 54 55 57 63 69 72
29 32 36 35 33 35 39 37 41 43 47 48 46 48 47 40 33 32 35 39 39 43 46 50 47 46 50 53 56 54 51 51 56 55 51 52 54 53 53 59 59 59 64 71
30 36 37 38 39 38 40 44 45 46 48 56 47 49 54 45 39 34 35 36 40 44 44 45 46 50 51 54 57 58 53 55 56 58 50 54 57 55 53 55 60 60 59 64
38 35 37 41 43 37 41 44 46 50 50 56 51 56 57 50 40 38 38 40 41 44 44 37 39 40 40 46 48 57 53 49 48 45 48 52 57 59 56 55 58 62 58 54
43 41 33 35 38 37 35 38 42 51 54 56 52 57 53 50 47 47 42 41 41 43 43 39 35 37 38 39 46 50 48 37 38 41 36 38 52 58 59 58 57 57 57 51
49 49 45 41 36 36 38 41 46 50 51 56 56 56 54 56 58 53 47 44 47 44 49 46 37 37 41 38 48 52 45 44 41 39 43 36 40 54 59 59 57 53 50 49
50 53 49 48 47 42 44 48 51 50 56 60 57 57 57 59 58 54 54 55 58 58 53 42 40 36 33 34 52 56 49 47 46 43 43 42 39 43 56 60 59 57 55 52
51 54 54 53 50 46 51 54 50 50 55 58 60 59 59 56 54 54 54 55 43 39 40 40 41 36 35 33 31 52 55 52 48 48 45 45 44 42 45 56 58 56 55 53
44 47 49 47 45 45 44 44 44 44 45 48 52 60 56 52 53 51 50 46 45 43 43 40 37 38 32 30 33 32 49 50 45 45 43 36 37 40 41 43 47 48 47 48
42 45 44 43 42 43 43 42 42 46 49 53 55 61 53 49 48 50 46 45 56 50 39 44 38 37 37 32 32 35 37 42 46 43 41 38 36 33 36 37 40 46 44 45
43 42 40 44 43 39 39 39 41 46 52 53 55 52 42 44 41 39 44 39 34 35 34 40 40 44 40 35 38 35 40 44 45 45 46 42 41 40 39 35 33 35 38 42
41 42 42 41 38 41 41 39 42 39 37 41 28 21 22 26 28 26 28 31 29 27 35 41 43 47 37 32 33 41 38 40 38 43 49 42 40 44 44 42 41 43 42 42
38 37 37 34 35 34 35 36 33 31 27 20 15 19 24 25 25 22 22 24 32 38 36 32 34 35 40 38 33 34 40 38 40 43 42 37 39 45 38 42 46 47 48 50
32 34 34 25 29 29 27 26 26 23 21 20 19 18 24 23 23 23 27 29 27 32 39 39 40 42 45 45 46 44 44 49 53 51 51 52 47 58 60 54 52 54 55 57
26 22 21 22 21 25 24 24 25 24 21 20 22 24 27 29 26 24 22 24 27 30 33 35 39 43 48 51 50 53 49 50 54 54 54 56 57 60 64 63 58 51 50 51
17 18 18 18 18 20 20 19 23 25 24 24 26 29 32 33 28 22 34 37 36 34 35 38 39 39 43 52 54 51 51 51 49 51 56 58 60 61 61 60 56 53 52 51
14 16 21 20 19 16 16 20 24 26 27 29 33 34 37 41 44 38 45 44 43 45 46 46 46 46 44 44 49 52 54 54 54 53 53 54 57 60 58 57 57 56 56 52
22 23 21 21 18 17 18 21 23 27 31 34 39 43 46 48 50 52 48 48 51 52 52 54 54 52 50 50 51 52 53 52 52 53 54 56 57 59 60 61 63 63 61 59
24 22 14 18 18 19 16 22 28 32 35 43 46 47 45 43 44 45 43 41 44 47 48 51 52 50 50 50 48 43 41 43 47 51 53 55 57 58 59 60 61 64 65 63
18 17 16 15 17 18 22 28 32 38 43 44 47 43 42 38 38 37 35 35 36 39 40 39 38 40 41 41 38 33 34 38 39 41 41 42 46 51 56 59 59 60 62 62
13 14 12 12 13 18 23 32 35 40 45 49 51 50 46 38 36 35 36 40 35 33 37 36 32 28 26 28 30 30 30 31 29 36 41 48 44 44 46 37 45 51 63 70
11 10 8 9 13 17 28 36 42 42 42 40 37 35 36 34 36 37 35 33 30 29 29 29 24 22 23 25 25 23 23 30 29 30 31 41 36 32 38 42 45 45 44 42
10 8 5 9 14 19 27 36 42 39 34 29 31 36 33 36 28 27 23 20 21 25 26 20 18 19 19 18 17 27 29 21 20 29 31 30 34 41 38 39 46 50 44 37

GFSCGP_500_spd_096.txt.gz
Wind_Speed
22 20 20 27 28 28 29 29 29 28 27 36 32 34 36 37 37 39 44 45 44 43 42 44 48 51 54 56 58 58 59 53 50 50 49 50 53 52 56 56 57 60 76 75
25 23 30 29 28 30 31 31 28 29 29 40 31 35 34 34 33 34 36 38 39 41 45 47 47 47 48 50 50 54 56 57 54 52 51 55 55 58 55 59 59 57 60 63
26 27 32 31 32 32 33 33 34 38 35 41 39 43 34 36 36 35 37 36 37 39 39 41 44 45 48 51 51 51 50 48 49 49 48 51 57 60 62 58 59 56 56 59
26 32 33 36 32 36 37 35 41 40 43 43 41 52 37 35 38 36 36 39 41 43 42 41 42 44 45 46 48 50 51 50 48 45 46 46 55 61 62 62 62 61 57 57
31 32 36 36 36 39 39 40 43 46 48 51 47 48 51 41 38 32 34 41 45 45 45 46 46 46 45 45 47 48 50 51 52 53 52 53 52 56 61 62 63 62 59 56
32 37 38 37 39 41 43 44 46 48 50 55 48 49 54 48 43 37 36 41 46 46 46 46 44 47 48 47 46 47 48 49 52 54 54 54 55 57 55 53 60 62 61 61
32 33 36 39 41 38 42 43 47 50 50 53 47 54 54 51 46 44 43 40 40 43 46 46 48 44 45 47 48 49 48 54 57 61 61 59 59 60 58 52 59 63 59 59
41 40 37 39 42 44 40 40 45 51 52 51 50 56 52 52 49 47 45 44 43 44 48 48 47 48 43 42 46 45 46 52 54 52 53 54 53 51 50 52 58 61 61 58
44 42 41 39 41 43 41 40 41 48 51 54 53 55 56 54 53 53 51 51 51 51 48 50 48 47 49 46 44 48 50 51 43 41 50 46 47 47 48 51 54 59 61 61
47 51 49 43 46 47 46 48 49 49 52 57 53 54 52 53 55 54 52 52 52 53 53 51 51 51 53 57 50 45 43 41 40 47 49 49 48 52 51 48 45 51 58 62
44 47 48 46 41 43 43 47 50 51 56 58 57 56 53 54 52 52 55 58 60 63 60 57 55 54 51 46 45 40 35 34 47 55 54 56 55 51 45 48 47 46 46 52
42 45 46 43 41 42 41 40 43 46 48 49 51 54 50 52 52 56 56 56 56 54 50 52 47 38 39 40 44 35 33 35 33 47 60 61 59 56 48 45 46 44 43 43
39 42 44 45 44 44 44 44 42 40 41 47 49 51 52 48 50 48 50 41 36 39 42 42 41 51 47 40 42 38 36 37 42 44 45 52 58 60 42 39 37 43 45 42
37 37 37 40 42 43 45 44 40 41 48 46 49 47 41 43 40 30 28 30 34 36 33 34 40 43 44 43 46 40 36 36 38 39 38 39 46 41 41 42 39 36 41 46
36 40 39 40 40 41 42 41 41 44 41 44 35 39 33 26 24 26 29 30 28 29 26 28 31 32 33 40 39 45 39 37 40 42 38 39 44 41 41 44 42 40 41 41
37 38 39 36 37 37 37 36 35 31 30 32 31 26 23 23 20 21 24 27 28 31 29 30 34 30 33 46 51 47 44 40 41 40 39 39 46 46 49 44 45 46 44 43
33 33 34 30 34 35 30 25 27 30 29 28 27 25 24 26 28 28 30 34 34 29 27 25 31 36 39 34 34 42 44 47 42 40 37 38 39 42 42 47 43 46 47 47
28 28 27 21 24 22 22 22 24 24 25 25 26 27 28 30 31 30 34 40 34 33 29 30 31 31 37 41 46 47 48 50 49 48 49 49 46 45 46 50 48 48 51 49
24 22 19 15 17 20 21 23 22 23 19 26 28 30 32 37 41 32 41 46 47 48 47 48 44 41 39 38 39 41 44 57 57 57 59 55 58 58 58 57 55 56 54 59
17 15 16 20 23 21 19 23 22 24 22 27 31 35 38 42 46 45 44 49 51 53 55 56 51 46 45 44 47 48 45 43 50 59 58 53 52 54 56 58 63 62 61 62
16 18 22 24 27 19 19 21 21 23 29 34 40 45 49 50 48 46 44 41 43 48 50 50 46 43 42 42 40 38 39 43 46 51 54 55 54 52 55 58 59 61 62 64
26 26 28 31 25 19 17 19 22 26 32 39 44 47 48 45 42 41 40 39 38 36 35 36 39 41 38 37 38 36 36 39 40 43 45 48 51 55 56 55 54 57 60 62
23 26 25 22 18 18 16 19 25 32 38 44 48 48 41 34 36 39 37 36 39 37 34 37 39 36 34 34 34 32 32 32 33 35 37 39 44 48 55 60 62 64 65 67
20 19 14 12 13 12 18 23 28 36 46 52 49 38 38 44 42 39 38 37 36 40 38 36 34 32 28 31 31 27 27 28 31 33 36 38 41 45 48 51 53 56 57 58
16 11 10 9 7 10 19 26 32 37 47 41 36 34 39 40 36 31 27 26 24 21 24 23 23 23 24 25 25 26 26 26 27 30 36 42 47 47 47 50 57 57 55 54
11 9 6 5 7 13 20 27 35 44 36 31 31 31 33 33 30 25 18 18 13 9 9 15 18 16 20 23 21 18 27 25 20 23 26 27 23 33 33 36 36 37 44 41

GFSCGP_500_spd_099.txt.gz
Wind_Speed
23 22 22 27 28 28 28 27 26 26 29 34 31 33 32 32 31 32 36 41 45 45 44 43 43 47 50 51 53 54 58 58 53 45 45 43 50 53 55 56 55 57 55 55
23 21 26 28 26 27 29 28 29 29 32 39 34 35 35 33 31 32 31 31 33 38 43 47 49 50 52 52 52 52 51 51 52 53 48 48 47 48 51 56 59 58 57 59
26 27 31 30 31 31 32 30 34 36 36 41 40 40 37 34 36 35 32 32 34 36 37 41 44 45 49 50 51 52 53 51 51 53 53 52 51 51 53 56 57 58 60 60
27 33 31 32 30 35 33 36 38 38 39 40 43 49 36 34 38 36 32 36 39 41 44 45 43 42 42 43 46 48 51 54 56 56 56 56 51 50 50 49 54 58 59 59
29 30 33 32 33 38 33 36 38 40 42 45 41 44 45 37 38 35 38 41 45 49 49 48 46 44 44 46 48 50 51 53 55 56 57 58 56 54 51 48 52 58 62 62
29 33 35 34 38 39 38 38 41 43 44 49 43 45 48 46 37 34 36 40 45 49 51 52 49 47 46 49 51 53 55 53 54 55 57 57 57 56 53 53 54 57 61 66
33 32 34 36 36 35 37 40 45 48 48 51 47 50 51 47 45 44 40 37 40 45 50 53 53 52 50 49 50 52 55 56 56 58 56 55 56 57 56 54 54 56 59 62
36 32 32 34 40 42 41 39 42 51 50 49 47 49 45 45 45 47 47 47 43 40 42 46 51 54 53 54 53 54 53 54 56 56 54 55 59 60 61 59 53 58 55 52
36 36 35 38 39 40 41 42 42 50 50 54 52 51 49 45 46 48 49 49 46 45 44 42 44 50 54 56 58 58 56 56 56 53 49 57 59 60 58 58 55 56 56 55
38 43 41 41 41 40 42 45 46 46 49 52 51 52 52 51 52 50 48 47 47 48 48 49 50 51 53 55 55 56 58 58 58 56 52 55 57 60 55 56 55 58 56 54
42 44 42 41 34 38 42 45 45 47 51 52 51 52 53 53 51 48 46 46 49 51 53 53 54 55 55 54 54 53 60 62 58 57 58 54 53 47 53 58 58 55 58 50
37 41 41 38 37 39 38 38 41 44 46 47 48 50 48 50 46 47 47 48 50 48 48 46 41 40 46 49 48 44 49 52 50 51 53 54 54 55 54 62 56 57 51 49
36 40 41 40 36 36 36 35 39 40 41 42 43 46 42 46 48 48 47 45 45 43 33 33 35 35 40 47 41 38 42 42 42 45 47 46 50 56 59 58 59 59 52 52
37 39 38 38 38 40 39 38 38 39 42 40 45 40 42 46 44 42 43 41 34 30 32 32 30 32 35 38 38 37 48 44 42 43 46 50 45 42 57 67 71 57 58 57
36 39 38 38 38 40 41 39 36 38 39 46 39 43 34 35 35 34 32 29 28 30 29 32 33 33 34 35 35 42 42 42 45 39 44 44 45 42 39 37 47 57 58 44
33 34 38 38 37 37 36 34 34 33 32 34 32 27 30 31 30 31 32 33 32 31 30 32 36 36 33 35 34 34 33 35 39 41 42 40 44 42 40 39 37 37 39 40
29 30 34 31 33 30 26 25 26 25 24 25 24 25 25 26 28 29 32 36 40 39 38 37 36 34 31 29 28 32 34 37 46 46 46 46 44 45 44 46 44 42 44 44
26 28 29 20 26 21 18 17 20 21 21 21 20 23 27 29 29 30 36 41 42 45 47 46 46 43 39 36 36 34 34 37 39 47 42 47 50 47 44 43 42 46 49 47
24 25 21 17 16 13 15 21 21 20 16 23 24 28 32 36 39 38 44 47 48 51 51 51 51 50 47 44 41 44 42 40 41 45 49 52 48 53 50 48 46 44 46 48
18 17 16 14 15 16 19 24 20 20 16 19 24 31 37 42 45 43 45 42 42 44 45 45 42 41 43 42 39 40 45 49 48 45 45 48 52 59 58 56 57 53 56 57
13 17 17 17 19 22 24 23 19 18 19 24 31 38 44 46 44 36 36 33 31 33 39 41 36 33 35 31 29 29 34 38 40 45 51 51 51 51 61 63 62 62 61 62
19 19 19 22 26 28 26 19 18 18 23 32 38 43 41 38 38 37 38 41 43 42 37 36 37 34 32 31 35 34 27 29 34 40 44 48 51 53 55 60 63 65 64 63
26 28 31 31 27 21 13 13 16 22 29 36 40 40 41 43 41 41 40 39 37 34 34 36 34 32 32 36 37 32 27 27 30 32 36 40 45 50 55 59 61 65 67 68
16 18 21 19 13 8 10 12 18 26 36 41 38 41 40 38 37 37 36 31 25 24 25 28 31 33 34 35 34 29 27 29 28 27 30 34 38 42 46 51 54 59 63 66
18 15 12 9 6 5 11 15 21 30 38 37 34 37 36 34 32 28 25 24 22 21 16 14 17 17 17 23 26 25 26 27 26 28 31 36 41 44 47 51 52 53 54 55
17 9 8 8 4 5 12 17 24 31 36 31 31 29 30 25 21 20 27 21 19 13 10 8 10 13 15 17 21 25 29 27 23 20 19 20 30 35 34 34 32 36 45 47

GFSCGP_500_spd_102.txt.gz
Wind_Speed
29 32 32 35 38 38 37 35 33 30 32 35 34 35 34 31 34 34 35 38 38 40 44 47 47 47 48 49 50 51 53 53 54 52 49 50 50 46 52 54 53 55 55 57
23 24 27 29 29 29 28 27 28 29 34 38 33 35 35 32 31 33 33 33 33 36 39 41 45 49 51 52 53 52 53 53 55 57 56 52 51 48 49 52 56 57 57 58
27 29 29 29 30 31 30 31 34 35 37 39 35 39 37 34 34 36 35 34 37 39 41 43 43 44 44 45 49 52 53 54 54 54 54 54 52 51 52 54 55 56 56 59
30 31 32 33 32 35 33 36 37 37 36 39 42 43 37 36 40 35 36 38 40 44 47 46 48 48 46 46 47 49 51 51 54 56 56 57 56 55 54 53 53 54 56 56
32 34 34 32 34 37 30 38 36 37 38 40 40 45 42 40 39 35 39 42 47 46 50 51 51 51 50 49 50 51 50 52 54 55 57 58 58 58 57 56 55 54 56 55
30 32 30 31 36 37 36 36 38 40 42 45 39 43 43 41 38 31 35 39 44 47 50 52 54 55 55 53 52 55 57 57 57 58 59 60 60 59 60 60 59 57 56 55
31 33 32 34 37 37 38 38 40 39 35 40 34 41 42 42 37 35 32 41 45 45 49 51 53 55 57 56 55 55 58 61 62 61 61 62 61 62 61 62 61 61 59 59
37 33 38 39 38 37 37 36 37 42 40 40 37 43 40 51 46 41 44 39 41 43 45 47 50 53 56 57 56 56 57 59 63 65 65 64 62 61 60 61 62 61 63 58
35 34 38 36 34 35 35 39 38 47 47 52 47 47 47 45 47 45 41 41 44 43 45 45 45 47 50 55 58 58 57 58 59 61 64 65 65 62 59 59 61 62 63 65
33 38 35 36 38 36 38 40 44 43 48 49 46 37 35 46 50 53 46 45 45 45 43 44 44 44 46 49 52 55 57 59 61 63 64 65 66 65 62 62 64 66 65 66
40 44 40 42 40 39 38 42 40 42 44 47 47 40 42 45 50 50 51 50 48 46 46 46 47 49 48 49 50 52 56 60 64 65 67 67 65 65 61 62 61 64 66 63
36 38 37 36 35 37 37 37 37 41 42 43 46 47 43 50 50 47 48 49 49 47 48 49 49 48 48 50 48 48 47 50 52 57 63 68 66 69 67 61 60 61 64 65
36 40 42 41 37 37 38 36 37 38 42 41 43 43 45 44 45 47 47 48 50 48 45 44 46 45 40 38 38 38 37 36 41 45 51 58 61 60 60 56 64 64 63 62
39 39 41 41 40 40 40 37 37 40 45 42 44 41 38 42 46 47 46 49 48 45 43 40 37 36 36 35 36 35 35 36 36 36 45 47 51 49 51 54 62 68 64 60
37 39 37 37 37 38 40 37 37 41 40 42 39 39 38 41 44 51 44 40 41 41 41 39 35 34 36 36 39 42 39 38 38 39 43 55 50 47 45 48 57 61 62 59
31 30 30 30 32 35 35 35 36 35 34 36 33 32 33 38 37 37 35 36 38 39 41 43 42 41 41 40 39 38 39 36 37 36 38 46 47 42 45 45 45 54 58 41
26 27 28 28 30 31 28 28 28 26 25 24 23 25 27 29 30 30 31 36 39 40 39 42 44 47 49 50 47 43 40 37 33 36 35 35 44 42 44 45 49 57 46 40
23 25 27 26 28 26 23 20 16 17 21 22 22 24 26 27 29 30 34 42 45 47 47 49 49 50 49 47 45 44 44 43 41 37 34 35 39 41 43 44 45 48 50 48
20 20 22 22 21 19 14 14 15 18 18 20 20 21 24 29 34 34 44 50 54 55 54 53 50 50 47 45 45 40 38 41 45 44 41 40 41 45 50 49 50 51 49 48
17 18 19 18 17 15 14 17 19 23 17 16 19 23 29 36 42 44 47 45 43 44 44 44 45 43 39 36 36 35 32 34 39 45 46 47 45 46 46 47 47 48 50 53
16 17 14 16 19 19 16 22 25 19 15 16 21 28 36 39 40 40 41 41 42 42 43 45 45 44 41 40 38 32 28 28 30 34 43 46 52 52 49 53 56 57 57 56
17 13 12 19 19 21 22 23 19 11 15 21 27 34 33 36 38 39 38 37 39 39 38 38 40 42 44 42 38 37 34 33 32 30 35 41 46 50 56 59 59 57 57 61
18 22 23 22 21 23 24 18 9 12 17 24 30 30 34 36 37 36 33 27 23 25 26 26 26 29 34 38 35 35 37 37 37 33 31 36 40 44 49 51 55 61 60 60
16 19 23 28 28 25 15 9 10 16 21 26 31 33 33 32 32 28 19 22 22 25 26 22 23 22 25 31 34 36 37 37 32 33 33 35 38 41 45 48 52 56 58 58
16 13 16 17 14 12 10 8 12 17 25 29 34 32 33 36 36 29 16 19 27 26 28 24 17 12 14 21 26 26 26 28 28 30 31 33 38 39 42 46 48 50 53 57
17 15 13 12 11 11 8 10 13 19 26 31 33 31 30 29 33 34 36 35 34 31 26 21 16 12 15 16 20 22 27 28 24 26 25 29 34 35 38 46 49 47 49 55

GFSCGP_500_spd_105.txt.gz
Wind_Speed
27 28 27 28 30 30 34 34 31 29 35 42 40 41 42 44 44 44 43 44 44 44 44 47 48 50 49 52 52 49 49 50 50 51 51 50 52 50 50 49 48 46 45 49
31 31 32 35 39 39 38 38 37 36 39 43 41 37 37 38 34 34 34 35 33 34 37 40 43 44 45 46 47 50 51 52 53 53 52 52 53 52 53 54 54 51 53 52
27 25 32 32 33 32 31 32 31 36 36 40 34 36 35 36 34 35 37 33 35 38 39 43 47 46 46 45 44 47 48 49 51 52 53 53 55 54 55 55 53 51 51 53
32 30 33 30 32 33 33 31 36 38 36 39 36 40 34 37 36 39 39 37 39 41 46 50 52 49 49 51 49 48 49 50 50 51 52 53 55 56 56 56 55 53 53 56
28 33 35 34 32 37 35 36 39 38 37 40 41 44 38 36 39 39 41 39 41 46 54 50 50 52 52 53 54 53 53 53 53 54 54 55 56 57 56 58 58 58 57 56
34 38 39 33 38 41 35 39 38 39 39 45 39 42 37 31 32 32 37 40 45 54 50 50 54 54 56 57 57 58 57 54 57 58 59 60 60 59 60 60 59 59 60 58
35 37 38 38 38 38 36 36 37 37 33 41 28 31 29 26 37 41 35 36 48 50 43 51 51 52 55 56 57 58 59 59 60 62 64 64 64 65 65 64 61 60 60 60
42 41 39 36 40 38 36 32 33 38 34 34 32 36 32 30 42 48 45 41 45 48 46 45 49 52 52 56 57 58 59 60 60 61 65 67 68 68 68 68 65 63 62 62
26 29 34 36 39 41 37 38 32 45 46 47 41 40 36 29 32 45 49 45 33 39 40 45 49 51 53 54 57 59 62 62 63 63 64 65 67 70 70 68 68 66 64 66
24 27 28 32 36 36 39 38 38 39 44 44 34 24 18 28 34 41 51 51 51 44 42 43 47 50 53 53 54 59 61 61 62 63 62 63 65 66 67 68 68 65 65 66
24 27 25 31 35 38 41 46 44 43 48 49 48 40 30 40 46 44 48 50 54 57 52 47 44 49 52 52 53 55 57 59 59 65 62 64 65 65 67 68 68 69 69 69
30 30 32 29 33 35 39 38 38 37 39 39 42 43 34 43 43 44 48 51 55 57 51 52 50 51 51 49 52 52 52 54 56 58 61 63 67 69 69 70 70 70 72 72
29 35 37 36 34 31 36 39 39 40 38 41 41 39 43 44 44 46 50 53 57 54 52 55 52 51 51 50 50 49 49 50 50 49 49 52 54 59 63 63 65 68 71 70
33 34 38 40 37 27 27 30 35 37 41 42 42 43 42 46 47 45 50 57 56 52 55 53 52 50 49 48 48 47 45 45 46 45 43 42 41 44 48 51 55 60 63 65
38 37 33 36 38 37 41 46 46 44 41 44 41 42 42 42 41 48 53 54 53 52 54 51 50 48 45 45 46 46 45 43 42 43 46 46 42 40 42 42 49 51 53 55
40 34 31 30 30 31 31 32 32 33 35 37 38 38 32 33 40 43 44 41 44 46 48 47 49 48 49 48 46 47 48 46 45 43 41 41 41 39 38 45 52 56 50 56
32 29 22 20 26 28 27 24 24 26 25 24 25 23 29 32 38 38 37 38 41 44 47 49 50 50 50 52 50 50 48 48 52 51 49 46 44 40 40 42 47 55 54 50
24 21 22 26 27 25 18 22 22 21 18 20 22 26 29 33 33 31 31 38 42 46 50 54 56 57 57 55 54 53 51 48 48 50 49 47 47 44 37 38 34 42 46 42
19 20 20 20 18 18 18 19 21 15 15 22 21 23 25 26 28 26 36 43 48 52 54 56 57 56 55 53 50 49 45 43 41 42 45 48 50 51 49 40 35 48 46 45
21 20 22 23 21 18 19 17 19 19 21 21 20 22 24 27 32 34 40 42 46 50 52 52 53 53 53 53 52 47 42 38 36 37 39 42 47 50 48 46 43 41 44 45
19 19 20 20 19 18 19 18 20 22 23 19 19 22 26 31 34 34 38 40 43 43 39 40 39 42 43 45 48 48 44 40 38 37 35 38 39 39 42 48 50 51 52 52
22 19 18 18 19 20 20 19 19 19 21 18 19 24 30 29 32 34 36 38 42 41 38 40 36 32 31 32 36 40 36 41 39 39 37 37 37 40 44 43 48 52 54 56
18 17 21 24 21 21 21 22 24 22 17 18 22 25 28 29 30 35 36 38 42 35 37 36 37 35 33 32 27 25 29 34 35 36 39 41 42 41 41 41 43 50 55 58
22 21 22 24 27 31 35 33 24 17 16 19 23 26 29 29 31 34 32 41 37 30 32 35 33 31 30 27 23 24 26 29 31 34 38 42 43 39 40 42 44 43 50 54
25 25 22 23 24 26 29 21 15 14 16 19 24 29 30 31 33 31 38 37 31 33 35 33 33 30 28 25 21 19 21 24 26 29 32 35 36 35 36 38 37 40 45 48
22 22 20 17 17 18 18 15 13 13 17 22 26 26 28 32 32 29 29 32 32 36 33 32 37 29 27 26 23 23 24 25 29 32 34 32 33 31 35 42 42 43 47 50

GFSCGP_500_spd_108.txt.gz
Wind_Speed
25 28 26 24 26 25 25 23 29 20 16 27 35 37 35 36 37 42 41 40 41 43 44 46 46 48 48 49 48 50 48 49 49 51 50 49 50 49 49 49 49 48 46 45
29 28 24 26 27 28 30 33 37 33 32 34 38 43 47 41 42 44 43 40 37 37 34 36 39 40 42 44 40 41 41 44 48 47 48 49 49 50 50 50 51 53 53 49
32 28 29 34 34 35 36 38 38 37 38 42 42 46 39 34 32 35 35 36 35 33 37 36 39 43 48 47 43 34 40 43 43 44 46 47 49 51 51 51 49 50 51 50
29 26 29 26 32 36 37 34 32 35 37 40 35 42 35 28 28 35 36 38 36 36 40 41 44 52 52 50 46 45 42 46 47 47 47 48 49 50 51 53 52 54 49 50
26 27 29 32 33 30 31 32 34 34 35 39 38 42 38 32 32 30 30 34 39 40 41 50 53 53 52 48 51 54 52 49 50 52 51 52 53 54 55 55 56 57 55 59
33 34 31 31 31 32 37 36 37 39 39 45 38 39 36 29 25 24 26 31 35 44 49 51 50 51 50 52 55 56 57 58 57 53 55 57 58 58 60 59 59 58 58 61
39 35 33 37 37 35 35 36 36 36 33 39 25 28 28 20 29 35 36 39 49 54 52 48 47 43 46 54 57 58 57 57 59 57 55 60 63 63 63 64 64 64 63 62
49 46 42 31 31 37 33 27 32 36 40 42 36 43 36 35 25 26 28 39 50 54 53 54 48 50 54 54 56 57 56 57 59 60 61 61 63 64 65 66 68 68 67 66
20 20 29 44 33 41 42 45 43 48 52 51 45 41 44 41 49 44 40 43 50 58 57 49 41 47 50 51 56 57 56 60 61 62 64 65 64 65 67 66 67 68 67 66
12 13 18 21 26 28 33 33 37 38 44 40 40 31 29 35 40 43 43 49 50 55 55 50 51 52 50 52 58 57 58 60 61 64 66 65 64 66 67 68 68 68 68 66
17 20 15 20 24 25 29 35 37 40 44 47 46 43 30 41 34 38 41 45 50 55 56 56 62 59 51 54 57 57 60 60 58 58 61 65 67 65 66 64 63 63 65 65
23 26 29 24 24 27 29 31 35 40 40 40 38 40 31 42 39 41 35 50 55 57 57 61 63 61 55 54 56 58 61 64 60 58 60 58 59 66 67 66 62 63 63 65
28 32 33 31 30 31 33 32 30 38 39 41 42 38 37 43 43 37 44 44 50 55 59 62 63 61 61 63 58 54 58 58 56 56 57 57 56 57 62 64 66 66 64 64
32 33 36 38 40 37 36 34 35 33 38 40 40 40 37 38 43 46 50 53 55 57 57 56 57 60 62 62 61 59 53 54 53 51 52 53 55 52 52 53 55 58 59 53
34 35 37 41 40 37 35 37 40 43 39 45 43 46 46 49 48 49 55 51 52 53 54 57 59 60 59 58 58 55 56 53 50 49 50 50 51 51 48 48 50 51 51 48
37 39 39 37 31 31 31 28 31 34 38 43 44 45 36 34 34 42 42 43 46 45 48 50 51 55 57 56 57 56 53 53 52 50 50 49 51 51 47 44 42 45 44 45
36 36 32 27 22 23 22 19 22 22 24 23 26 28 30 33 37 40 41 37 38 46 48 48 50 52 55 58 61 62 60 59 58 56 56 54 51 51 52 49 46 44 44 44
28 29 29 24 21 21 19 16 17 18 14 25 24 24 33 35 35 36 34 38 42 40 43 46 51 55 58 61 63 63 63 61 57 55 50 49 51 52 51 51 51 50 48 42
25 24 24 22 22 20 15 20 18 22 19 17 18 24 31 32 29 22 30 35 38 41 45 50 54 58 58 57 58 57 54 56 57 53 49 45 46 47 49 49 47 50 49 47
26 23 22 21 20 19 20 19 19 19 25 26 25 27 31 28 28 23 31 38 42 44 48 49 52 56 62 59 57 57 52 49 49 48 47 44 41 42 43 46 45 46 48 45
25 21 22 22 24 21 20 19 24 25 25 26 27 29 27 24 29 32 34 37 39 43 45 47 50 47 47 53 52 49 47 43 41 40 43 41 38 39 40 41 40 39 37 41
26 23 23 23 20 17 20 23 24 24 23 22 28 27 23 27 31 32 35 37 40 41 43 48 43 45 47 45 44 41 38 37 34 34 35 36 38 39 40 39 39 38 37 37
24 22 24 26 24 25 27 26 28 25 25 27 33 25 28 29 29 32 34 35 37 40 45 41 43 46 46 43 46 41 32 28 27 27 29 31 34 37 41 42 40 42 41 38
19 24 23 24 25 26 31 37 38 32 32 31 22 23 26 27 29 30 30 31 35 36 42 41 44 47 41 45 43 38 32 28 22 23 26 29 32 34 37 40 43 44 45 42
22 27 29 29 31 28 30 31 30 28 22 19 19 23 27 28 28 28 27 29 32 36 39 43 44 40 34 30 28 29 30 24 22 24 26 30 32 35 38 39 39 40 41 41
25 25 27 26 24 21 21 27 23 16 18 18 20 24 29 31 28 29 28 31 32 36 39 32 35 22 20 23 23 22 20 19 21 19 23 27 24 30 31 29 30 42 47 42

GFSCGP_500_spd_111.txt.gz
Wind_Speed
31 33 32 30 30 30 30 30 30 25 13 20 20 29 34 37 34 38 37 36 38 37 38 39 40 42 42 43 44 46 46 44 51 48 48 46 45 46 46 48 48 48 49 48
32 29 27 27 30 31 29 26 29 33 28 31 33 36 38 39 36 34 36 42 44 43 43 43 43 45 46 48 50 51 51 50 48 51 50 48 45 44 44 43 42 40 48 50
29 23 26 29 29 30 33 34 34 39 37 41 40 42 41 42 43 41 37 36 37 38 36 33 35 36 39 44 44 40 33 31 36 40 42 43 41 39 41 39 40 40 48 49
31 30 31 32 35 35 36 34 37 39 38 42 44 49 45 46 41 34 31 31 32 30 34 35 41 43 46 48 46 42 37 31 38 44 44 45 46 44 44 45 45 45 49 52
26 28 30 33 29 30 34 35 38 41 41 38 41 48 45 33 31 28 24 27 29 30 34 41 44 46 48 48 47 45 46 46 43 45 46 47 47 50 49 49 50 49 51 54
27 29 32 34 35 30 36 37 37 36 37 42 37 36 35 22 12 11 21 32 26 31 39 44 44 43 39 40 44 46 50 51 52 49 49 48 52 53 54 54 53 53 53 54
30 27 26 30 34 34 37 38 37 37 37 43 32 36 36 22 21 26 30 37 34 37 46 48 51 53 48 43 42 45 49 52 52 54 55 52 52 55 57 56 58 58 56 57
36 43 38 33 37 38 37 38 42 46 44 47 42 44 39 30 36 31 38 41 38 44 48 53 56 56 52 51 50 53 55 55 55 56 57 59 58 56 58 59 61 62 62 61
19 16 24 33 38 47 45 44 48 47 43 45 47 42 37 37 41 44 43 44 43 46 53 58 60 56 54 57 54 53 52 53 56 57 56 61 62 62 61 62 63 64 63 64
10 9 13 16 18 23 28 27 34 36 37 38 38 35 34 34 39 47 52 55 54 50 49 53 57 59 58 57 55 57 57 57 60 61 60 58 61 64 66 64 65 65 65 65
13 14 12 16 18 19 24 28 31 31 34 36 39 33 35 38 35 38 43 45 48 55 58 58 60 55 57 59 60 62 64 62 63 65 64 62 58 57 62 67 67 64 64 64
19 21 20 20 19 24 26 29 33 35 37 39 43 39 34 41 38 41 50 51 53 55 49 42 55 60 63 65 65 66 64 62 62 64 66 63 60 60 57 58 64 66 65 63
23 27 26 24 24 29 30 32 34 37 41 43 41 41 42 41 43 40 41 45 44 45 55 56 55 60 61 63 65 65 64 62 60 61 63 63 63 62 61 58 57 62 63 63
26 27 30 32 33 32 34 38 41 42 41 43 43 43 45 48 46 44 47 47 49 47 50 55 58 60 65 65 63 62 61 61 61 58 56 59 61 59 59 59 58 55 60 61
27 28 31 35 37 41 43 39 37 43 43 50 43 47 49 44 43 41 48 49 55 55 55 56 57 57 58 57 57 58 59 59 57 58 54 51 56 58 58 57 56 55 54 57
28 29 33 36 36 37 39 24 23 28 32 36 38 44 42 49 52 53 53 59 51 50 48 46 47 48 50 52 52 49 51 57 61 63 65 64 59 57 60 57 53 53 55 55
31 32 36 33 32 34 26 20 21 21 24 28 31 34 33 36 38 40 40 42 45 43 42 42 44 47 47 46 50 55 57 58 60 65 66 64 61 59 56 56 56 52 49 52
29 31 35 33 27 24 21 18 20 21 22 21 27 22 23 29 27 24 35 42 41 41 42 42 44 45 48 50 51 52 56 61 63 62 65 66 61 54 54 52 49 49 49 48
26 29 28 29 27 22 17 20 19 21 23 28 31 24 28 31 38 39 39 35 37 39 40 43 46 46 47 49 50 52 51 54 57 57 58 61 64 54 49 49 46 46 45 44
25 24 26 27 27 23 19 19 21 21 23 26 26 24 24 30 35 33 33 34 35 40 44 46 45 45 49 50 52 55 55 56 53 47 49 51 47 46 41 40 43 40 42 37
24 27 29 27 26 24 22 22 20 21 21 26 28 28 31 30 37 32 30 32 35 37 39 40 39 42 47 53 54 54 56 58 56 48 45 39 35 31 30 31 36 37 37 34
26 26 27 25 28 27 20 20 21 24 28 27 28 32 28 34 31 27 29 32 35 37 37 36 38 44 47 52 56 57 52 47 44 40 36 31 26 25 28 31 34 36 35 34
27 26 26 28 22 29 28 26 25 28 30 30 34 30 34 34 24 28 31 34 37 32 32 38 42 42 50 47 41 38 36 33 30 29 29 27 27 28 30 30 33 36 37 36
28 25 26 29 28 32 32 29 33 34 33 37 39 37 33 24 27 30 30 31 30 33 35 37 40 41 32 25 25 28 26 24 21 22 23 27 27 28 29 30 32 35 37 38
25 25 27 29 33 33 33 33 33 29 28 27 29 22 21 24 27 29 30 28 31 34 33 35 33 21 23 23 25 27 28 27 29 27 30 32 28 27 31 32 33 36 37 38
26 25 29 29 27 28 28 31 27 30 27 25 15 18 23 27 29 31 29 29 32 30 29 28 22 23 24 28 27 25 26 28 32 37 31 36 31 27 26 26 29 31 34 38

GFSCGP_500_spd_114.txt.gz
Wind_Speed
29 30 29 29 30 28 30 32 29 29 27 35 36 38 36 37 36 37 37 37 35 33 33 33 33 37 38 40 41 42 44 45 46 44 43 44 45 45 45 46 44 45 44 46
31 27 28 30 31 32 33 35 35 34 36 40 37 37 37 39 40 37 37 35 31 33 35 37 36 38 40 44 45 47 50 51 48 46 49 50 48 49 50 50 49 49 47 42
28 28 30 31 33 36 37 37 37 39 38 42 43 40 38 38 39 39 37 30 31 37 39 38 36 37 40 44 48 50 48 44 38 35 36 39 40 39 39 40 42 44 46 43
27 28 28 31 31 31 34 33 34 34 39 41 41 41 41 42 42 40 37 34 34 33 30 31 35 38 40 40 40 40 39 35 32 32 33 44 45 43 41 43 44 45 46 48
30 35 35 34 35 38 39 38 41 40 40 40 36 45 43 41 43 39 43 42 38 38 38 36 38 41 42 41 42 42 40 39 38 37 40 43 44 47 49 48 49 49 50 52
24 26 27 31 37 40 43 41 41 41 42 44 38 39 42 33 35 41 39 42 41 37 38 41 43 44 42 40 39 38 37 39 40 39 39 44 46 47 49 50 52 53 54 55
27 26 26 28 30 34 37 39 38 39 37 39 35 37 41 27 37 38 39 42 43 33 37 39 40 44 45 45 46 44 41 40 42 43 49 48 48 48 47 48 53 55 56 58
37 33 31 34 32 32 34 36 38 42 41 37 34 42 37 32 35 34 38 43 38 36 36 40 43 47 49 51 51 50 48 46 46 49 50 50 50 51 52 52 52 55 57 58
20 24 34 41 45 44 39 41 44 46 46 42 38 32 30 32 37 39 38 42 47 41 40 47 47 49 54 57 57 56 54 51 51 56 57 56 53 55 59 61 60 60 61 61
9 12 17 17 19 28 26 27 36 36 36 34 31 27 24 27 30 33 39 47 51 52 47 50 53 56 57 55 56 55 55 56 62 66 60 60 61 61 60 62 63 69 69 67
8 9 12 13 13 18 24 23 28 28 31 34 33 26 27 29 30 32 37 39 41 46 46 52 60 63 67 56 51 54 57 63 65 63 67 67 67 66 64 63 63 67 70 72
14 15 16 17 22 24 25 29 30 33 34 35 38 35 36 39 39 41 43 44 43 51 49 47 44 49 57 61 58 55 58 62 64 67 70 70 69 69 69 65 64 64 63 67
19 20 19 20 24 26 29 31 34 37 38 39 42 43 44 42 40 39 39 41 43 47 50 54 57 59 57 59 58 58 61 64 66 69 70 69 66 66 67 66 67 67 67 66
22 22 22 22 25 29 31 34 35 38 44 45 47 47 44 46 49 41 42 44 47 47 52 54 54 54 54 55 58 63 66 70 71 70 68 65 63 63 63 64 64 66 67 68
21 22 27 28 29 31 33 34 33 39 42 46 42 44 45 51 49 46 53 55 45 41 46 52 52 54 58 62 66 67 68 68 67 64 63 62 58 57 55 57 61 65 67 70
19 22 27 28 31 36 34 31 36 36 37 39 37 37 40 43 45 46 51 55 55 57 55 53 55 61 60 59 61 61 60 60 61 60 56 51 52 57 60 62 63 64 68 64
20 23 27 26 31 34 34 31 27 26 25 26 27 28 30 31 33 36 35 34 36 40 40 42 46 50 51 52 54 54 54 52 52 49 51 56 59 57 61 63 63 66 63 58
24 26 30 30 32 30 30 27 24 23 21 24 28 27 26 26 29 30 30 36 38 38 40 46 46 45 46 48 49 48 47 47 48 55 59 61 62 61 62 62 61 62 60 57
26 29 32 32 29 26 24 24 25 23 22 24 26 28 30 29 30 37 40 38 40 46 48 45 42 40 39 41 43 42 41 48 53 57 62 63 63 62 64 60 56 53 49 47
28 27 30 29 31 31 26 20 22 25 24 25 28 29 30 31 29 30 34 37 41 44 42 40 40 43 44 44 41 41 46 50 56 58 58 59 58 56 53 50 45 39 39 41
29 29 29 28 30 28 27 24 24 28 26 22 24 26 29 31 31 31 34 37 39 34 37 42 44 44 42 42 43 47 48 50 42 40 43 42 41 43 42 39 35 30 28 28
30 31 29 26 29 34 26 28 27 26 26 27 30 34 31 31 33 34 34 37 33 35 38 42 43 41 42 44 45 43 32 29 31 31 29 26 25 27 32 33 31 31 29 27
32 32 30 28 26 27 28 32 30 30 30 30 30 35 38 39 39 40 36 31 33 36 38 38 37 36 37 41 39 29 29 33 30 29 30 29 28 30 30 31 32 31 31 28
32 32 28 27 25 30 37 36 35 34 34 34 33 35 35 31 31 27 26 29 33 35 35 35 33 35 36 36 31 35 33 40 37 40 32 32 38 33 33 32 30 30 30 30
34 31 25 25 27 29 34 38 38 39 39 36 34 29 29 26 21 22 26 30 32 33 32 32 33 29 28 29 31 35 34 34 30 35 37 35 33 39 39 36 30 28 30 31
30 26 26 25 27 28 32 36 37 33 30 28 26 26 22 19 19 23 28 30 31 31 29 28 21 23 24 30 29 27 31 34 40 37 36 42 46 44 31 28 30 29 28 33

GFSCGP_500_spd_117.txt.gz
Wind_Speed
29 28 26 23 26 28 32 33 34 28 35 40 42 46 46 47 49 48 45 48 48 46 41 38 37 38 38 40 42 42 43 42 44 44 42 39 40 42 42 41 42 44 44 45
27 24 24 29 30 30 32 34 34 29 36 42 41 43 44 44 46 45 44 45 45 42 34 38 40 41 40 41 43 44 45 47 47 45 42 42 43 44 47 47 48 46 47 47
27 28 31 30 31 32 33 35 34 32 34 39 40 40 38 38 40 43 42 41 40 34 38 39 40 43 45 44 45 47 48 49 48 45 39 35 39 40 42 42 44 47 47 47
30 32 32 33 33 33 33 33 34 34 35 38 41 39 36 38 41 42 41 39 35 36 38 40 41 45 46 47 47 48 49 47 43 37 34 35 37 42 46 44 43 44 45 46
27 31 33 32 31 35 34 34 36 38 39 38 39 41 37 38 40 41 42 41 41 44 41 39 36 36 38 39 40 40 39 40 38 37 36 36 37 41 44 46 48 50 50 51
33 32 31 30 31 35 35 34 36 37 37 39 38 39 41 40 39 41 46 46 47 46 39 36 35 39 41 43 42 42 42 41 38 33 32 33 36 38 39 43 48 52 53 54
27 26 27 29 32 34 34 35 36 38 38 38 35 35 37 36 29 36 38 41 44 46 42 37 36 41 44 44 43 41 41 40 39 38 39 37 39 42 45 47 47 48 53 56
27 28 32 33 33 33 32 34 36 39 39 38 37 39 34 37 34 36 39 40 41 43 42 39 38 40 42 44 44 44 44 45 48 48 48 48 47 47 49 48 48 51 52 54
37 41 40 39 36 34 36 37 39 40 43 43 42 39 38 35 38 38 39 46 45 45 45 43 41 43 45 46 47 47 49 50 53 55 55 54 54 54 54 58 58 55 57 60
14 18 20 25 30 34 36 38 39 41 42 41 39 33 25 27 32 36 36 35 36 38 42 41 40 43 46 46 50 53 53 56 55 53 56 58 60 60 62 65 65 61 62 64
13 13 14 14 16 19 20 23 24 26 29 31 30 28 28 30 30 32 32 33 33 36 33 38 42 42 38 45 53 59 62 63 62 64 60 57 59 63 66 69 65 64 68 75
12 12 14 15 19 18 21 24 27 28 29 31 34 35 37 36 34 35 36 38 39 39 46 47 51 51 55 47 47 48 50 56 57 59 60 65 65 66 65 65 67 69 72 74
15 16 18 20 23 24 26 27 29 32 35 37 39 41 42 40 40 42 44 43 46 46 50 51 51 53 55 47 49 58 52 58 64 64 64 66 68 70 72 74 75 76 76 72
19 20 22 22 25 27 28 29 31 35 39 40 42 41 45 49 50 51 51 51 50 52 52 51 46 51 55 53 56 58 63 65 65 67 70 71 72 72 73 74 75 75 72 70
20 22 23 24 26 29 30 30 34 38 40 44 43 43 44 47 48 47 47 48 48 47 47 54 57 53 52 56 57 59 63 65 67 70 72 75 78 78 77 79 73 69 66 67
18 20 23 23 26 28 29 31 33 35 39 42 43 42 44 44 41 33 32 33 32 34 36 44 52 59 61 55 56 60 60 61 66 72 77 73 71 71 69 68 66 65 66 67
15 19 22 20 24 26 27 29 33 35 36 36 38 37 37 36 32 29 29 27 29 31 32 34 37 39 37 40 46 50 52 56 62 62 60 60 61 61 61 61 64 68 71 70
14 18 21 21 22 27 29 30 30 30 30 31 30 29 29 30 32 31 28 27 32 35 37 35 37 41 44 50 51 50 49 50 50 49 50 52 52 55 61 68 72 72 71 69
19 21 25 25 26 30 30 30 31 32 30 27 27 28 30 31 31 33 37 36 37 38 37 39 43 44 46 46 45 44 42 44 45 44 45 48 55 61 62 61 63 64 63 66
23 25 27 29 32 33 30 27 29 32 29 26 28 30 30 29 28 30 34 35 37 40 42 43 44 45 39 43 45 43 41 40 42 46 51 53 52 45 42 45 44 43 45 46
25 27 30 32 35 37 35 33 27 31 28 28 29 30 31 30 31 30 34 38 41 39 40 43 46 41 43 45 44 41 41 43 46 46 45 42 45 44 41 43 41 39 39 39
26 29 32 34 37 39 37 32 31 30 28 27 27 28 30 33 35 39 41 43 43 42 44 43 38 40 44 43 43 41 41 43 39 37 40 46 49 50 47 48 42 44 44 37
29 32 34 36 38 37 34 31 32 34 28 30 31 33 34 36 38 42 42 37 36 37 34 34 38 40 39 40 41 38 36 36 37 41 43 48 46 46 48 46 45 41 40 39
32 35 36 37 35 35 30 32 33 33 33 35 35 35 36 36 38 36 33 33 28 28 31 37 37 36 34 36 32 34 34 32 32 36 41 42 41 45 45 41 38 42 45 42
34 35 37 36 31 28 28 31 31 31 32 35 37 36 35 34 32 31 26 23 25 28 33 32 33 31 28 25 24 29 31 32 39 40 43 44 44 46 49 47 47 42 37 34
35 37 37 30 30 28 29 29 29 30 33 35 36 33 33 30 25 21 21 23 26 28 28 30 30 23 21 19 23 27 32 36 38 38 42 37 40 41 37 34 31 31 33 32

GFSCGP_500_spd_120.txt.gz
Wind_Speed
29 31 27 24 25 25 28 31 33 31 36 42 44 46 46 45 47 49 49 46 44 48 51 52 52 53 53 53 52 51 48 44 43 42 42 40 38 38 40 42 44 44 44 45
26 22 20 26 30 31 34 35 34 31 34 43 43 45 47 47 46 45 44 43 45 48 51 47 48 50 49 48 47 46 44 43 44 43 43 43 41 39 43 45 46 48 48 48
21 21 25 28 29 30 31 32 29 27 31 40 40 40 41 41 39 38 39 38 40 42 41 40 37 39 42 42 42 43 44 45 46 46 47 47 47 47 48 49 50 50 49 50
28 28 30 29 28 29 30 30 29 28 30 33 36 37 35 35 34 34 35 36 36 38 36 36 37 39 38 40 43 44 46 47 47 47 47 45 44 44 43 44 45 46 45 46
27 31 31 30 30 31 29 31 30 31 31 34 36 38 32 34 34 35 38 39 39 39 37 36 39 41 42 44 45 45 42 40 38 39 40 38 38 40 40 40 41 42 46 47
29 30 30 30 32 34 32 33 33 32 32 34 34 36 35 33 36 35 37 41 43 43 43 43 44 43 40 40 38 38 40 40 41 42 43 40 38 37 38 39 42 44 45 44
29 29 28 28 31 32 30 29 30 32 34 34 33 36 38 39 37 37 38 42 46 48 48 46 43 39 36 37 38 40 42 43 45 47 46 44 39 41 43 45 46 48 49 49
31 31 31 33 34 34 33 32 34 36 35 34 35 36 35 36 36 36 38 41 43 45 46 47 46 43 42 42 42 43 45 47 48 48 48 48 46 45 46 47 48 51 52 52
31 33 32 32 31 32 33 32 33 35 36 37 37 38 40 39 41 44 45 48 48 50 51 51 52 49 48 47 48 47 50 52 52 53 53 52 51 50 51 52 54 55 56 56
34 36 35 34 35 34 34 34 36 37 39 40 39 35 34 32 32 34 37 38 37 37 39 41 42 42 41 42 44 50 53 54 54 51 52 57 58 58 61 62 59 62 61 60
21 21 23 25 26 29 32 32 31 32 35 34 29 24 22 24 26 27 30 34 37 37 36 36 36 38 36 34 36 41 44 46 49 52 57 61 64 69 70 67 65 67 63 69
14 13 15 17 16 17 18 18 19 21 23 26 27 27 28 29 31 33 35 37 37 39 41 41 42 43 46 50 49 48 52 54 56 56 53 56 58 65 78 75 65 67 69 68
13 13 16 19 18 18 20 21 23 25 27 28 31 32 31 34 36 39 41 42 43 44 46 48 49 49 52 54 55 58 60 60 63 63 61 60 63 64 63 67 71 71 71 72
18 20 21 21 22 22 22 23 25 28 29 30 34 34 39 39 41 42 44 47 48 49 51 53 54 56 57 59 60 60 59 58 58 60 64 66 66 69 72 73 74 75 75 75
17 17 18 19 21 22 22 23 28 30 32 35 33 35 39 42 44 45 46 46 48 49 49 51 52 54 55 55 56 56 59 60 60 60 61 63 68 72 75 76 77 79 78 79
18 18 20 21 23 24 22 24 27 29 31 33 36 37 42 44 45 45 45 42 40 38 39 38 38 38 38 39 42 45 47 51 56 62 66 69 69 76 74 75 77 78 79 70
17 18 20 18 22 23 23 23 25 27 30 33 36 40 43 43 43 40 38 36 35 33 33 31 30 30 35 37 36 38 41 45 50 54 55 58 61 63 64 64 63 63 62 62
18 20 19 18 21 24 25 25 27 31 33 36 38 39 40 41 38 34 33 31 31 32 32 33 34 34 37 41 44 47 49 52 55 56 56 55 56 58 58 58 57 56 57 59
18 19 21 21 23 26 25 26 29 31 33 36 38 37 36 33 30 32 34 34 35 33 35 37 39 39 41 44 46 46 42 43 44 46 48 49 50 51 52 54 57 59 62 63
19 21 24 25 27 28 27 28 32 35 36 36 37 36 33 31 31 33 36 34 35 34 33 36 41 41 40 41 41 38 40 42 45 45 45 46 49 52 56 57 56 52 50 54
21 24 25 26 28 30 31 34 36 38 38 38 35 32 30 31 32 31 33 36 39 38 41 45 45 43 42 40 39 39 41 43 42 43 43 43 44 47 48 49 51 55 58 61
22 24 25 28 30 34 36 39 40 41 40 36 31 30 31 30 31 33 35 36 38 41 43 44 38 34 34 37 40 39 42 42 39 38 36 36 38 42 45 48 50 52 53 54
22 24 27 28 32 37 40 42 44 43 35 33 30 30 30 32 33 35 38 41 41 42 39 36 31 30 33 39 42 39 37 32 31 33 35 41 41 44 50 50 50 54 56 59
24 26 27 31 35 40 44 46 44 36 31 31 31 30 32 33 34 36 38 40 38 35 32 27 29 32 34 38 36 32 28 31 34 38 40 43 40 40 45 48 47 47 47 45
26 26 30 34 39 42 43 40 34 32 32 32 32 31 34 35 36 36 35 33 30 24 24 27 30 31 33 29 26 25 30 31 33 37 43 42 42 46 46 46 49 45 37 34
24 27 31 36 41 39 34 33 32 32 33 34 34 34 35 34 31 30 27 24 21 22 24 27 28 28 25 17 20 28 27 30 36 42 40 39 44 45 47 46 38 33 32 36

GFSCGP_500_spd_123.txt.gz
Wind_Speed
26 27 25 24 24 23 27 27 28 29 31 33 36 37 36 38 41 44 45 44 43 39 39 43 49 47 47 46 47 47 48 49 48 45 42 41 39 39 38 40 42 43 44 45
26 22 21 26 26 26 29 30 30 33 35 36 37 39 39 39 41 41 40 41 41 41 41 42 44 44 45 45 42 42 44 45 45 45 42 40 40 41 42 42 43 45 46 48
17 18 20 23 25 28 29 29 28 29 33 37 38 39 39 36 38 39 40 39 39 39 39 38 37 33 36 38 38 39 41 42 42 42 44 44 44 44 46 45 46 47 49 50
23 24 25 26 26 25 25 25 25 26 31 35 36 39 38 39 37 36 37 37 36 35 36 37 38 34 35 36 37 38 41 42 43 44 45 45 45 45 46 47 47 46 48 49
25 26 27 27 25 26 26 26 26 26 28 30 33 35 33 33 32 31 30 31 35 36 38 39 39 39 39 40 42 44 45 45 44 44 43 41 39 37 40 41 43 42 45 47
31 31 31 31 29 31 28 29 28 28 29 32 33 34 34 32 32 32 33 35 37 40 40 41 41 42 43 45 46 46 46 45 46 45 43 43 40 41 43 44 44 47 49 50
30 31 31 29 30 32 31 30 30 30 31 33 31 33 37 34 34 35 36 37 38 40 43 45 46 46 47 48 48 47 43 42 44 46 47 47 46 47 49 47 45 48 49 51
28 28 29 30 30 29 28 28 28 29 30 32 32 35 38 36 36 37 38 38 39 41 43 44 44 45 46 45 44 43 44 45 46 49 51 52 52 51 52 51 49 51 53 55
31 32 32 31 31 32 31 32 31 33 35 35 35 34 35 34 33 34 36 38 41 44 45 45 46 47 48 47 46 45 48 49 49 50 53 54 55 57 58 58 58 58 59 58
29 31 32 32 32 32 31 30 30 31 32 32 34 34 36 33 34 34 35 37 39 40 41 42 41 41 44 47 49 53 55 54 54 54 53 54 57 60 61 61 60 61 62 63
29 31 32 32 31 31 29 30 31 31 35 35 34 32 26 25 23 25 28 30 31 31 33 35 36 37 38 39 41 43 45 48 54 58 60 62 63 65 65 66 65 65 63 65
15 18 24 27 30 32 30 26 25 28 26 26 22 21 19 22 25 28 31 33 34 35 37 39 40 42 44 45 46 46 47 47 49 51 54 56 59 60 61 66 69 64 65 67
17 16 16 16 16 16 16 16 16 17 18 18 24 22 21 25 29 32 35 36 38 41 43 44 46 47 49 51 52 53 55 54 55 58 62 66 68 69 70 75 73 72 73 72
15 16 16 17 16 17 17 18 19 21 21 23 24 25 28 30 33 34 37 39 41 43 45 48 50 51 52 54 55 56 57 59 60 62 64 66 67 69 71 73 75 75 74 77
19 18 19 18 18 18 18 19 21 22 23 28 25 31 30 33 34 36 38 41 44 46 48 50 51 52 53 53 53 53 54 55 57 56 56 57 58 60 65 69 71 72 74 76
17 16 17 18 18 19 18 21 24 24 25 27 29 28 33 33 36 39 42 45 47 48 48 49 50 48 45 42 41 41 40 40 41 42 45 49 52 51 53 55 58 63 67 69
17 18 18 18 20 19 16 20 23 24 26 28 30 33 35 38 39 41 43 44 43 43 41 38 37 37 37 35 34 37 39 41 43 48 52 52 56 58 60 61 61 62 64 64
18 18 18 17 18 19 17 19 22 25 27 31 33 36 39 40 41 40 42 40 37 36 36 37 36 35 37 38 41 41 43 46 48 49 52 53 52 51 53 56 59 59 60 60
18 19 18 18 19 20 21 20 23 27 30 34 36 39 40 40 42 41 42 37 36 36 34 34 33 33 35 39 40 43 46 48 47 48 44 44 48 51 52 53 55 56 57 58
20 20 19 20 22 23 21 24 28 31 32 33 37 40 41 43 45 40 38 37 37 36 36 35 35 36 37 41 43 43 43 41 39 39 43 45 48 48 46 44 44 45 48 51
19 20 19 21 23 22 24 25 29 31 35 36 39 42 44 43 41 38 36 35 37 36 36 38 38 38 41 42 41 36 32 35 37 39 40 38 36 38 42 46 49 51 49 50
20 21 20 21 22 25 26 28 30 35 39 42 44 45 43 37 35 36 36 39 40 39 40 40 40 40 40 35 30 29 33 34 35 34 32 34 38 42 45 49 49 46 48 52
21 22 20 21 24 27 27 30 36 40 44 46 45 39 36 32 32 35 36 38 39 41 40 40 40 35 28 28 31 31 32 28 28 29 34 37 39 44 48 46 47 50 50 50
23 24 22 25 26 27 29 34 39 46 45 38 35 31 30 31 32 32 33 36 38 40 39 36 29 22 24 29 32 31 21 21 28 32 34 37 42 42 45 46 48 47 49 46
25 24 26 26 26 28 31 36 42 41 38 36 33 32 32 31 30 32 34 34 34 33 29 21 19 22 27 28 27 20 21 26 28 32 35 42 41 42 44 46 48 47 48 46
25 26 26 26 26 29 33 38 38 36 33 31 30 29 30 29 28 29 29 28 26 22 16 17 22 25 25 22 20 20 24 29 31 32 38 40 43 45 44 45 47 48 46 42

GFSCGP_500_spd_126.txt.gz
Wind_Speed
26 29 31 33 32 32 31 33 26 30 21 24 19 18 18 24 26 29 30 33 36 39 41 41 42 45 47 46 46 44 44 46 47 49 46 42 39 36 35 37 39 40 41 42
29 25 21 21 21 23 23 22 22 26 24 24 26 28 28 31 33 34 40 42 42 40 39 41 42 43 45 44 45 46 44 46 47 47 44 41 37 34 35 36 39 40 41 43
20 20 25 25 25 25 25 26 29 30 30 31 35 31 32 33 31 35 38 37 38 38 39 41 41 43 44 44 44 44 42 42 43 41 41 42 41 39 40 41 42 43 46 47
24 25 25 24 26 27 28 27 29 31 30 30 34 24 34 32 33 35 33 34 35 35 36 39 40 40 40 40 39 38 37 39 39 39 40 41 42 41 43 45 47 49 51 48
26 27 28 29 29 29 28 26 27 29 30 31 30 29 26 30 30 33 31 34 35 35 37 37 39 40 40 38 38 38 38 39 41 42 44 44 45 46 44 44 42 45 45 44
29 29 29 29 29 28 28 28 29 29 29 31 29 30 21 33 29 31 31 32 33 36 37 38 39 40 42 42 43 43 43 44 45 47 48 49 50 51 51 49 44 46 45 45
28 28 31 29 29 30 28 28 27 26 29 26 35 32 26 38 30 30 31 33 35 37 40 42 43 44 45 45 45 46 46 46 47 49 51 51 51 52 52 50 49 49 49 50
30 31 29 30 29 30 26 26 21 22 19 19 35 31 38 37 34 33 32 34 37 38 41 44 45 45 46 47 48 48 47 48 49 50 50 52 53 53 54 52 53 52 54 56
29 31 30 28 29 27 28 27 29 30 30 29 25 34 36 34 31 32 35 37 38 40 43 44 44 44 45 46 47 48 49 50 51 51 53 53 54 54 54 54 54 55 56 58
29 31 28 29 28 28 28 28 26 27 30 29 25 32 27 34 29 30 34 37 39 41 43 43 45 45 46 46 48 50 52 52 52 55 57 60 60 60 59 60 58 59 62 62
29 29 28 28 30 30 31 30 29 30 28 28 25 17 31 29 28 30 31 33 34 33 33 33 35 37 37 38 40 41 42 44 44 45 47 51 55 60 65 64 65 67 67 69
27 25 28 32 33 33 30 30 28 29 28 31 32 30 31 21 22 25 28 29 29 29 32 35 37 38 41 43 45 46 47 48 49 51 51 52 53 55 58 60 62 64 66 66
29 29 26 21 23 27 30 30 30 29 26 23 23 19 16 21 25 27 28 31 30 34 36 39 40 42 44 46 48 49 51 52 53 55 56 57 58 60 61 65 69 71 74 76
25 23 18 14 19 17 16 18 19 19 17 17 19 21 21 24 27 28 31 35 34 36 37 40 42 44 46 48 50 52 53 55 56 58 59 61 62 63 65 66 69 71 74 76
20 20 18 17 13 14 14 16 17 18 20 20 20 24 24 29 29 30 32 33 36 39 42 46 49 51 53 55 57 58 58 60 60 60 59 58 57 55 55 55 57 58 59 60
16 15 16 16 16 15 16 17 17 18 20 22 24 24 27 27 29 31 34 38 42 46 47 49 49 51 54 55 56 56 56 55 53 50 48 46 46 47 48 51 55 57 59 61
18 18 18 17 15 16 18 18 18 19 21 22 23 26 27 30 33 37 40 42 44 46 47 48 51 52 52 52 51 48 47 45 45 45 47 48 50 52 53 55 57 54 53 55
18 18 17 17 16 17 14 18 17 18 21 23 25 29 32 34 37 40 43 44 46 46 48 51 50 47 45 44 44 43 43 44 44 47 50 52 54 54 51 47 48 52 55 57
19 19 19 18 18 17 18 18 19 20 23 25 28 31 34 35 38 41 45 45 47 50 49 47 42 42 42 41 40 40 41 42 43 48 49 49 47 42 44 47 50 51 50 47
21 20 19 19 19 20 19 21 22 23 28 26 31 33 36 39 42 49 49 50 50 50 46 39 37 38 38 39 39 39 40 43 45 43 36 36 40 44 46 45 42 45 47 50
21 22 21 22 22 22 21 24 24 24 27 29 31 37 41 46 51 54 53 52 51 45 38 37 38 36 35 37 39 40 40 38 30 30 34 38 42 41 39 41 45 47 51 54
20 21 21 23 23 24 24 23 24 26 27 31 36 40 48 48 44 44 43 40 38 37 38 39 37 37 38 38 39 34 27 28 30 32 34 34 34 37 40 41 44 49 50 51
19 20 21 22 24 24 22 24 25 27 29 34 39 44 40 39 36 34 33 34 35 36 35 35 37 37 37 35 26 21 25 28 27 27 26 30 33 37 40 41 43 46 49 52
20 22 22 24 23 24 26 26 27 28 32 36 42 40 38 35 34 33 33 33 33 33 34 35 35 32 26 20 22 24 24 24 22 23 28 33 32 38 37 40 46 48 49 51
22 23 23 25 23 27 27 28 29 31 34 39 41 37 34 31 29 29 29 31 31 30 29 27 21 15 16 20 24 25 22 19 23 27 31 31 36 34 39 46 46 46 48 49
25 24 25 25 25 27 28 28 30 33 36 41 39 35 35 33 31 31 29 29 27 25 23 19 15 15 20 23 21 18 17 21 24 27 27 31 32 38 44 44 45 46 43 44